Time,TemperatureF,DewpointF,PressureIn,WindDirection,WindDirectionDegrees,WindSpeedMPH,WindSpeedGustMPH,Humidity,HourlyPrecipIn,Conditions,Clouds,dailyrainin,SoftwareType,DateUTC
2013-05-10 00:00:00,60.0,57.1,29.88,North,0,4.9,4.9,90,0.00,,,0.00,VWS V14.01,2013-05-10 05:00:00,
2013-05-10 00:01:00,60.0,57.1,29.88,North,0,4.9,4.9,90,0.00,,,0.00,VWS V14.01,2013-05-10 05:01:00,
2013-05-10 00:02:00,60.0,57.1,29.88,North,0,6.0,6.0,90,0.00,,,0.00,VWS V14.01,2013-05-10 05:02:00,
2013-05-10 00:03:00,60.0,57.1,29.88,North,0,6.0,6.0,90,0.00,,,0.00,VWS V14.01,2013-05-10 05:03:00,
2013-05-10 00:04:00,60.0,57.1,29.88,NNE,22,3.3,6.0,90,0.00,,,0.00,VWS V14.01,2013-05-10 05:04:00,
2013-05-10 00:05:00,60.0,57.1,29.88,NNE,22,3.3,3.3,90,0.00,,,0.00,VWS V14.01,2013-05-10 05:05:00,
2013-05-10 00:06:00,60.0,57.1,29.88,NNE,22,3.3,3.3,90,0.00,,,0.00,VWS V14.01,2013-05-10 05:06:00,
2013-05-10 00:07:00,60.0,57.1,29.88,North,0,6.7,6.7,90,0.00,,,0.00,VWS V14.01,2013-05-10 05:07:00,
2013-05-10 00:08:00,60.0,57.1,29.88,North,0,6.7,6.7,90,0.00,,,0.00,VWS V14.01,2013-05-10 05:08:00,
2013-05-10 00:09:00,59.9,57.0,29.88,NNE,22,5.3,6.7,90,0.00,,,0.00,VWS V14.01,2013-05-10 05:09:00,
2013-05-10 00:10:00,59.9,57.0,29.88,NNE,22,5.3,5.3,90,0.00,,,0.00,VWS V14.01,2013-05-10 05:10:00,
2013-05-10 00:11:00,59.9,57.0,29.88,NNE,22,5.3,5.3,90,0.00,,,0.00,VWS V14.01,2013-05-10 05:11:00,
2013-05-10 00:12:00,59.9,57.0,29.88,North,0,7.1,7.1,90,0.00,,,0.00,VWS V14.01,2013-05-10 05:12:00,
2013-05-10 00:13:00,59.7,56.8,29.88,NNE,22,5.5,7.1,90,0.00,,,0.00,VWS V14.01,2013-05-10 05:13:00,
2013-05-10 00:14:00,59.7,56.8,29.88,NNE,22,5.5,5.5,90,0.00,,,0.00,VWS V14.01,2013-05-10 05:14:00,
2013-05-10 00:15:00,59.5,56.6,29.88,North,0,7.8,7.8,90,0.00,,,0.00,VWS V14.01,2013-05-10 05:15:00,
2013-05-10 00:16:00,59.5,56.6,29.88,North,0,7.8,7.8,90,0.00,,,0.00,VWS V14.01,2013-05-10 05:16:00,
2013-05-10 00:17:00,59.5,56.6,29.88,NNE,22,6.4,7.8,90,0.02,,,0.02,VWS V14.01,2013-05-10 05:17:00,
2013-05-10 00:18:00,59.5,56.6,29.88,NNE,22,6.4,6.4,90,0.02,,,0.02,VWS V14.01,2013-05-10 05:18:00,
2013-05-10 00:19:00,59.3,56.4,29.88,North,0,6.9,6.9,90,0.02,,,0.02,VWS V14.01,2013-05-10 05:19:00,
2013-05-10 00:20:00,59.3,56.4,29.88,North,0,6.9,6.9,90,0.02,,,0.02,VWS V14.01,2013-05-10 05:20:00,
2013-05-10 00:21:00,59.3,56.4,29.88,North,0,6.9,6.9,90,0.02,,,0.02,VWS V14.01,2013-05-10 05:21:00,
2013-05-10 00:22:00,59.1,56.2,29.88,NNE,22,8.0,8.0,90,0.02,,,0.02,VWS V14.01,2013-05-10 05:22:00,
2013-05-10 00:23:00,59.1,56.2,29.88,NNE,22,8.0,8.0,90,0.02,,,0.02,VWS V14.01,2013-05-10 05:23:00,
2013-05-10 00:24:00,58.8,55.9,29.88,North,0,13.4,13.4,90,0.02,,,0.02,VWS V14.01,2013-05-10 05:24:00,
2013-05-10 00:25:00,58.8,55.9,29.88,North,0,13.4,13.4,90,0.02,,,0.02,VWS V14.01,2013-05-10 05:25:00,
2013-05-10 00:26:00,58.8,55.9,29.88,North,0,13.4,13.4,90,0.02,,,0.02,VWS V14.01,2013-05-10 05:26:00,
2013-05-10 00:27:00,58.8,55.9,29.88,North,0,6.7,6.7,90,0.02,,,0.02,VWS V14.01,2013-05-10 05:27:00,
2013-05-10 00:28:00,58.8,55.9,29.89,North,0,7.3,7.3,90,0.02,,,0.02,VWS V14.01,2013-05-10 05:28:00,
2013-05-10 00:29:00,58.8,55.9,29.88,North,0,7.3,7.3,90,0.02,,,0.02,VWS V14.01,2013-05-10 05:29:00,
2013-05-10 00:30:00,58.8,55.9,29.88,NNE,22,18.5,18.5,90,0.02,,,0.02,VWS V14.01,2013-05-10 05:30:00,
2013-05-10 00:31:00,58.8,55.9,29.88,NNE,22,18.5,18.5,90,0.02,,,0.02,VWS V14.01,2013-05-10 05:31:00,
2013-05-10 00:32:00,58.6,55.7,29.88,NNE,22,11.6,18.5,90,0.04,,,0.04,VWS V14.01,2013-05-10 05:32:00,
2013-05-10 00:33:00,58.6,55.7,29.88,NNE,22,11.6,11.6,90,0.04,,,0.04,VWS V14.01,2013-05-10 05:33:00,
2013-05-10 00:34:00,58.2,55.3,29.88,NNE,22,14.0,14.0,90,0.04,,,0.04,VWS V14.01,2013-05-10 05:34:00,
2013-05-10 00:35:00,58.2,55.3,29.88,NNE,22,14.0,14.0,90,0.04,,,0.04,VWS V14.01,2013-05-10 05:35:00,
2013-05-10 00:36:00,58.2,55.3,29.88,NNE,22,14.0,14.0,90,0.04,,,0.04,VWS V14.01,2013-05-10 05:36:00,
2013-05-10 00:37:00,57.9,55.0,29.88,NNE,22,14.3,14.3,90,0.04,,,0.04,VWS V14.01,2013-05-10 05:37:00,
2013-05-10 00:38:00,57.9,55.0,29.88,NNE,22,14.3,14.3,90,0.04,,,0.04,VWS V14.01,2013-05-10 05:38:00,
2013-05-10 00:39:00,57.0,54.1,29.89,NNE,22,15.2,15.2,90,0.04,,,0.04,VWS V14.01,2013-05-10 05:39:00,
2013-05-10 00:40:00,57.0,54.1,29.89,NNE,22,15.2,15.2,90,0.04,,,0.04,VWS V14.01,2013-05-10 05:40:00,
2013-05-10 00:41:00,57.0,54.1,29.89,NNE,22,15.2,15.2,90,0.04,,,0.04,VWS V14.01,2013-05-10 05:41:00,
2013-05-10 00:42:00,56.4,53.5,29.89,NNE,22,19.0,19.0,90,0.04,,,0.04,VWS V14.01,2013-05-10 05:42:00,
2013-05-10 00:43:00,55.9,52.7,29.89,NNE,22,12.0,19.0,89,0.04,,,0.04,VWS V14.01,2013-05-10 05:43:00,
2013-05-10 00:44:00,55.9,52.7,29.89,NNE,22,12.0,12.0,89,0.04,,,0.04,VWS V14.01,2013-05-10 05:44:00,
2013-05-10 00:45:00,55.5,52.6,29.89,NNE,22,16.5,16.5,90,0.04,,,0.04,VWS V14.01,2013-05-10 05:45:00,
2013-05-10 00:46:00,55.5,52.6,29.89,NNE,22,16.5,16.5,90,0.04,,,0.04,VWS V14.01,2013-05-10 05:46:00,
2013-05-10 00:47:00,55.2,52.3,29.89,NNE,22,16.3,16.5,90,0.04,,,0.04,VWS V14.01,2013-05-10 05:47:00,
2013-05-10 00:48:00,55.2,52.3,29.89,NNE,22,16.3,16.3,90,0.04,,,0.04,VWS V14.01,2013-05-10 05:48:00,
2013-05-10 00:49:00,55.2,52.3,29.89,NNE,22,14.3,16.3,90,0.04,,,0.04,VWS V14.01,2013-05-10 05:49:00,
2013-05-10 00:50:00,54.6,51.7,29.89,NNE,22,14.3,14.3,90,0.06,,,0.06,VWS V14.01,2013-05-10 05:50:00,
2013-05-10 00:51:00,54.6,51.7,29.89,NNE,22,14.3,14.3,90,0.06,,,0.06,VWS V14.01,2013-05-10 05:51:00,
2013-05-10 00:52:00,54.3,51.4,29.89,NNE,22,17.6,17.6,90,0.06,,,0.06,VWS V14.01,2013-05-10 05:52:00,
2013-05-10 00:53:00,54.3,51.4,29.89,NNE,22,17.6,17.6,90,0.06,,,0.06,VWS V14.01,2013-05-10 05:53:00,
2013-05-10 00:54:00,54.1,51.2,29.89,NNE,22,17.0,17.6,90,0.06,,,0.06,VWS V14.01,2013-05-10 05:54:00,
2013-05-10 00:55:00,54.1,51.2,29.89,NNE,22,17.0,17.0,90,0.06,,,0.06,VWS V14.01,2013-05-10 05:55:00,
2013-05-10 00:56:00,54.1,51.2,29.89,NNE,22,17.0,17.0,90,0.06,,,0.06,VWS V14.01,2013-05-10 05:56:00,
2013-05-10 00:57:00,53.7,50.8,29.89,NNE,22,14.0,14.0,90,0.06,,,0.06,VWS V14.01,2013-05-10 05:57:00,
2013-05-10 00:58:00,53.7,50.5,29.89,NNE,22,16.1,16.1,89,0.06,,,0.06,VWS V14.01,2013-05-10 05:58:00,
2013-05-10 00:59:00,53.7,50.5,29.89,NNE,22,16.1,16.1,89,0.06,,,0.06,VWS V14.01,2013-05-10 05:59:00,
2013-05-10 01:00:00,53.7,50.5,29.89,NNE,22,16.1,16.1,89,0.06,,,0.06,VWS V14.01,2013-05-10 06:00:00,
2013-05-10 01:01:00,53.7,50.5,29.89,NNE,22,16.1,16.1,89,0.06,,,0.06,VWS V14.01,2013-05-10 06:01:00,
2013-05-10 01:02:00,53.4,50.2,29.89,NE,45,15.2,16.1,89,0.06,,,0.06,VWS V14.01,2013-05-10 06:02:00,
2013-05-10 01:03:00,53.4,50.2,29.89,NE,45,15.2,15.2,89,0.06,,,0.06,VWS V14.01,2013-05-10 06:03:00,
2013-05-10 01:04:00,53.4,50.2,29.89,NE,45,15.2,15.2,89,0.06,,,0.06,VWS V14.01,2013-05-10 06:04:00,
2013-05-10 01:05:00,53.4,50.2,29.89,NNE,22,9.1,15.2,89,0.06,,,0.06,VWS V14.01,2013-05-10 06:05:00,
2013-05-10 01:06:00,53.4,50.2,29.89,NNE,22,9.1,9.1,89,0.06,,,0.06,VWS V14.01,2013-05-10 06:06:00,
2013-05-10 01:07:00,53.4,50.2,29.89,NE,45,10.5,10.5,89,0.06,,,0.06,VWS V14.01,2013-05-10 06:07:00,
2013-05-10 01:08:00,53.4,50.2,29.89,NE,45,10.5,10.5,89,0.06,,,0.06,VWS V14.01,2013-05-10 06:08:00,
2013-05-10 01:09:00,53.4,50.2,29.89,NE,45,13.6,13.6,89,0.06,,,0.06,VWS V14.01,2013-05-10 06:09:00,
2013-05-10 01:10:00,53.4,50.2,29.89,NE,45,13.6,13.6,89,0.06,,,0.06,VWS V14.01,2013-05-10 06:10:00,
2013-05-10 01:11:00,53.4,50.2,29.89,NE,45,13.6,13.6,89,0.06,,,0.06,VWS V14.01,2013-05-10 06:11:00,
2013-05-10 01:12:00,53.2,50.0,29.89,NNE,22,8.0,8.0,89,0.06,,,0.06,VWS V14.01,2013-05-10 06:12:00,
2013-05-10 01:13:00,52.8,49.7,29.89,NNE,22,14.3,14.3,89,0.06,,,0.06,VWS V14.01,2013-05-10 06:13:00,
2013-05-10 01:14:00,52.8,49.7,29.90,NNE,22,14.3,14.3,89,0.06,,,0.06,VWS V14.01,2013-05-10 06:14:00,
2013-05-10 01:15:00,52.7,49.6,29.89,NE,45,15.6,15.6,89,0.06,,,0.06,VWS V14.01,2013-05-10 06:15:00,
2013-05-10 01:16:00,52.7,49.5,29.89,NE,45,15.6,15.6,89,0.06,,,0.06,VWS V14.01,2013-05-10 06:16:00,
2013-05-10 01:17:00,52.5,49.4,29.89,NNE,22,10.7,15.6,89,0.04,,,0.06,VWS V14.01,2013-05-10 06:17:00,
2013-05-10 01:18:00,52.5,49.4,29.90,NNE,22,10.7,10.7,89,0.04,,,0.06,VWS V14.01,2013-05-10 06:18:00,
2013-05-10 01:19:00,52.5,49.4,29.89,NNE,22,12.7,12.7,89,0.04,,,0.06,VWS V14.01,2013-05-10 06:19:00,
2013-05-10 01:20:00,52.3,49.5,29.89,NNE,22,12.7,12.7,90,0.04,,,0.06,VWS V14.01,2013-05-10 06:20:00,
2013-05-10 01:21:00,52.3,49.5,29.89,NNE,22,12.7,12.7,90,0.04,,,0.06,VWS V14.01,2013-05-10 06:21:00,
2013-05-10 01:22:00,52.3,49.5,29.89,NNE,22,10.0,12.7,90,0.04,,,0.06,VWS V14.01,2013-05-10 06:22:00,
2013-05-10 01:23:00,52.3,49.5,29.90,NNE,22,10.0,10.0,90,0.04,,,0.06,VWS V14.01,2013-05-10 06:23:00,
2013-05-10 01:24:00,52.1,49.3,29.90,NE,45,18.3,18.3,90,0.04,,,0.06,VWS V14.01,2013-05-10 06:24:00,
2013-05-10 01:25:00,52.1,49.3,29.89,NE,45,18.3,18.3,90,0.04,,,0.06,VWS V14.01,2013-05-10 06:25:00,
2013-05-10 01:26:00,52.1,49.3,29.89,NE,45,18.3,18.3,90,0.04,,,0.06,VWS V14.01,2013-05-10 06:26:00,
2013-05-10 01:27:00,51.9,49.1,29.90,NE,45,10.7,10.7,90,0.04,,,0.06,VWS V14.01,2013-05-10 06:27:00,
2013-05-10 01:28:00,51.9,49.1,29.89,NNE,22,9.3,10.7,90,0.04,,,0.06,VWS V14.01,2013-05-10 06:28:00,
2013-05-10 01:29:00,51.9,49.1,29.90,NNE,22,9.3,9.3,90,0.04,,,0.06,VWS V14.01,2013-05-10 06:29:00,
2013-05-10 01:30:00,51.8,49.0,29.90,NE,45,9.1,9.3,90,0.04,,,0.06,VWS V14.01,2013-05-10 06:30:00,
2013-05-10 01:31:00,51.8,49.0,29.90,NE,45,9.1,9.1,90,0.04,,,0.06,VWS V14.01,2013-05-10 06:31:00,
2013-05-10 01:32:00,51.8,49.0,29.90,North,0,0.0,9.1,90,0.04,,,0.06,VWS V14.01,2013-05-10 06:32:00,
2013-05-10 01:33:00,51.8,49.0,29.90,NE,45,12.3,12.3,90,0.02,,,0.06,VWS V14.01,2013-05-10 06:33:00,
2013-05-10 01:34:00,51.8,49.0,29.90,NE,45,13.1,13.1,90,0.02,,,0.06,VWS V14.01,2013-05-10 06:34:00,
2013-05-10 01:35:00,51.6,48.8,29.90,NE,45,13.1,13.1,90,0.02,,,0.06,VWS V14.01,2013-05-10 06:35:00,
2013-05-10 01:36:00,51.6,48.8,29.90,NE,45,13.1,13.1,90,0.02,,,0.06,VWS V14.01,2013-05-10 06:36:00,
2013-05-10 01:37:00,51.6,48.8,29.90,NE,45,13.8,13.8,90,0.02,,,0.06,VWS V14.01,2013-05-10 06:37:00,
2013-05-10 01:38:00,51.6,48.8,29.90,NE,45,13.8,13.8,90,0.02,,,0.06,VWS V14.01,2013-05-10 06:38:00,
2013-05-10 01:39:00,51.6,48.8,29.90,NE,45,6.2,13.8,90,0.02,,,0.06,VWS V14.01,2013-05-10 06:39:00,
2013-05-10 01:40:00,51.6,48.8,29.90,NE,45,6.2,6.2,90,0.02,,,0.06,VWS V14.01,2013-05-10 06:40:00,
2013-05-10 01:41:00,51.6,48.8,29.90,NE,45,6.2,6.2,90,0.02,,,0.06,VWS V14.01,2013-05-10 06:41:00,
2013-05-10 01:42:00,51.6,48.8,29.90,NNE,22,6.7,6.7,90,0.02,,,0.06,VWS V14.01,2013-05-10 06:42:00,
2013-05-10 01:43:00,51.6,48.8,29.90,NE,45,14.3,14.3,90,0.02,,,0.06,VWS V14.01,2013-05-10 06:43:00,
2013-05-10 01:44:00,51.6,48.8,29.90,NE,45,14.3,14.3,90,0.02,,,0.06,VWS V14.01,2013-05-10 06:44:00,
2013-05-10 01:45:00,51.6,48.8,29.90,NNE,22,10.5,14.3,90,0.02,,,0.06,VWS V14.01,2013-05-10 06:45:00,
2013-05-10 01:46:00,51.6,48.8,29.90,NNE,22,10.5,10.5,90,0.02,,,0.06,VWS V14.01,2013-05-10 06:46:00,
2013-05-10 01:47:00,51.6,48.8,29.90,NNE,22,9.6,10.5,90,0.02,,,0.06,VWS V14.01,2013-05-10 06:47:00,
2013-05-10 01:48:00,51.6,48.8,29.90,NNE,22,9.6,9.6,90,0.02,,,0.06,VWS V14.01,2013-05-10 06:48:00,
2013-05-10 01:49:00,51.6,48.8,29.90,NNE,22,9.6,9.6,90,0.02,,,0.06,VWS V14.01,2013-05-10 06:49:00,
2013-05-10 01:50:00,51.4,48.6,29.90,NNE,22,14.9,14.9,90,0.02,,,0.06,VWS V14.01,2013-05-10 06:50:00,
2013-05-10 01:51:00,51.4,48.6,29.90,NNE,22,14.9,14.9,90,0.00,,,0.06,VWS V14.01,2013-05-10 06:51:00,
2013-05-10 01:52:00,51.4,48.6,29.90,North,0,9.3,14.9,90,0.00,,,0.06,VWS V14.01,2013-05-10 06:52:00,
2013-05-10 01:53:00,51.4,48.6,29.90,North,0,9.3,9.3,90,0.00,,,0.06,VWS V14.01,2013-05-10 06:53:00,
2013-05-10 01:54:00,51.4,48.3,29.91,NNE,22,6.0,9.3,89,0.00,,,0.06,VWS V14.01,2013-05-10 06:54:00,
2013-05-10 01:55:00,51.4,48.3,29.91,NNE,22,6.0,6.0,89,0.00,,,0.06,VWS V14.01,2013-05-10 06:55:00,
2013-05-10 01:56:00,51.4,48.3,29.91,NNE,22,6.0,6.0,89,0.00,,,0.06,VWS V14.01,2013-05-10 06:56:00,
2013-05-10 01:57:00,51.4,48.3,29.92,NNE,22,6.0,6.0,89,0.00,,,0.06,VWS V14.01,2013-05-10 06:57:00,
2013-05-10 01:58:00,51.4,48.3,29.92,NE,45,4.2,6.0,89,0.00,,,0.06,VWS V14.01,2013-05-10 06:58:00,
2013-05-10 01:59:00,51.4,48.3,29.91,NE,45,4.2,4.2,89,0.00,,,0.06,VWS V14.01,2013-05-10 06:59:00,
2013-05-10 02:00:00,51.4,48.3,29.91,NE,45,4.2,4.2,89,0.00,,,0.06,VWS V14.01,2013-05-10 07:00:00,
2013-05-10 02:01:00,51.4,48.3,29.91,NE,45,4.2,4.2,89,0.00,,,0.06,VWS V14.01,2013-05-10 07:01:00,
2013-05-10 02:02:00,51.4,48.3,29.91,NNE,22,8.0,8.0,89,0.00,,,0.06,VWS V14.01,2013-05-10 07:02:00,
2013-05-10 02:03:00,51.4,48.3,29.91,NNE,22,8.0,8.0,89,0.00,,,0.06,VWS V14.01,2013-05-10 07:03:00,
2013-05-10 02:04:00,51.4,48.3,29.91,NNE,22,8.0,8.0,89,0.00,,,0.06,VWS V14.01,2013-05-10 07:04:00,
2013-05-10 02:05:00,51.4,48.3,29.91,NE,45,10.5,10.5,89,0.00,,,0.06,VWS V14.01,2013-05-10 07:05:00,
2013-05-10 02:06:00,51.4,48.3,29.91,NE,45,10.5,10.5,89,0.00,,,0.06,VWS V14.01,2013-05-10 07:06:00,
2013-05-10 02:07:00,51.4,48.3,29.91,NE,45,9.3,10.5,89,0.00,,,0.06,VWS V14.01,2013-05-10 07:07:00,
2013-05-10 02:08:00,51.4,48.3,29.91,NE,45,9.3,9.3,89,0.00,,,0.06,VWS V14.01,2013-05-10 07:08:00,
2013-05-10 02:09:00,51.0,47.9,29.90,NNE,22,11.1,11.1,89,0.00,,,0.06,VWS V14.01,2013-05-10 07:09:00,
2013-05-10 02:10:00,51.0,47.9,29.90,NNE,22,11.1,11.1,89,0.00,,,0.06,VWS V14.01,2013-05-10 07:10:00,
2013-05-10 02:11:00,51.0,47.9,29.90,NNE,22,11.1,11.1,89,0.00,,,0.06,VWS V14.01,2013-05-10 07:11:00,
2013-05-10 02:12:00,51.0,47.9,29.90,NE,45,13.6,13.6,89,0.00,,,0.06,VWS V14.01,2013-05-10 07:12:00,
2013-05-10 02:13:00,50.9,47.8,29.91,NE,45,13.6,13.6,89,0.00,,,0.06,VWS V14.01,2013-05-10 07:13:00,
2013-05-10 02:14:00,50.9,47.8,29.91,NE,45,13.6,13.6,89,0.00,,,0.06,VWS V14.01,2013-05-10 07:14:00,
2013-05-10 02:15:00,50.7,47.6,29.91,NE,45,10.9,13.6,89,0.00,,,0.06,VWS V14.01,2013-05-10 07:15:00,
2013-05-10 02:16:00,50.7,47.6,29.91,NE,45,10.9,10.9,89,0.00,,,0.06,VWS V14.01,2013-05-10 07:16:00,
2013-05-10 02:17:00,50.7,47.6,29.91,NNE,22,16.5,16.5,89,0.00,,,0.06,VWS V14.01,2013-05-10 07:17:00,
2013-05-10 02:18:00,50.7,47.6,29.91,NNE,22,16.5,16.5,89,0.00,,,0.06,VWS V14.01,2013-05-10 07:18:00,
2013-05-10 02:19:00,50.7,47.6,29.91,NNE,22,16.5,16.5,89,0.00,,,0.06,VWS V14.01,2013-05-10 07:19:00,
2013-05-10 02:20:00,50.7,47.6,29.91,NE,45,10.2,16.5,89,0.00,,,0.06,VWS V14.01,2013-05-10 07:20:00,
2013-05-10 02:21:00,50.7,47.6,29.91,NE,45,10.2,10.2,89,0.00,,,0.06,VWS V14.01,2013-05-10 07:21:00,
2013-05-10 02:22:00,50.7,47.6,29.91,NE,45,9.6,10.2,89,0.00,,,0.06,VWS V14.01,2013-05-10 07:22:00,
2013-05-10 02:23:00,50.7,47.6,29.91,NE,45,9.6,9.6,89,0.00,,,0.06,VWS V14.01,2013-05-10 07:23:00,
2013-05-10 02:24:00,50.7,47.6,29.91,NE,45,8.5,9.6,89,0.00,,,0.06,VWS V14.01,2013-05-10 07:24:00,
2013-05-10 02:25:00,50.7,47.6,29.91,NE,45,8.5,8.5,89,0.00,,,0.06,VWS V14.01,2013-05-10 07:25:00,
2013-05-10 02:26:00,50.7,47.6,29.91,NE,45,8.5,8.5,89,0.00,,,0.06,VWS V14.01,2013-05-10 07:26:00,
2013-05-10 02:27:00,50.5,47.4,29.91,NNE,22,8.2,8.2,89,0.00,,,0.06,VWS V14.01,2013-05-10 07:27:00,
2013-05-10 02:28:00,50.7,47.6,29.91,East,90,12.3,12.3,89,0.00,,,0.06,VWS V14.01,2013-05-10 07:28:00,
2013-05-10 02:29:00,50.7,47.6,29.91,East,90,12.3,12.3,89,0.00,,,0.06,VWS V14.01,2013-05-10 07:29:00,
2013-05-10 02:30:00,50.5,47.4,29.91,NNE,22,8.2,12.3,89,0.00,,,0.06,VWS V14.01,2013-05-10 07:30:00,
2013-05-10 02:31:00,50.5,47.4,29.91,NNE,22,8.2,8.2,89,0.00,,,0.06,VWS V14.01,2013-05-10 07:31:00,
2013-05-10 02:32:00,50.5,47.4,29.91,NNE,22,8.2,8.2,89,0.00,,,0.06,VWS V14.01,2013-05-10 07:32:00,
2013-05-10 02:33:00,50.5,47.4,29.91,NE,45,9.3,9.3,89,0.00,,,0.06,VWS V14.01,2013-05-10 07:33:00,
2013-05-10 02:34:00,50.5,47.4,29.91,NE,45,9.3,9.3,89,0.00,,,0.06,VWS V14.01,2013-05-10 07:34:00,
2013-05-10 02:35:00,50.5,47.4,29.91,NNE,22,10.9,10.9,89,0.00,,,0.06,VWS V14.01,2013-05-10 07:35:00,
2013-05-10 02:36:00,50.5,47.4,29.91,NNE,22,10.9,10.9,89,0.00,,,0.06,VWS V14.01,2013-05-10 07:36:00,
2013-05-10 02:37:00,50.5,47.4,29.91,NNE,22,10.9,10.9,89,0.00,,,0.06,VWS V14.01,2013-05-10 07:37:00,
2013-05-10 02:38:00,50.5,47.4,29.91,NNE,22,10.9,10.9,89,0.00,,,0.06,VWS V14.01,2013-05-10 07:38:00,
2013-05-10 02:39:00,50.5,47.4,29.91,NNE,22,6.7,10.9,89,0.00,,,0.06,VWS V14.01,2013-05-10 07:39:00,
2013-05-10 02:40:00,50.5,47.4,29.91,NNE,22,6.7,6.7,89,0.00,,,0.06,VWS V14.01,2013-05-10 07:40:00,
2013-05-10 02:41:00,50.5,47.4,29.91,NNE,22,6.7,6.7,89,0.00,,,0.06,VWS V14.01,2013-05-10 07:41:00,
2013-05-10 02:42:00,50.5,47.4,29.91,NNE,22,8.5,8.5,89,0.00,,,0.06,VWS V14.01,2013-05-10 07:42:00,
2013-05-10 02:43:00,50.5,47.4,29.91,NNE,22,9.1,9.1,89,0.00,,,0.06,VWS V14.01,2013-05-10 07:43:00,
2013-05-10 02:44:00,50.5,47.4,29.91,NNE,22,9.1,9.1,89,0.00,,,0.06,VWS V14.01,2013-05-10 07:44:00,
2013-05-10 02:45:00,50.3,47.2,29.91,NE,45,4.0,9.1,89,0.00,,,0.06,VWS V14.01,2013-05-10 07:45:00,
2013-05-10 02:46:00,50.3,47.2,29.91,NE,45,4.0,4.0,89,0.00,,,0.06,VWS V14.01,2013-05-10 07:46:00,
2013-05-10 02:47:00,50.3,47.2,29.91,NE,45,6.4,6.4,89,0.00,,,0.06,VWS V14.01,2013-05-10 07:47:00,
2013-05-10 02:48:00,50.5,47.4,29.91,NE,45,6.4,6.4,89,0.00,,,0.06,VWS V14.01,2013-05-10 07:48:00,
2013-05-10 02:49:00,50.5,47.4,29.91,NE,45,6.4,6.4,89,0.00,,,0.06,VWS V14.01,2013-05-10 07:49:00,
2013-05-10 02:50:00,50.5,47.4,29.91,NNE,22,13.6,13.6,89,0.00,,,0.06,VWS V14.01,2013-05-10 07:50:00,
2013-05-10 02:51:00,50.5,47.4,29.91,NNE,22,13.6,13.6,89,0.00,,,0.06,VWS V14.01,2013-05-10 07:51:00,
2013-05-10 02:52:00,50.5,47.4,29.91,NNE,22,11.4,13.6,89,0.00,,,0.06,VWS V14.01,2013-05-10 07:52:00,
2013-05-10 02:53:00,50.5,47.4,29.91,NNE,22,11.4,11.4,89,0.00,,,0.06,VWS V14.01,2013-05-10 07:53:00,
2013-05-10 02:54:00,50.5,47.4,29.91,NNE,22,16.5,16.5,89,0.00,,,0.06,VWS V14.01,2013-05-10 07:54:00,
2013-05-10 02:55:00,50.5,47.4,29.91,NNE,22,16.5,16.5,89,0.00,,,0.06,VWS V14.01,2013-05-10 07:55:00,
2013-05-10 02:56:00,50.5,47.4,29.91,NNE,22,16.5,16.5,89,0.00,,,0.06,VWS V14.01,2013-05-10 07:56:00,
2013-05-10 02:57:00,50.5,47.4,29.91,NNE,22,9.3,9.3,89,0.00,,,0.06,VWS V14.01,2013-05-10 07:57:00,
2013-05-10 02:58:00,50.5,47.4,29.91,NNE,22,10.9,10.9,89,0.00,,,0.06,VWS V14.01,2013-05-10 07:58:00,
2013-05-10 02:59:00,50.5,47.4,29.91,NNE,22,10.9,10.9,89,0.00,,,0.06,VWS V14.01,2013-05-10 07:59:00,
2013-05-10 03:00:00,50.5,47.4,29.91,NNE,22,10.9,10.9,89,0.00,,,0.06,VWS V14.01,2013-05-10 08:00:00,
2013-05-10 03:01:00,50.5,47.4,29.91,NNE,22,10.9,10.9,89,0.00,,,0.06,VWS V14.01,2013-05-10 08:01:00,
2013-05-10 03:02:00,50.5,47.4,29.91,NNE,22,10.9,10.9,89,0.00,,,0.06,VWS V14.01,2013-05-10 08:02:00,
2013-05-10 03:03:00,50.5,47.4,29.91,NE,45,11.1,11.1,89,0.00,,,0.06,VWS V14.01,2013-05-10 08:03:00,
2013-05-10 03:04:00,50.5,47.4,29.91,NE,45,11.1,11.1,89,0.00,,,0.06,VWS V14.01,2013-05-10 08:04:00,
2013-05-10 03:05:00,50.5,47.1,29.91,NE,45,10.0,11.1,88,0.00,,,0.06,VWS V14.01,2013-05-10 08:05:00,
2013-05-10 03:06:00,50.5,47.1,29.91,NE,45,10.0,10.0,88,0.00,,,0.06,VWS V14.01,2013-05-10 08:06:00,
2013-05-10 03:07:00,50.5,47.1,29.91,NNE,22,10.0,10.0,88,0.00,,,0.06,VWS V14.01,2013-05-10 08:07:00,
2013-05-10 03:08:00,50.5,47.1,29.91,NNE,22,10.0,10.0,88,0.00,,,0.06,VWS V14.01,2013-05-10 08:08:00,
2013-05-10 03:09:00,50.5,47.1,29.91,North,0,15.2,15.2,88,0.00,,,0.06,VWS V14.01,2013-05-10 08:09:00,
2013-05-10 03:10:00,50.5,47.1,29.91,North,0,15.2,15.2,88,0.00,,,0.06,VWS V14.01,2013-05-10 08:10:00,
2013-05-10 03:11:00,50.5,47.1,29.91,North,0,15.2,15.2,88,0.00,,,0.06,VWS V14.01,2013-05-10 08:11:00,
2013-05-10 03:12:00,50.7,47.3,29.91,NE,45,9.8,9.8,88,0.00,,,0.06,VWS V14.01,2013-05-10 08:12:00,
2013-05-10 03:13:00,50.5,47.1,29.91,NE,45,11.8,11.8,88,0.00,,,0.06,VWS V14.01,2013-05-10 08:13:00,
2013-05-10 03:14:00,50.5,47.1,29.91,NE,45,11.8,11.8,88,0.00,,,0.06,VWS V14.01,2013-05-10 08:14:00,
2013-05-10 03:15:00,50.5,47.1,29.91,NNE,22,9.1,11.8,88,0.00,,,0.06,VWS V14.01,2013-05-10 08:15:00,
2013-05-10 03:16:00,50.5,47.1,29.91,NNE,22,9.1,9.1,88,0.00,,,0.06,VWS V14.01,2013-05-10 08:16:00,
2013-05-10 03:17:00,50.5,47.1,29.91,NNE,22,9.1,9.1,88,0.00,,,0.06,VWS V14.01,2013-05-10 08:17:00,
2013-05-10 03:18:00,50.5,47.1,29.91,NNE,22,17.8,17.8,88,0.00,,,0.06,VWS V14.01,2013-05-10 08:18:00,
2013-05-10 03:19:00,50.5,47.1,29.91,NNE,22,17.8,17.8,88,0.00,,,0.06,VWS V14.01,2013-05-10 08:19:00,
2013-05-10 03:20:00,50.5,47.1,29.91,NE,45,10.9,17.8,88,0.00,,,0.06,VWS V14.01,2013-05-10 08:20:00,
2013-05-10 03:21:00,50.5,47.1,29.91,NE,45,10.9,10.9,88,0.00,,,0.06,VWS V14.01,2013-05-10 08:21:00,
2013-05-10 03:22:00,50.5,47.1,29.91,NE,45,13.6,13.6,88,0.00,,,0.06,VWS V14.01,2013-05-10 08:22:00,
2013-05-10 03:23:00,50.5,47.1,29.91,NE,45,13.6,13.6,88,0.00,,,0.06,VWS V14.01,2013-05-10 08:23:00,
2013-05-10 03:24:00,50.3,46.9,29.91,NNE,22,14.7,14.7,88,0.00,,,0.06,VWS V14.01,2013-05-10 08:24:00,
2013-05-10 03:25:00,50.3,46.9,29.91,NNE,22,14.7,14.7,88,0.00,,,0.06,VWS V14.01,2013-05-10 08:25:00,
2013-05-10 03:26:00,50.3,46.9,29.91,NNE,22,14.7,14.7,88,0.00,,,0.06,VWS V14.01,2013-05-10 08:26:00,
2013-05-10 03:27:00,50.3,46.9,29.92,NE,45,13.1,13.1,88,0.00,,,0.06,VWS V14.01,2013-05-10 08:27:00,
2013-05-10 03:28:00,50.3,46.9,29.91,NNE,22,14.3,14.3,88,0.00,,,0.06,VWS V14.01,2013-05-10 08:28:00,
2013-05-10 03:29:00,50.3,46.9,29.92,NNE,22,14.3,14.3,88,0.00,,,0.06,VWS V14.01,2013-05-10 08:29:00,
2013-05-10 03:30:00,50.3,46.9,29.92,NNE,22,6.2,14.3,88,0.00,,,0.06,VWS V14.01,2013-05-10 08:30:00,
2013-05-10 03:31:00,50.3,46.9,29.92,NNE,22,6.2,6.2,88,0.00,,,0.06,VWS V14.01,2013-05-10 08:31:00,
2013-05-10 03:32:00,50.3,46.9,29.92,NNE,22,6.2,6.2,88,0.00,,,0.06,VWS V14.01,2013-05-10 08:32:00,
2013-05-10 03:33:00,50.3,46.9,29.92,NE,45,12.9,12.9,88,0.00,,,0.06,VWS V14.01,2013-05-10 08:33:00,
2013-05-10 03:34:00,50.3,46.9,29.92,NE,45,12.9,12.9,88,0.00,,,0.06,VWS V14.01,2013-05-10 08:34:00,
2013-05-10 03:35:00,50.3,46.9,29.92,NE,45,13.8,13.8,88,0.00,,,0.06,VWS V14.01,2013-05-10 08:35:00,
2013-05-10 03:36:00,50.3,46.9,29.92,NE,45,13.8,13.8,88,0.00,,,0.06,VWS V14.01,2013-05-10 08:36:00,
2013-05-10 03:37:00,50.3,46.9,29.92,NNE,22,16.1,16.1,88,0.00,,,0.06,VWS V14.01,2013-05-10 08:37:00,
2013-05-10 03:38:00,50.3,46.9,29.92,NNE,22,16.1,16.1,88,0.00,,,0.06,VWS V14.01,2013-05-10 08:38:00,
2013-05-10 03:39:00,50.3,46.9,29.92,North,0,14.0,16.1,88,0.00,,,0.06,VWS V14.01,2013-05-10 08:39:00,
2013-05-10 03:40:00,50.3,46.9,29.92,North,0,14.0,14.0,88,0.00,,,0.06,VWS V14.01,2013-05-10 08:40:00,
2013-05-10 03:41:00,50.3,46.9,29.92,North,0,14.0,14.0,88,0.00,,,0.06,VWS V14.01,2013-05-10 08:41:00,
2013-05-10 03:42:00,50.1,46.7,29.92,NNE,22,8.7,8.7,88,0.00,,,0.06,VWS V14.01,2013-05-10 08:42:00,
2013-05-10 03:43:00,50.1,46.7,29.92,NNE,22,10.0,10.0,88,0.00,,,0.06,VWS V14.01,2013-05-10 08:43:00,
2013-05-10 03:44:00,50.1,46.7,29.92,NNE,22,10.0,10.0,88,0.00,,,0.06,VWS V14.01,2013-05-10 08:44:00,
2013-05-10 03:45:00,50.1,46.7,29.92,NNE,22,12.7,12.7,88,0.00,,,0.06,VWS V14.01,2013-05-10 08:45:00,
2013-05-10 03:46:00,50.1,46.7,29.92,NNE,22,12.7,12.7,88,0.00,,,0.06,VWS V14.01,2013-05-10 08:46:00,
2013-05-10 03:47:00,50.1,46.7,29.92,NNE,22,12.7,12.7,88,0.00,,,0.06,VWS V14.01,2013-05-10 08:47:00,
2013-05-10 03:48:00,50.1,46.7,29.92,NNE,22,6.9,12.7,88,0.00,,,0.06,VWS V14.01,2013-05-10 08:48:00,
2013-05-10 03:49:00,50.1,46.7,29.93,NNE,22,6.9,6.9,88,0.00,,,0.06,VWS V14.01,2013-05-10 08:49:00,
2013-05-10 03:50:00,50.1,46.7,29.93,North,0,11.6,11.6,88,0.00,,,0.06,VWS V14.01,2013-05-10 08:50:00,
2013-05-10 03:51:00,50.1,46.7,29.93,North,0,11.6,11.6,88,0.00,,,0.06,VWS V14.01,2013-05-10 08:51:00,
2013-05-10 03:52:00,50.1,46.7,29.93,NE,45,15.4,15.4,88,0.00,,,0.06,VWS V14.01,2013-05-10 08:52:00,
2013-05-10 03:53:00,50.1,46.7,29.93,NE,45,15.4,15.4,88,0.00,,,0.06,VWS V14.01,2013-05-10 08:53:00,
2013-05-10 03:54:00,49.8,46.4,29.93,NNE,22,9.1,15.4,88,0.00,,,0.06,VWS V14.01,2013-05-10 08:54:00,
2013-05-10 03:55:00,49.8,46.4,29.93,NNE,22,9.1,9.1,88,0.00,,,0.06,VWS V14.01,2013-05-10 08:55:00,
2013-05-10 03:56:00,49.8,46.4,29.93,NNE,22,9.1,9.1,88,0.00,,,0.06,VWS V14.01,2013-05-10 08:56:00,
2013-05-10 03:57:00,49.8,46.4,29.93,NNE,22,15.8,15.8,88,0.00,,,0.06,VWS V14.01,2013-05-10 08:57:00,
2013-05-10 03:58:00,49.8,46.4,29.93,NNE,22,13.1,15.8,88,0.00,,,0.06,VWS V14.01,2013-05-10 08:58:00,
2013-05-10 03:59:00,49.8,46.4,29.93,NNE,22,13.1,13.1,88,0.00,,,0.06,VWS V14.01,2013-05-10 08:59:00,
2013-05-10 04:00:00,49.8,46.4,29.93,NNE,22,13.1,13.1,88,0.00,,,0.06,VWS V14.01,2013-05-10 09:00:00,
2013-05-10 04:01:00,49.8,46.4,29.93,NNE,22,13.1,13.1,88,0.00,,,0.06,VWS V14.01,2013-05-10 09:01:00,
2013-05-10 04:02:00,49.8,46.4,29.93,NNE,22,13.1,13.1,88,0.00,,,0.06,VWS V14.01,2013-05-10 09:02:00,
2013-05-10 04:03:00,49.6,45.9,29.93,NE,45,16.3,16.3,87,0.00,,,0.06,VWS V14.01,2013-05-10 09:03:00,
2013-05-10 04:04:00,49.6,45.9,29.94,NE,45,16.3,16.3,87,0.00,,,0.06,VWS V14.01,2013-05-10 09:04:00,
2013-05-10 04:05:00,49.6,45.9,29.94,NNE,22,13.8,16.3,87,0.00,,,0.06,VWS V14.01,2013-05-10 09:05:00,
2013-05-10 04:06:00,49.6,45.9,29.94,NNE,22,13.8,13.8,87,0.00,,,0.06,VWS V14.01,2013-05-10 09:06:00,
2013-05-10 04:07:00,49.6,45.9,29.94,ENE,68,10.5,13.8,87,0.00,,,0.06,VWS V14.01,2013-05-10 09:07:00,
2013-05-10 04:08:00,49.6,45.9,29.94,ENE,68,10.5,10.5,87,0.00,,,0.06,VWS V14.01,2013-05-10 09:08:00,
2013-05-10 04:09:00,49.6,45.9,29.94,NNE,22,10.0,10.5,87,0.00,,,0.06,VWS V14.01,2013-05-10 09:09:00,
2013-05-10 04:10:00,49.6,45.9,29.94,NNE,22,10.0,10.0,87,0.00,,,0.06,VWS V14.01,2013-05-10 09:10:00,
2013-05-10 04:11:00,49.6,45.9,29.94,NNE,22,10.0,10.0,87,0.00,,,0.06,VWS V14.01,2013-05-10 09:11:00,
2013-05-10 04:12:00,49.6,45.9,29.94,NE,45,5.3,5.3,87,0.00,,,0.06,VWS V14.01,2013-05-10 09:12:00,
2013-05-10 04:13:00,49.6,45.9,29.94,NNE,22,8.5,8.5,87,0.00,,,0.06,VWS V14.01,2013-05-10 09:13:00,
2013-05-10 04:14:00,49.6,45.9,29.94,NNE,22,8.5,8.5,87,0.00,,,0.06,VWS V14.01,2013-05-10 09:14:00,
2013-05-10 04:15:00,49.6,45.9,29.94,North,0,0.0,8.5,87,0.00,,,0.06,VWS V14.01,2013-05-10 09:15:00,
2013-05-10 04:16:00,49.6,45.9,29.94,North,0,0.0,0.0,87,0.00,,,0.06,VWS V14.01,2013-05-10 09:16:00,
2013-05-10 04:17:00,49.2,45.5,29.94,NE,45,9.1,9.1,87,0.00,,,0.06,VWS V14.01,2013-05-10 09:17:00,
2013-05-10 04:18:00,49.2,45.5,29.94,NE,45,10.9,10.9,87,0.00,,,0.06,VWS V14.01,2013-05-10 09:18:00,
2013-05-10 04:19:00,49.2,45.5,29.94,NE,45,10.9,10.9,87,0.00,,,0.06,VWS V14.01,2013-05-10 09:19:00,
2013-05-10 04:20:00,49.2,45.5,29.94,NNE,22,10.0,10.9,87,0.00,,,0.06,VWS V14.01,2013-05-10 09:20:00,
2013-05-10 04:21:00,49.2,45.5,29.94,NNE,22,10.0,10.0,87,0.00,,,0.06,VWS V14.01,2013-05-10 09:21:00,
2013-05-10 04:22:00,49.2,45.5,29.94,NE,45,7.6,10.0,87,0.00,,,0.06,VWS V14.01,2013-05-10 09:22:00,
2013-05-10 04:23:00,49.2,45.5,29.95,NE,45,7.6,7.6,87,0.00,,,0.06,VWS V14.01,2013-05-10 09:23:00,
2013-05-10 04:24:00,49.2,45.5,29.95,NNE,22,14.0,14.0,87,0.00,,,0.06,VWS V14.01,2013-05-10 09:24:00,
2013-05-10 04:25:00,49.2,45.5,29.95,NNE,22,14.0,14.0,87,0.00,,,0.06,VWS V14.01,2013-05-10 09:25:00,
2013-05-10 04:26:00,49.2,45.5,29.95,NNE,22,14.0,14.0,87,0.00,,,0.06,VWS V14.01,2013-05-10 09:26:00,
2013-05-10 04:27:00,49.2,45.5,29.95,NE,45,9.1,9.1,87,0.00,,,0.06,VWS V14.01,2013-05-10 09:27:00,
2013-05-10 04:28:00,49.2,45.5,29.95,NNE,22,8.9,9.1,87,0.00,,,0.06,VWS V14.01,2013-05-10 09:28:00,
2013-05-10 04:29:00,49.2,45.5,29.95,NNE,22,8.9,8.9,87,0.00,,,0.06,VWS V14.01,2013-05-10 09:29:00,
2013-05-10 04:30:00,49.2,45.5,29.95,NNE,22,8.9,8.9,87,0.00,,,0.06,VWS V14.01,2013-05-10 09:30:00,
2013-05-10 04:31:00,49.2,45.5,29.95,NNE,22,8.9,8.9,87,0.00,,,0.06,VWS V14.01,2013-05-10 09:31:00,
2013-05-10 04:32:00,49.2,45.5,29.95,NE,45,5.5,5.5,87,0.00,,,0.06,VWS V14.01,2013-05-10 09:32:00,
2013-05-10 04:33:00,49.2,45.5,29.95,NNE,22,11.1,11.1,87,0.00,,,0.06,VWS V14.01,2013-05-10 09:33:00,
2013-05-10 04:34:00,49.2,45.5,29.96,NNE,22,11.1,11.1,87,0.00,,,0.06,VWS V14.01,2013-05-10 09:34:00,
2013-05-10 04:35:00,49.2,45.5,29.95,NE,45,11.1,11.1,87,0.00,,,0.06,VWS V14.01,2013-05-10 09:35:00,
2013-05-10 04:36:00,49.2,45.5,29.95,NE,45,11.1,11.1,87,0.00,,,0.06,VWS V14.01,2013-05-10 09:36:00,
2013-05-10 04:37:00,49.2,45.5,29.96,NNE,22,8.7,11.1,87,0.00,,,0.06,VWS V14.01,2013-05-10 09:37:00,
2013-05-10 04:38:00,49.2,45.5,29.96,NNE,22,8.7,8.7,87,0.00,,,0.06,VWS V14.01,2013-05-10 09:38:00,
2013-05-10 04:39:00,49.1,45.4,29.96,NE,45,7.3,8.7,87,0.00,,,0.06,VWS V14.01,2013-05-10 09:39:00,
2013-05-10 04:40:00,49.1,45.4,29.96,NE,45,7.3,7.3,87,0.00,,,0.06,VWS V14.01,2013-05-10 09:40:00,
2013-05-10 04:41:00,49.1,45.4,29.96,NE,45,7.3,7.3,87,0.00,,,0.06,VWS V14.01,2013-05-10 09:41:00,
2013-05-10 04:42:00,49.1,45.4,29.96,NNE,22,7.6,7.6,87,0.00,,,0.06,VWS V14.01,2013-05-10 09:42:00,
2013-05-10 04:43:00,49.1,45.4,29.96,NNE,22,6.0,7.6,87,0.00,,,0.06,VWS V14.01,2013-05-10 09:43:00,
2013-05-10 04:44:00,49.1,45.4,29.96,NNE,22,6.0,6.0,87,0.00,,,0.06,VWS V14.01,2013-05-10 09:44:00,
2013-05-10 04:45:00,48.9,45.2,29.96,NNE,22,6.0,6.0,87,0.00,,,0.06,VWS V14.01,2013-05-10 09:45:00,
2013-05-10 04:46:00,48.9,45.2,29.96,NNE,22,6.0,6.0,87,0.00,,,0.06,VWS V14.01,2013-05-10 09:46:00,
2013-05-10 04:47:00,48.9,45.2,29.96,NNE,22,6.0,6.0,87,0.00,,,0.06,VWS V14.01,2013-05-10 09:47:00,
2013-05-10 04:48:00,48.9,45.2,29.96,NNE,22,9.6,9.6,87,0.00,,,0.06,VWS V14.01,2013-05-10 09:48:00,
2013-05-10 04:49:00,48.9,45.2,29.96,NNE,22,9.6,9.6,87,0.00,,,0.06,VWS V14.01,2013-05-10 09:49:00,
2013-05-10 04:50:00,48.5,44.8,29.96,NNE,22,12.5,12.5,87,0.00,,,0.06,VWS V14.01,2013-05-10 09:50:00,
2013-05-10 04:51:00,48.5,44.8,29.96,NNE,22,12.5,12.5,87,0.00,,,0.06,VWS V14.01,2013-05-10 09:51:00,
2013-05-10 04:52:00,48.3,44.9,29.96,NNE,22,10.5,12.5,88,0.00,,,0.06,VWS V14.01,2013-05-10 09:52:00,
2013-05-10 04:53:00,48.3,44.9,29.96,NNE,22,10.5,10.5,88,0.00,,,0.06,VWS V14.01,2013-05-10 09:53:00,
2013-05-10 04:54:00,48.2,44.8,29.96,NNE,22,19.0,19.0,88,0.00,,,0.06,VWS V14.01,2013-05-10 09:54:00,
2013-05-10 04:55:00,48.2,44.8,29.96,NNE,22,19.0,19.0,88,0.00,,,0.06,VWS V14.01,2013-05-10 09:55:00,
2013-05-10 04:56:00,48.2,44.8,29.96,NNE,22,19.0,19.0,88,0.00,,,0.06,VWS V14.01,2013-05-10 09:56:00,
2013-05-10 04:57:00,48.0,44.6,29.96,North,0,13.4,13.4,88,0.00,,,0.06,VWS V14.01,2013-05-10 09:57:00,
2013-05-10 04:58:00,47.8,44.4,29.96,NNE,22,18.3,18.3,88,0.00,,,0.06,VWS V14.01,2013-05-10 09:58:00,
2013-05-10 04:59:00,47.8,44.4,29.96,NNE,22,18.3,18.3,88,0.00,,,0.06,VWS V14.01,2013-05-10 09:59:00,
2013-05-10 05:00:00,47.8,44.4,29.96,NNE,22,18.3,18.3,88,0.00,,,0.06,VWS V14.01,2013-05-10 10:00:00,
2013-05-10 05:01:00,47.8,44.4,29.96,NNE,22,18.3,18.3,88,0.00,,,0.06,VWS V14.01,2013-05-10 10:01:00,
2013-05-10 05:02:00,47.8,44.4,29.96,NNE,22,18.3,18.3,88,0.00,,,0.06,VWS V14.01,2013-05-10 10:02:00,
2013-05-10 05:03:00,47.6,44.2,29.96,NNE,22,10.9,18.3,88,0.00,,,0.06,VWS V14.01,2013-05-10 10:03:00,
2013-05-10 05:04:00,47.6,44.2,29.96,NNE,22,10.9,10.9,88,0.00,,,0.06,VWS V14.01,2013-05-10 10:04:00,
2013-05-10 05:05:00,47.6,44.2,29.96,NNE,22,11.6,11.6,88,0.00,,,0.06,VWS V14.01,2013-05-10 10:05:00,
2013-05-10 05:06:00,47.6,44.2,29.96,NNE,22,11.6,11.6,88,0.00,,,0.06,VWS V14.01,2013-05-10 10:06:00,
2013-05-10 05:07:00,47.6,44.2,29.96,North,0,10.9,11.6,88,0.00,,,0.06,VWS V14.01,2013-05-10 10:07:00,
2013-05-10 05:08:00,47.6,44.2,29.97,North,0,10.9,10.9,88,0.00,,,0.06,VWS V14.01,2013-05-10 10:08:00,
2013-05-10 05:09:00,47.4,44.0,29.97,NNE,22,12.0,12.0,88,0.00,,,0.06,VWS V14.01,2013-05-10 10:09:00,
2013-05-10 05:10:00,47.4,44.0,29.96,NNE,22,12.0,12.0,88,0.00,,,0.06,VWS V14.01,2013-05-10 10:10:00,
2013-05-10 05:11:00,47.4,44.0,29.96,NNE,22,12.0,12.0,88,0.00,,,0.06,VWS V14.01,2013-05-10 10:11:00,
2013-05-10 05:12:00,47.4,44.0,29.96,NNE,22,7.8,7.8,88,0.00,,,0.06,VWS V14.01,2013-05-10 10:12:00,
2013-05-10 05:13:00,47.4,44.0,29.96,NNE,22,7.3,7.8,88,0.00,,,0.06,VWS V14.01,2013-05-10 10:13:00,
2013-05-10 05:14:00,47.6,44.2,29.97,NNE,22,7.3,7.3,88,0.00,,,0.06,VWS V14.01,2013-05-10 10:14:00,
2013-05-10 05:15:00,47.6,44.2,29.97,NNE,22,8.2,8.2,88,0.00,,,0.06,VWS V14.01,2013-05-10 10:15:00,
2013-05-10 05:16:00,47.6,44.2,29.97,NNE,22,8.2,8.2,88,0.00,,,0.06,VWS V14.01,2013-05-10 10:16:00,
2013-05-10 05:17:00,47.4,44.0,29.97,NNE,22,8.2,8.2,88,0.00,,,0.06,VWS V14.01,2013-05-10 10:17:00,
2013-05-10 05:18:00,47.3,43.9,29.97,NNE,22,13.6,13.6,88,0.00,,,0.06,VWS V14.01,2013-05-10 10:18:00,
2013-05-10 05:19:00,47.3,43.9,29.97,NNE,22,13.6,13.6,88,0.00,,,0.06,VWS V14.01,2013-05-10 10:19:00,
2013-05-10 05:20:00,47.1,43.7,29.97,NNE,22,16.1,16.1,88,0.00,,,0.06,VWS V14.01,2013-05-10 10:20:00,
2013-05-10 05:21:00,47.1,43.7,29.97,NNE,22,16.1,16.1,88,0.00,,,0.06,VWS V14.01,2013-05-10 10:21:00,
2013-05-10 05:22:00,46.7,43.3,29.97,NNE,22,12.9,16.1,88,0.00,,,0.06,VWS V14.01,2013-05-10 10:22:00,
2013-05-10 05:23:00,46.7,43.3,29.97,NNE,22,12.9,12.9,88,0.00,,,0.06,VWS V14.01,2013-05-10 10:23:00,
2013-05-10 05:24:00,46.5,43.1,29.97,NE,45,12.3,12.9,88,0.00,,,0.06,VWS V14.01,2013-05-10 10:24:00,
2013-05-10 05:25:00,46.5,43.1,29.97,NE,45,12.3,12.3,88,0.00,,,0.06,VWS V14.01,2013-05-10 10:25:00,
2013-05-10 05:26:00,46.5,43.1,29.97,NE,45,12.3,12.3,88,0.00,,,0.06,VWS V14.01,2013-05-10 10:26:00,
2013-05-10 05:27:00,46.5,43.1,29.97,NNE,22,9.1,9.1,88,0.00,,,0.06,VWS V14.01,2013-05-10 10:27:00,
2013-05-10 05:28:00,46.4,43.0,29.97,NE,45,13.4,13.4,88,0.00,,,0.06,VWS V14.01,2013-05-10 10:28:00,
2013-05-10 05:29:00,46.4,43.0,29.97,NE,45,13.4,13.4,88,0.00,,,0.06,VWS V14.01,2013-05-10 10:29:00,
2013-05-10 05:30:00,46.4,43.0,29.97,NNE,22,15.4,15.4,88,0.00,,,0.06,VWS V14.01,2013-05-10 10:30:00,
2013-05-10 05:31:00,46.4,43.0,29.97,NNE,22,15.4,15.4,88,0.00,,,0.06,VWS V14.01,2013-05-10 10:31:00,
2013-05-10 05:32:00,46.2,42.8,29.97,NNE,22,15.4,15.4,88,0.00,,,0.06,VWS V14.01,2013-05-10 10:32:00,
2013-05-10 05:33:00,46.2,42.8,29.97,NNE,22,9.8,15.4,88,0.00,,,0.06,VWS V14.01,2013-05-10 10:33:00,
2013-05-10 05:34:00,46.2,42.8,29.97,NNE,22,9.8,9.8,88,0.00,,,0.06,VWS V14.01,2013-05-10 10:34:00,
2013-05-10 05:35:00,46.2,42.8,29.96,NNE,22,12.7,12.7,88,0.00,,,0.06,VWS V14.01,2013-05-10 10:35:00,
2013-05-10 05:36:00,46.2,42.8,29.96,NNE,22,12.7,12.7,88,0.00,,,0.06,VWS V14.01,2013-05-10 10:36:00,
2013-05-10 05:37:00,46.0,42.7,29.97,NNE,22,9.1,12.7,88,0.00,,,0.06,VWS V14.01,2013-05-10 10:37:00,
2013-05-10 05:38:00,46.0,42.7,29.97,NNE,22,9.1,9.1,88,0.00,,,0.06,VWS V14.01,2013-05-10 10:38:00,
2013-05-10 05:39:00,46.0,42.7,29.97,NNE,22,8.7,9.1,88,0.00,,,0.06,VWS V14.01,2013-05-10 10:39:00,
2013-05-10 05:40:00,46.0,42.7,29.96,NNE,22,8.7,8.7,88,0.00,,,0.06,VWS V14.01,2013-05-10 10:40:00,
2013-05-10 05:41:00,46.0,42.7,29.96,NNE,22,8.7,8.7,88,0.00,,,0.06,VWS V14.01,2013-05-10 10:41:00,
2013-05-10 05:42:00,46.0,42.7,29.97,NNE,22,10.9,10.9,88,0.00,,,0.06,VWS V14.01,2013-05-10 10:42:00,
2013-05-10 05:43:00,46.0,42.7,29.97,NNE,22,7.6,10.9,88,0.00,,,0.06,VWS V14.01,2013-05-10 10:43:00,
2013-05-10 05:44:00,46.0,42.7,29.97,NNE,22,7.6,7.6,88,0.00,,,0.06,VWS V14.01,2013-05-10 10:44:00,
2013-05-10 05:45:00,46.0,42.7,29.97,NNE,22,13.1,13.1,88,0.00,,,0.06,VWS V14.01,2013-05-10 10:45:00,
2013-05-10 05:46:00,46.0,42.7,29.97,NNE,22,13.1,13.1,88,0.00,,,0.06,VWS V14.01,2013-05-10 10:46:00,
2013-05-10 05:47:00,46.0,42.7,29.97,NNE,22,13.1,13.1,88,0.00,,,0.06,VWS V14.01,2013-05-10 10:47:00,
2013-05-10 05:48:00,46.0,42.7,29.97,NE,45,16.5,16.5,88,0.00,,,0.06,VWS V14.01,2013-05-10 10:48:00,
2013-05-10 05:49:00,46.0,42.7,29.97,NE,45,16.5,16.5,88,0.00,,,0.06,VWS V14.01,2013-05-10 10:49:00,
2013-05-10 05:50:00,46.0,42.7,29.97,NNE,22,14.3,14.3,88,0.00,,,0.06,VWS V14.01,2013-05-10 10:50:00,
2013-05-10 05:51:00,46.0,42.7,29.97,NNE,22,14.3,14.3,88,0.00,,,0.06,VWS V14.01,2013-05-10 10:51:00,
2013-05-10 05:52:00,46.0,42.7,29.97,NNE,22,9.6,14.3,88,0.00,,,0.06,VWS V14.01,2013-05-10 10:52:00,
2013-05-10 05:53:00,46.0,42.7,29.97,NNE,22,9.6,9.6,88,0.00,,,0.06,VWS V14.01,2013-05-10 10:53:00,
2013-05-10 05:54:00,46.0,42.7,29.97,NE,45,9.8,9.8,88,0.00,,,0.06,VWS V14.01,2013-05-10 10:54:00,
2013-05-10 05:55:00,46.0,42.7,29.97,NE,45,9.8,9.8,88,0.00,,,0.06,VWS V14.01,2013-05-10 10:55:00,
2013-05-10 05:56:00,46.0,42.7,29.97,NNE,22,11.1,11.1,88,0.00,,,0.06,VWS V14.01,2013-05-10 10:56:00,
2013-05-10 05:57:00,46.0,42.7,29.97,NNE,22,11.1,11.1,88,0.00,,,0.06,VWS V14.01,2013-05-10 10:57:00,
2013-05-10 05:58:00,46.0,42.7,29.97,NE,45,8.2,11.1,88,0.00,,,0.06,VWS V14.01,2013-05-10 10:58:00,
2013-05-10 05:59:00,46.0,42.7,29.97,NE,45,8.2,8.2,88,0.00,,,0.06,VWS V14.01,2013-05-10 10:59:00,
2013-05-10 06:00:00,46.0,42.7,29.97,NE,45,8.2,8.2,88,0.00,,,0.06,VWS V14.01,2013-05-10 11:00:00,
2013-05-10 06:01:00,46.0,42.7,29.97,NE,45,8.2,8.2,88,0.00,,,0.06,VWS V14.01,2013-05-10 11:01:00,
2013-05-10 06:02:00,46.0,42.7,29.97,NE,45,8.2,8.2,88,0.00,,,0.06,VWS V14.01,2013-05-10 11:02:00,
2013-05-10 06:03:00,46.0,42.7,29.97,NNE,22,16.5,16.5,88,0.00,,,0.06,VWS V14.01,2013-05-10 11:03:00,
2013-05-10 06:04:00,46.0,42.7,29.97,NNE,22,16.5,16.5,88,0.00,,,0.06,VWS V14.01,2013-05-10 11:04:00,
2013-05-10 06:05:00,46.0,42.7,29.97,NE,45,6.4,6.4,88,0.00,,,0.06,VWS V14.01,2013-05-10 11:05:00,
2013-05-10 06:06:00,46.0,42.7,29.97,NE,45,6.4,6.4,88,0.00,,,0.06,VWS V14.01,2013-05-10 11:06:00,
2013-05-10 06:07:00,46.0,42.7,29.98,NNE,22,13.4,13.4,88,0.00,,,0.06,VWS V14.01,2013-05-10 11:07:00,
2013-05-10 06:08:00,46.0,42.7,29.97,NNE,22,13.4,13.4,88,0.00,,,0.06,VWS V14.01,2013-05-10 11:08:00,
2013-05-10 06:09:00,46.0,42.7,29.97,NE,45,9.3,13.4,88,0.00,,,0.06,VWS V14.01,2013-05-10 11:09:00,
2013-05-10 06:10:00,46.0,42.7,29.97,NE,45,9.3,9.3,88,0.00,,,0.06,VWS V14.01,2013-05-10 11:10:00,
2013-05-10 06:11:00,46.0,42.7,29.97,NNE,22,11.8,11.8,88,0.00,,,0.06,VWS V14.01,2013-05-10 11:11:00,
2013-05-10 06:12:00,46.0,42.7,29.97,NNE,22,11.8,11.8,88,0.00,,,0.06,VWS V14.01,2013-05-10 11:12:00,
2013-05-10 06:13:00,45.8,42.5,29.97,NNE,22,6.9,11.8,88,0.00,,,0.06,VWS V14.01,2013-05-10 11:13:00,
2013-05-10 06:14:00,45.8,42.5,29.98,NNE,22,6.9,6.9,88,0.00,,,0.06,VWS V14.01,2013-05-10 11:14:00,
2013-05-10 06:15:00,45.8,42.5,29.98,NNE,22,12.7,12.7,88,0.00,,,0.06,VWS V14.01,2013-05-10 11:15:00,
2013-05-10 06:16:00,45.8,42.5,29.97,NNE,22,12.7,12.7,88,0.00,,,0.06,VWS V14.01,2013-05-10 11:16:00,
2013-05-10 06:17:00,45.8,42.5,29.97,NNE,22,12.7,12.7,88,0.00,,,0.06,VWS V14.01,2013-05-10 11:17:00,
2013-05-10 06:18:00,45.6,42.3,29.98,NNE,22,8.0,12.7,88,0.00,,,0.06,VWS V14.01,2013-05-10 11:18:00,
2013-05-10 06:19:00,45.6,42.3,29.97,NNE,22,8.0,8.0,88,0.00,,,0.06,VWS V14.01,2013-05-10 11:19:00,
2013-05-10 06:20:00,45.6,42.3,29.97,NNE,22,8.7,8.7,88,0.00,,,0.06,VWS V14.01,2013-05-10 11:20:00,
2013-05-10 06:21:00,45.6,42.3,29.98,NNE,22,8.7,8.7,88,0.00,,,0.06,VWS V14.01,2013-05-10 11:21:00,
2013-05-10 06:22:00,45.6,42.3,29.98,NNE,22,6.9,8.7,88,0.00,,,0.06,VWS V14.01,2013-05-10 11:22:00,
2013-05-10 06:23:00,45.6,42.3,29.98,NNE,22,6.9,6.9,88,0.00,,,0.06,VWS V14.01,2013-05-10 11:23:00,
2013-05-10 06:24:00,45.6,42.3,29.98,NNE,22,9.6,9.6,88,0.00,,,0.06,VWS V14.01,2013-05-10 11:24:00,
2013-05-10 06:25:00,45.6,42.3,29.98,NNE,22,9.6,9.6,88,0.00,,,0.06,VWS V14.01,2013-05-10 11:25:00,
2013-05-10 06:26:00,45.6,42.3,29.98,North,0,8.7,9.6,88,0.00,,,0.06,VWS V14.01,2013-05-10 11:26:00,
2013-05-10 06:27:00,45.6,42.3,29.98,North,0,8.7,8.7,88,0.00,,,0.06,VWS V14.01,2013-05-10 11:27:00,
2013-05-10 06:28:00,45.6,42.3,29.98,North,0,10.2,10.2,88,0.00,,,0.06,VWS V14.01,2013-05-10 11:28:00,
2013-05-10 06:29:00,45.6,42.3,29.98,North,0,10.2,10.2,88,0.00,,,0.06,VWS V14.01,2013-05-10 11:29:00,
2013-05-10 06:30:00,45.6,42.3,29.98,NNE,22,13.4,13.4,88,0.00,,,0.06,VWS V14.01,2013-05-10 11:30:00,
2013-05-10 06:31:00,45.6,42.3,29.98,NNE,22,13.4,13.4,88,0.00,,,0.06,VWS V14.01,2013-05-10 11:31:00,
2013-05-10 06:32:00,45.6,42.3,29.98,NNE,22,13.4,13.4,88,0.00,,,0.06,VWS V14.01,2013-05-10 11:32:00,
2013-05-10 06:33:00,45.6,42.3,29.98,NNE,22,11.4,13.4,88,0.00,,,0.06,VWS V14.01,2013-05-10 11:33:00,
2013-05-10 06:34:00,45.6,42.3,29.98,NNE,22,11.4,11.4,88,0.00,,,0.06,VWS V14.01,2013-05-10 11:34:00,
2013-05-10 06:35:00,45.6,42.3,29.98,North,0,11.8,11.8,88,0.00,,,0.06,VWS V14.01,2013-05-10 11:35:00,
2013-05-10 06:36:00,45.6,42.3,29.98,North,0,11.8,11.8,88,0.00,,,0.06,VWS V14.01,2013-05-10 11:36:00,
2013-05-10 06:37:00,45.6,42.3,29.98,NE,45,10.7,11.8,88,0.00,,,0.06,VWS V14.01,2013-05-10 11:37:00,
2013-05-10 06:38:00,45.6,42.3,29.98,NE,45,10.7,10.7,88,0.00,,,0.06,VWS V14.01,2013-05-10 11:38:00,
2013-05-10 06:39:00,45.8,42.5,29.98,NNE,22,14.3,14.3,88,0.00,,,0.06,VWS V14.01,2013-05-10 11:39:00,
2013-05-10 06:40:00,45.8,42.5,29.98,NNE,22,14.3,14.3,88,0.00,,,0.00,VWS V14.01,2013-05-10 11:40:00,
2013-05-10 06:41:00,46.0,42.7,29.98,NNE,22,13.1,14.3,88,0.00,,,0.06,VWS V14.01,2013-05-10 11:41:00,
2013-05-10 06:42:00,46.0,42.7,29.99,NNE,22,13.1,13.1,88,0.00,,,0.06,VWS V14.01,2013-05-10 11:42:00,
2013-05-10 06:43:00,46.0,42.7,29.98,NNE,22,17.4,17.4,88,0.00,,,0.06,VWS V14.01,2013-05-10 11:43:00,
2013-05-10 06:44:00,46.0,42.7,29.99,NNE,22,17.4,17.4,88,0.00,,,0.06,VWS V14.01,2013-05-10 11:44:00,
2013-05-10 06:45:00,46.0,42.7,29.99,North,0,0.0,0.0,88,0.00,,,0.06,VWS V14.01,2013-05-10 11:45:00,
2013-05-10 06:46:00,46.0,42.7,29.99,NNE,22,8.2,8.2,88,0.00,,,0.06,VWS V14.01,2013-05-10 11:46:00,
2013-05-10 06:47:00,46.0,42.7,29.98,NNE,22,8.2,8.2,88,0.00,,,0.06,VWS V14.01,2013-05-10 11:47:00,
2013-05-10 06:48:00,46.0,42.7,29.99,NNE,22,14.3,14.3,88,0.00,,,0.06,VWS V14.01,2013-05-10 11:48:00,
2013-05-10 06:49:00,46.0,42.7,29.99,NNE,22,14.3,14.3,88,0.00,,,0.06,VWS V14.01,2013-05-10 11:49:00,
2013-05-10 06:50:00,46.0,42.7,29.99,NNE,22,10.7,10.7,88,0.00,,,0.06,VWS V14.01,2013-05-10 11:50:00,
2013-05-10 06:51:00,46.0,42.7,29.99,NNE,22,10.7,10.7,88,0.00,,,0.06,VWS V14.01,2013-05-10 11:51:00,
2013-05-10 06:52:00,46.0,42.7,29.99,North,0,12.7,12.7,88,0.00,,,0.06,VWS V14.01,2013-05-10 11:52:00,
2013-05-10 06:53:00,46.0,42.7,29.99,North,0,12.7,12.7,88,0.00,,,0.06,VWS V14.01,2013-05-10 11:53:00,
2013-05-10 06:54:00,46.0,42.7,29.99,NNE,22,9.1,12.7,88,0.00,,,0.06,VWS V14.01,2013-05-10 11:54:00,
2013-05-10 06:55:00,46.0,42.7,29.99,NNE,22,9.1,9.1,88,0.00,,,0.06,VWS V14.01,2013-05-10 11:55:00,
2013-05-10 06:56:00,46.2,42.8,29.99,NNE,22,9.1,9.1,88,0.00,,,0.06,VWS V14.01,2013-05-10 11:56:00,
2013-05-10 06:57:00,46.2,42.8,29.99,NNE,22,9.1,9.1,88,0.00,,,0.06,VWS V14.01,2013-05-10 11:57:00,
2013-05-10 06:58:00,46.2,42.8,29.99,North,0,14.7,14.7,88,0.00,,,0.06,VWS V14.01,2013-05-10 11:58:00,
2013-05-10 06:59:00,46.2,42.8,29.99,North,0,14.7,14.7,88,0.00,,,0.06,VWS V14.01,2013-05-10 11:59:00,
2013-05-10 07:00:00,46.2,42.8,29.99,North,0,14.7,14.7,88,0.00,,,0.06,VWS V14.01,2013-05-10 12:00:00,
2013-05-10 07:01:00,46.2,42.8,29.99,North,0,14.7,14.7,88,0.00,,,0.06,VWS V14.01,2013-05-10 12:01:00,
2013-05-10 07:02:00,46.2,42.8,29.99,North,0,14.7,14.7,88,0.00,,,0.06,VWS V14.01,2013-05-10 12:02:00,
2013-05-10 07:03:00,46.2,42.8,29.99,ENE,68,8.5,14.7,88,0.00,,,0.06,VWS V14.01,2013-05-10 12:03:00,
2013-05-10 07:04:00,46.2,42.8,29.99,ENE,68,8.5,8.5,88,0.00,,,0.06,VWS V14.01,2013-05-10 12:04:00,
2013-05-10 07:05:00,46.2,42.8,29.99,NNE,22,13.4,13.4,88,0.00,,,0.06,VWS V14.01,2013-05-10 12:05:00,
2013-05-10 07:06:00,46.2,42.8,29.99,NNE,22,13.4,13.4,88,0.00,,,0.06,VWS V14.01,2013-05-10 12:06:00,
2013-05-10 07:07:00,46.2,42.8,29.99,North,0,8.7,13.4,88,0.00,,,0.06,VWS V14.01,2013-05-10 12:07:00,
2013-05-10 07:08:00,46.2,42.8,30.00,North,0,8.7,8.7,88,0.00,,,0.06,VWS V14.01,2013-05-10 12:08:00,
2013-05-10 07:09:00,46.2,42.5,30.00,NNE,22,8.9,8.9,87,0.00,,,0.06,VWS V14.01,2013-05-10 12:09:00,
2013-05-10 07:10:00,46.2,42.5,29.99,NNE,22,8.9,8.9,87,0.00,,,0.06,VWS V14.01,2013-05-10 12:10:00,
2013-05-10 07:11:00,46.2,42.5,29.99,North,0,12.0,12.0,87,0.00,,,0.06,VWS V14.01,2013-05-10 12:11:00,
2013-05-10 07:12:00,46.2,42.5,29.99,North,0,12.0,12.0,87,0.00,,,0.06,VWS V14.01,2013-05-10 12:12:00,
2013-05-10 07:13:00,46.0,42.3,29.99,NNE,22,13.1,13.1,87,0.00,,,0.06,VWS V14.01,2013-05-10 12:13:00,
2013-05-10 07:14:00,46.0,42.3,29.99,NNE,22,13.1,13.1,87,0.00,,,0.06,VWS V14.01,2013-05-10 12:14:00,
2013-05-10 07:15:00,46.0,42.3,29.99,NNE,22,10.7,10.7,87,0.00,,,0.06,VWS V14.01,2013-05-10 12:15:00,
2013-05-10 07:16:00,46.0,42.7,30.00,NNE,22,10.7,10.7,88,0.00,,,0.06,VWS V14.01,2013-05-10 12:16:00,
2013-05-10 07:17:00,46.0,42.7,30.00,NNE,22,10.7,10.7,88,0.00,,,0.06,VWS V14.01,2013-05-10 12:17:00,
2013-05-10 07:18:00,46.0,42.7,29.99,NNE,22,10.0,10.7,88,0.00,,,0.06,VWS V14.01,2013-05-10 12:18:00,
2013-05-10 07:19:00,46.0,42.7,30.00,NNE,22,10.0,10.0,88,0.00,,,0.06,VWS V14.01,2013-05-10 12:19:00,
2013-05-10 07:20:00,46.0,42.7,30.00,North,0,7.8,7.8,88,0.00,,,0.06,VWS V14.01,2013-05-10 12:20:00,
2013-05-10 07:21:00,46.0,42.7,30.00,North,0,7.8,7.8,88,0.00,,,0.06,VWS V14.01,2013-05-10 12:21:00,
2013-05-10 07:22:00,46.0,42.7,30.00,NNE,22,17.6,17.6,88,0.00,,,0.06,VWS V14.01,2013-05-10 12:22:00,
2013-05-10 07:23:00,46.0,42.7,30.00,NNE,22,17.6,17.6,88,0.00,,,0.06,VWS V14.01,2013-05-10 12:23:00,
2013-05-10 07:24:00,45.6,42.3,30.00,NNE,22,10.5,17.6,88,0.00,,,0.06,VWS V14.01,2013-05-10 12:24:00,
2013-05-10 07:25:00,45.6,42.3,30.01,NNE,22,10.5,10.5,88,0.00,,,0.06,VWS V14.01,2013-05-10 12:25:00,
2013-05-10 07:26:00,45.6,42.3,30.00,North,0,11.4,11.4,88,0.00,,,0.06,VWS V14.01,2013-05-10 12:26:00,
2013-05-10 07:27:00,45.6,42.3,30.00,North,0,11.4,11.4,88,0.00,,,0.06,VWS V14.01,2013-05-10 12:27:00,
2013-05-10 07:28:00,45.6,42.3,30.00,NNE,22,6.9,11.4,88,0.00,,,0.06,VWS V14.01,2013-05-10 12:28:00,
2013-05-10 07:29:00,45.6,42.3,30.00,NNE,22,6.9,6.9,88,0.00,,,0.06,VWS V14.01,2013-05-10 12:29:00,
2013-05-10 07:30:00,45.6,42.3,30.00,NNE,22,7.3,7.3,88,0.00,,,0.06,VWS V14.01,2013-05-10 12:30:00,
2013-05-10 07:31:00,45.6,42.3,30.00,NNE,22,7.3,7.3,88,0.00,,,0.06,VWS V14.01,2013-05-10 12:31:00,
2013-05-10 07:32:00,45.6,42.3,30.00,NNE,22,7.3,7.3,88,0.00,,,0.06,VWS V14.01,2013-05-10 12:32:00,
2013-05-10 07:33:00,45.6,42.3,30.00,NNE,22,15.6,15.6,88,0.00,,,0.06,VWS V14.01,2013-05-10 12:33:00,
2013-05-10 07:34:00,45.6,42.3,30.00,NNE,22,15.6,15.6,88,0.00,,,0.06,VWS V14.01,2013-05-10 12:34:00,
2013-05-10 07:35:00,45.6,42.3,30.00,North,0,14.5,14.5,88,0.00,,,0.06,VWS V14.01,2013-05-10 12:35:00,
2013-05-10 07:36:00,45.6,42.3,30.00,North,0,14.5,14.5,88,0.00,,,0.06,VWS V14.01,2013-05-10 12:36:00,
2013-05-10 07:37:00,45.6,42.3,30.00,NNE,22,10.7,14.5,88,0.00,,,0.06,VWS V14.01,2013-05-10 12:37:00,
2013-05-10 07:38:00,45.6,42.3,30.00,NNE,22,10.7,10.7,88,0.00,,,0.06,VWS V14.01,2013-05-10 12:38:00,
2013-05-10 07:39:00,45.6,42.0,30.00,NNE,22,11.8,11.8,87,0.00,,,0.06,VWS V14.01,2013-05-10 12:39:00,
2013-05-10 07:40:00,45.6,42.0,30.00,NNE,22,11.8,11.8,87,0.00,,,0.06,VWS V14.01,2013-05-10 12:40:00,
2013-05-10 07:41:00,45.6,42.0,30.00,NE,45,14.5,14.5,87,0.00,,,0.06,VWS V14.01,2013-05-10 12:41:00,
2013-05-10 07:42:00,45.6,42.0,30.00,NE,45,14.5,14.5,87,0.00,,,0.06,VWS V14.01,2013-05-10 12:42:00,
2013-05-10 07:43:00,45.6,42.0,30.00,NNE,22,11.6,14.5,87,0.00,,,0.06,VWS V14.01,2013-05-10 12:43:00,
2013-05-10 07:44:00,45.6,42.0,30.00,NNE,22,11.6,11.6,87,0.00,,,0.06,VWS V14.01,2013-05-10 12:44:00,
2013-05-10 07:45:00,45.6,42.0,30.00,NNE,22,10.2,10.2,87,0.00,,,0.06,VWS V14.01,2013-05-10 12:45:00,
2013-05-10 07:46:00,45.6,42.0,30.01,NNE,22,10.2,10.2,87,0.00,,,0.06,VWS V14.01,2013-05-10 12:46:00,
2013-05-10 07:47:00,45.6,42.0,30.01,NNE,22,10.2,10.2,87,0.00,,,0.06,VWS V14.01,2013-05-10 12:47:00,
2013-05-10 07:48:00,45.6,42.0,30.01,NNE,22,10.0,10.2,87,0.00,,,0.06,VWS V14.01,2013-05-10 12:48:00,
2013-05-10 07:49:00,45.6,42.0,30.01,NNE,22,10.0,10.0,87,0.00,,,0.06,VWS V14.01,2013-05-10 12:49:00,
2013-05-10 07:50:00,46.0,42.3,30.00,NNE,22,13.6,13.6,87,0.00,,,0.06,VWS V14.01,2013-05-10 12:50:00,
2013-05-10 07:51:00,46.0,42.3,30.01,NNE,22,13.6,13.6,87,0.00,,,0.06,VWS V14.01,2013-05-10 12:51:00,
2013-05-10 07:52:00,46.0,42.3,30.01,NNE,22,8.9,13.6,87,0.00,,,0.06,VWS V14.01,2013-05-10 12:52:00,
2013-05-10 07:53:00,46.0,42.3,30.01,NNE,22,8.9,8.9,87,0.00,,,0.06,VWS V14.01,2013-05-10 12:53:00,
2013-05-10 07:54:00,46.0,42.3,30.01,NNE,22,11.4,11.4,87,0.00,,,0.06,VWS V14.01,2013-05-10 12:54:00,
2013-05-10 07:55:00,46.0,42.3,30.01,NNE,22,11.4,11.4,87,0.00,,,0.06,VWS V14.01,2013-05-10 12:55:00,
2013-05-10 07:56:00,45.8,42.2,30.01,NNE,22,15.4,15.4,87,0.00,,,0.06,VWS V14.01,2013-05-10 12:56:00,
2013-05-10 07:57:00,45.8,42.2,30.01,NNE,22,15.4,15.4,87,0.00,,,0.06,VWS V14.01,2013-05-10 12:57:00,
2013-05-10 07:58:00,45.8,42.2,30.01,NNE,22,8.5,15.4,87,0.00,,,0.06,VWS V14.01,2013-05-10 12:58:00,
2013-05-10 07:59:00,45.8,42.2,30.01,NNE,22,8.5,8.5,87,0.00,,,0.06,VWS V14.01,2013-05-10 12:59:00,
2013-05-10 08:00:00,45.8,42.2,30.01,NNE,22,8.7,8.7,87,0.00,,,0.06,VWS V14.01,2013-05-10 13:00:00,
2013-05-10 08:01:00,45.8,42.2,30.01,NNE,22,8.7,8.7,87,0.00,,,0.06,VWS V14.01,2013-05-10 13:01:00,
2013-05-10 08:02:00,45.8,42.2,30.01,North,0,11.1,11.1,87,0.00,,,0.06,VWS V14.01,2013-05-10 13:02:00,
2013-05-10 08:03:00,46.0,42.3,30.01,North,0,11.1,11.1,87,0.00,,,0.06,VWS V14.01,2013-05-10 13:03:00,
2013-05-10 08:04:00,46.0,42.3,30.01,North,0,11.1,11.1,87,0.00,,,0.06,VWS V14.01,2013-05-10 13:04:00,
2013-05-10 08:05:00,46.0,42.3,30.02,North,0,11.1,11.1,87,0.00,,,0.06,VWS V14.01,2013-05-10 13:05:00,
2013-05-10 08:06:00,46.0,42.3,30.01,North,0,11.1,11.1,87,0.00,,,0.06,VWS V14.01,2013-05-10 13:06:00,
2013-05-10 08:07:00,46.0,42.3,30.01,NNE,22,13.6,13.6,87,0.00,,,0.06,VWS V14.01,2013-05-10 13:07:00,
2013-05-10 08:08:00,46.0,42.3,30.01,NNE,22,13.6,13.6,87,0.00,,,0.06,VWS V14.01,2013-05-10 13:08:00,
2013-05-10 08:09:00,45.8,42.2,30.02,NE,45,5.1,13.6,87,0.00,,,0.06,VWS V14.01,2013-05-10 13:09:00,
2013-05-10 08:10:00,45.8,42.2,30.02,NE,45,5.1,5.1,87,0.00,,,0.06,VWS V14.01,2013-05-10 13:10:00,
2013-05-10 08:11:00,45.8,42.2,30.02,NNE,22,12.5,12.5,87,0.00,,,0.06,VWS V14.01,2013-05-10 13:11:00,
2013-05-10 08:12:00,45.8,42.2,30.01,NNE,22,12.5,12.5,87,0.00,,,0.06,VWS V14.01,2013-05-10 13:12:00,
2013-05-10 08:13:00,46.0,42.3,30.01,NNE,22,10.7,12.5,87,0.00,,,0.06,VWS V14.01,2013-05-10 13:13:00,
2013-05-10 08:14:00,46.0,42.3,30.01,NNE,22,10.7,10.7,87,0.00,,,0.06,VWS V14.01,2013-05-10 13:14:00,
2013-05-10 08:15:00,46.0,42.3,30.01,NNE,22,10.7,10.7,87,0.00,,,0.06,VWS V14.01,2013-05-10 13:15:00,
2013-05-10 08:16:00,46.0,42.3,30.01,NNE,22,10.7,10.7,87,0.00,,,0.06,VWS V14.01,2013-05-10 13:16:00,
2013-05-10 08:17:00,46.0,42.3,30.01,NNE,22,10.7,10.7,87,0.00,,,0.06,VWS V14.01,2013-05-10 13:17:00,
2013-05-10 08:18:00,46.0,42.3,30.01,NNE,22,8.9,10.7,87,0.00,,,0.06,VWS V14.01,2013-05-10 13:18:00,
2013-05-10 08:19:00,46.0,42.3,30.01,NNE,22,8.9,8.9,87,0.00,,,0.06,VWS V14.01,2013-05-10 13:19:00,
2013-05-10 08:20:00,46.0,42.3,30.01,NNE,22,14.9,14.9,87,0.00,,,0.06,VWS V14.01,2013-05-10 13:20:00,
2013-05-10 08:21:00,46.0,42.3,30.01,NNE,22,14.9,14.9,87,0.00,,,0.06,VWS V14.01,2013-05-10 13:21:00,
2013-05-10 08:22:00,46.0,42.3,30.01,NE,45,12.7,14.9,87,0.00,,,0.06,VWS V14.01,2013-05-10 13:22:00,
2013-05-10 08:23:00,46.0,42.3,30.01,NE,45,12.7,12.7,87,0.00,,,0.06,VWS V14.01,2013-05-10 13:23:00,
2013-05-10 08:24:00,46.0,42.0,30.01,NNE,22,6.9,12.7,86,0.00,,,0.06,VWS V14.01,2013-05-10 13:24:00,
2013-05-10 08:25:00,46.0,42.0,30.01,NNE,22,6.9,6.9,86,0.00,,,0.06,VWS V14.01,2013-05-10 13:25:00,
2013-05-10 08:26:00,46.2,42.2,30.01,North,0,13.4,13.4,86,0.00,,,0.06,VWS V14.01,2013-05-10 13:26:00,
2013-05-10 08:27:00,46.2,42.2,30.01,North,0,13.4,13.4,86,0.00,,,0.06,VWS V14.01,2013-05-10 13:27:00,
2013-05-10 08:28:00,46.2,42.2,30.01,NNE,22,9.3,13.4,86,0.00,,,0.06,VWS V14.01,2013-05-10 13:28:00,
2013-05-10 08:29:00,46.2,42.2,30.02,NNE,22,9.3,9.3,86,0.00,,,0.06,VWS V14.01,2013-05-10 13:29:00,
2013-05-10 08:30:00,46.2,42.2,30.02,NNE,22,10.0,10.0,86,0.00,,,0.06,VWS V14.01,2013-05-10 13:30:00,
2013-05-10 08:31:00,46.2,42.2,30.02,NNE,22,10.0,10.0,86,0.00,,,0.06,VWS V14.01,2013-05-10 13:31:00,
2013-05-10 08:32:00,46.2,42.2,30.02,North,0,13.4,13.4,86,0.00,,,0.06,VWS V14.01,2013-05-10 13:32:00,
2013-05-10 08:33:00,46.2,42.2,30.02,North,0,13.4,13.4,86,0.00,,,0.06,VWS V14.01,2013-05-10 13:33:00,
2013-05-10 08:34:00,46.2,42.2,30.01,North,0,13.4,13.4,86,0.00,,,0.06,VWS V14.01,2013-05-10 13:34:00,
2013-05-10 08:35:00,46.2,42.2,30.01,NNE,22,7.3,7.3,86,0.00,,,0.06,VWS V14.01,2013-05-10 13:35:00,
2013-05-10 08:36:00,46.2,42.2,30.01,NNE,22,7.3,7.3,86,0.00,,,0.06,VWS V14.01,2013-05-10 13:36:00,
2013-05-10 08:37:00,46.2,42.2,30.01,NNE,22,10.9,10.9,86,0.00,,,0.06,VWS V14.01,2013-05-10 13:37:00,
2013-05-10 08:38:00,46.2,42.2,30.01,NNE,22,10.9,10.9,86,0.00,,,0.06,VWS V14.01,2013-05-10 13:38:00,
2013-05-10 08:39:00,46.2,42.2,30.02,NNE,22,10.0,10.9,86,0.00,,,0.06,VWS V14.01,2013-05-10 13:39:00,
2013-05-10 08:40:00,46.2,42.2,30.01,NNE,22,10.0,10.0,86,0.00,,,0.06,VWS V14.01,2013-05-10 13:40:00,
2013-05-10 08:41:00,46.2,42.2,30.02,NNE,22,10.5,10.5,86,0.00,,,0.06,VWS V14.01,2013-05-10 13:41:00,
2013-05-10 08:42:00,46.2,42.2,30.02,NNE,22,10.5,10.5,86,0.00,,,0.06,VWS V14.01,2013-05-10 13:42:00,
2013-05-10 08:43:00,46.2,42.2,30.02,NNE,22,13.1,13.1,86,0.00,,,0.06,VWS V14.01,2013-05-10 13:43:00,
2013-05-10 08:44:00,46.2,42.2,30.02,NNE,22,13.1,13.1,86,0.00,,,0.06,VWS V14.01,2013-05-10 13:44:00,
2013-05-10 08:45:00,46.2,42.2,30.02,NNE,22,10.7,10.7,86,0.00,,,0.06,VWS V14.01,2013-05-10 13:45:00,
2013-05-10 08:46:00,46.2,42.2,30.02,NNE,22,10.7,10.7,86,0.00,,,0.06,VWS V14.01,2013-05-10 13:46:00,
2013-05-10 08:47:00,46.2,42.2,30.02,NE,45,9.6,10.7,86,0.00,,,0.06,VWS V14.01,2013-05-10 13:47:00,
2013-05-10 08:48:00,46.2,42.2,30.02,NE,45,9.6,9.6,86,0.00,,,0.06,VWS V14.01,2013-05-10 13:48:00,
2013-05-10 08:49:00,46.2,42.2,30.02,NE,45,9.6,9.6,86,0.00,,,0.06,VWS V14.01,2013-05-10 13:49:00,
2013-05-10 08:50:00,46.5,42.5,30.02,NNE,22,6.2,6.2,86,0.00,,,0.06,VWS V14.01,2013-05-10 13:50:00,
2013-05-10 08:51:00,46.5,42.5,30.02,NNE,22,6.2,6.2,86,0.00,,,0.06,VWS V14.01,2013-05-10 13:51:00,
2013-05-10 08:52:00,46.5,42.5,30.02,NE,45,8.9,8.9,86,0.00,,,0.06,VWS V14.01,2013-05-10 13:52:00,
2013-05-10 08:53:00,46.5,42.5,30.02,NE,45,8.9,8.9,86,0.00,,,0.06,VWS V14.01,2013-05-10 13:53:00,
2013-05-10 08:54:00,46.4,42.5,30.02,NE,45,9.3,9.3,86,0.00,,,0.06,VWS V14.01,2013-05-10 13:54:00,
2013-05-10 08:55:00,46.4,42.5,30.02,NE,45,9.3,9.3,86,0.00,,,0.06,VWS V14.01,2013-05-10 13:55:00,
2013-05-10 08:56:00,46.2,42.2,30.02,NNE,22,11.8,11.8,86,0.00,,,0.06,VWS V14.01,2013-05-10 13:56:00,
2013-05-10 08:57:00,46.2,42.2,30.02,NNE,22,11.8,11.8,86,0.00,,,0.06,VWS V14.01,2013-05-10 13:57:00,
2013-05-10 08:58:00,46.5,42.5,30.02,NNE,22,7.6,11.8,86,0.00,,,0.06,VWS V14.01,2013-05-10 13:58:00,
2013-05-10 08:59:00,46.5,42.5,30.02,NNE,22,7.6,7.6,86,0.00,,,0.06,VWS V14.01,2013-05-10 13:59:00,
2013-05-10 09:00:00,46.5,42.5,30.02,NNE,22,12.9,12.9,86,0.00,,,0.00,VWS V14.01,2013-05-10 14:00:00,
2013-05-10 09:01:00,46.5,42.5,30.02,NNE,22,12.9,12.9,86,0.00,,,0.06,VWS V14.01,2013-05-10 14:01:00,
2013-05-10 09:02:00,46.5,42.5,30.02,NNE,22,12.9,12.9,86,0.00,,,0.06,VWS V14.01,2013-05-10 14:02:00,
2013-05-10 09:03:00,46.5,42.5,30.02,NE,45,6.0,12.9,86,0.00,,,0.06,VWS V14.01,2013-05-10 14:03:00,
2013-05-10 09:04:00,46.5,42.5,30.02,NE,45,6.0,6.0,86,0.00,,,0.06,VWS V14.01,2013-05-10 14:04:00,
2013-05-10 09:05:00,46.5,42.5,30.02,NNE,22,7.1,7.1,86,0.00,,,0.06,VWS V14.01,2013-05-10 14:05:00,
2013-05-10 09:06:00,46.5,42.5,30.02,NNE,22,7.1,7.1,86,0.00,,,0.06,VWS V14.01,2013-05-10 14:06:00,
2013-05-10 09:07:00,46.5,42.5,30.02,North,0,8.0,8.0,86,0.00,,,0.06,VWS V14.01,2013-05-10 14:07:00,
2013-05-10 09:08:00,46.5,42.5,30.03,North,0,8.0,8.0,86,0.00,,,0.06,VWS V14.01,2013-05-10 14:08:00,
2013-05-10 09:09:00,46.5,42.5,30.02,NNE,22,7.1,8.0,86,0.00,,,0.06,VWS V14.01,2013-05-10 14:09:00,
2013-05-10 09:10:00,46.5,42.5,30.03,NNE,22,7.1,7.1,86,0.00,,,0.06,VWS V14.01,2013-05-10 14:10:00,
2013-05-10 09:11:00,46.5,42.5,30.03,North,0,12.9,12.9,86,0.00,,,0.06,VWS V14.01,2013-05-10 14:11:00,
2013-05-10 09:12:00,46.5,42.5,30.02,North,0,12.9,12.9,86,0.00,,,0.06,VWS V14.01,2013-05-10 14:12:00,
2013-05-10 09:13:00,46.5,42.5,30.03,NNE,22,10.9,12.9,86,0.00,,,0.06,VWS V14.01,2013-05-10 14:13:00,
2013-05-10 09:14:00,46.5,42.5,30.02,NNE,22,10.9,10.9,86,0.00,,,0.06,VWS V14.01,2013-05-10 14:14:00,
2013-05-10 09:15:00,46.5,42.5,30.02,NNE,22,10.7,10.7,86,0.00,,,0.06,VWS V14.01,2013-05-10 14:15:00,
2013-05-10 09:16:00,46.5,42.5,30.02,NNE,22,10.7,10.7,86,0.00,,,0.06,VWS V14.01,2013-05-10 14:16:00,
2013-05-10 09:17:00,46.5,42.5,30.03,NNE,22,11.8,11.8,86,0.00,,,0.06,VWS V14.01,2013-05-10 14:17:00,
2013-05-10 09:18:00,46.5,42.5,30.02,NNE,22,11.8,11.8,86,0.00,,,0.06,VWS V14.01,2013-05-10 14:18:00,
2013-05-10 09:19:00,46.5,42.5,30.03,NNE,22,11.8,11.8,86,0.00,,,0.06,VWS V14.01,2013-05-10 14:19:00,
2013-05-10 09:20:00,46.5,42.5,30.02,NNE,22,7.8,7.8,86,0.00,,,0.06,VWS V14.01,2013-05-10 14:20:00,
2013-05-10 09:21:00,46.5,42.5,30.02,NNE,22,7.8,7.8,86,0.00,,,0.06,VWS V14.01,2013-05-10 14:21:00,
2013-05-10 09:22:00,46.5,42.5,30.02,NNE,22,8.5,8.5,86,0.00,,,0.06,VWS V14.01,2013-05-10 14:22:00,
2013-05-10 09:23:00,46.5,42.5,30.02,NNE,22,8.5,8.5,86,0.00,,,0.06,VWS V14.01,2013-05-10 14:23:00,
2013-05-10 09:24:00,46.5,42.5,30.03,NNE,22,7.8,8.5,86,0.00,,,0.06,VWS V14.01,2013-05-10 14:24:00,
2013-05-10 09:25:00,46.5,42.5,30.03,NNE,22,7.8,7.8,86,0.00,,,0.06,VWS V14.01,2013-05-10 14:25:00,
2013-05-10 09:26:00,46.7,42.7,30.03,NNE,22,10.2,10.2,86,0.00,,,0.06,VWS V14.01,2013-05-10 14:26:00,
2013-05-10 09:27:00,46.7,42.7,30.02,NNE,22,10.2,10.2,86,0.00,,,0.06,VWS V14.01,2013-05-10 14:27:00,
2013-05-10 09:28:00,46.7,42.7,30.02,NNE,22,15.8,15.8,86,0.00,,,0.06,VWS V14.01,2013-05-10 14:28:00,
2013-05-10 09:29:00,46.7,42.7,30.02,NNE,22,15.8,15.8,86,0.00,,,0.06,VWS V14.01,2013-05-10 14:29:00,
2013-05-10 09:30:00,46.5,42.5,30.02,NNE,22,7.3,7.3,86,0.00,,,0.06,VWS V14.01,2013-05-10 14:30:00,
2013-05-10 09:31:00,46.5,42.5,30.02,NNE,22,7.3,7.3,86,0.00,,,0.06,VWS V14.01,2013-05-10 14:31:00,
2013-05-10 09:32:00,46.5,42.5,30.02,NNE,22,10.9,10.9,86,0.00,,,0.06,VWS V14.01,2013-05-10 14:32:00,
2013-05-10 09:33:00,46.7,42.7,30.02,NNE,22,10.9,10.9,86,0.00,,,0.06,VWS V14.01,2013-05-10 14:33:00,
2013-05-10 09:34:00,46.7,42.7,30.02,NNE,22,10.9,10.9,86,0.00,,,0.06,VWS V14.01,2013-05-10 14:34:00,
2013-05-10 09:35:00,46.9,42.6,30.02,NNE,22,10.0,10.0,85,0.00,,,0.06,VWS V14.01,2013-05-10 14:35:00,
2013-05-10 09:36:00,46.9,42.6,30.02,NNE,22,10.0,10.0,85,0.00,,,0.06,VWS V14.01,2013-05-10 14:36:00,
2013-05-10 09:37:00,47.1,42.8,30.02,NE,45,8.0,10.0,85,0.00,,,0.06,VWS V14.01,2013-05-10 14:37:00,
2013-05-10 09:38:00,47.1,42.8,30.03,NE,45,8.0,8.0,85,0.00,,,0.06,VWS V14.01,2013-05-10 14:38:00,
2013-05-10 09:39:00,47.1,42.8,30.02,North,0,12.7,12.7,85,0.00,,,0.06,VWS V14.01,2013-05-10 14:39:00,
2013-05-10 09:40:00,47.1,42.8,30.02,North,0,12.7,12.7,85,0.00,,,0.06,VWS V14.01,2013-05-10 14:40:00,
2013-05-10 09:41:00,47.1,42.8,30.02,NNE,22,5.5,12.7,85,0.00,,,0.06,VWS V14.01,2013-05-10 14:41:00,
2013-05-10 09:42:00,47.1,42.8,30.03,NNE,22,5.5,5.5,85,0.00,,,0.06,VWS V14.01,2013-05-10 14:42:00,
2013-05-10 09:43:00,47.3,43.0,30.02,NNE,22,13.1,13.1,85,0.00,,,0.06,VWS V14.01,2013-05-10 14:43:00,
2013-05-10 09:44:00,47.3,43.0,30.02,NNE,22,13.1,13.1,85,0.00,,,0.06,VWS V14.01,2013-05-10 14:44:00,
2013-05-10 09:45:00,47.4,43.1,30.02,NNE,22,8.5,8.5,85,0.00,,,0.06,VWS V14.01,2013-05-10 14:45:00,
2013-05-10 09:46:00,47.4,43.1,30.02,NNE,22,8.5,8.5,85,0.00,,,0.06,VWS V14.01,2013-05-10 14:46:00,
2013-05-10 09:47:00,47.4,43.1,30.02,ENE,68,6.9,8.5,85,0.00,,,0.06,VWS V14.01,2013-05-10 14:47:00,
2013-05-10 09:48:00,47.4,42.8,30.02,ENE,68,6.9,6.9,84,0.00,,,0.06,VWS V14.01,2013-05-10 14:48:00,
2013-05-10 09:49:00,47.4,42.8,30.02,ENE,68,6.9,6.9,84,0.00,,,0.06,VWS V14.01,2013-05-10 14:49:00,
2013-05-10 09:50:00,47.8,43.2,30.02,NNE,22,12.7,12.7,84,0.00,,,0.06,VWS V14.01,2013-05-10 14:50:00,
2013-05-10 09:51:00,47.8,43.2,30.02,NNE,22,12.7,12.7,84,0.00,,,0.06,VWS V14.01,2013-05-10 14:51:00,
2013-05-10 09:52:00,47.8,43.2,30.02,NNE,22,10.2,12.7,84,0.00,,,0.06,VWS V14.01,2013-05-10 14:52:00,
2013-05-10 09:53:00,47.8,43.2,30.02,NNE,22,10.2,10.2,84,0.00,,,0.06,VWS V14.01,2013-05-10 14:53:00,
2013-05-10 09:54:00,47.8,43.2,30.02,NE,45,8.7,10.2,84,0.00,,,0.06,VWS V14.01,2013-05-10 14:54:00,
2013-05-10 09:55:00,47.8,43.2,30.02,NE,45,8.7,8.7,84,0.00,,,0.06,VWS V14.01,2013-05-10 14:55:00,
2013-05-10 09:56:00,48.0,43.4,30.02,NNE,22,12.3,12.3,84,0.00,,,0.06,VWS V14.01,2013-05-10 14:56:00,
2013-05-10 09:57:00,48.0,43.4,30.02,NNE,22,12.3,12.3,84,0.00,,,0.06,VWS V14.01,2013-05-10 14:57:00,
2013-05-10 09:58:00,47.8,43.2,30.02,NNE,22,6.7,12.3,84,0.00,,,0.06,VWS V14.01,2013-05-10 14:58:00,
2013-05-10 09:59:00,47.8,43.2,30.02,NNE,22,6.7,6.7,84,0.00,,,0.06,VWS V14.01,2013-05-10 14:59:00,
2013-05-10 10:00:00,47.8,43.2,30.02,NNE,22,6.7,6.7,84,0.00,,,0.06,VWS V14.01,2013-05-10 15:00:00,
2013-05-10 10:01:00,47.8,43.2,30.02,NNE,22,9.8,9.8,84,0.00,,,0.06,VWS V14.01,2013-05-10 15:01:00,
2013-05-10 10:02:00,47.8,43.2,30.02,North,0,10.7,10.7,84,0.00,,,0.06,VWS V14.01,2013-05-10 15:02:00,
2013-05-10 10:03:00,47.8,43.2,30.02,North,0,10.7,10.7,84,0.00,,,0.06,VWS V14.01,2013-05-10 15:03:00,
2013-05-10 10:04:00,47.8,43.2,30.02,North,0,10.7,10.7,84,0.00,,,0.06,VWS V14.01,2013-05-10 15:04:00,
2013-05-10 10:05:00,47.4,42.8,30.02,NNE,22,7.8,7.8,84,0.00,,,0.06,VWS V14.01,2013-05-10 15:05:00,
2013-05-10 10:06:00,47.4,42.8,30.02,NNE,22,7.8,7.8,84,0.00,,,0.06,VWS V14.01,2013-05-10 15:06:00,
2013-05-10 10:07:00,47.4,42.8,30.03,North,0,9.6,9.6,84,0.00,,,0.06,VWS V14.01,2013-05-10 15:07:00,
2013-05-10 10:08:00,47.4,42.8,30.03,North,0,9.6,9.6,84,0.00,,,0.06,VWS V14.01,2013-05-10 15:08:00,
2013-05-10 10:09:00,47.4,42.8,30.03,NNE,22,12.9,12.9,84,0.00,,,0.06,VWS V14.01,2013-05-10 15:09:00,
2013-05-10 10:10:00,47.4,42.8,30.03,NNE,22,12.9,12.9,84,0.00,,,0.06,VWS V14.01,2013-05-10 15:10:00,
2013-05-10 10:11:00,47.4,42.8,30.03,NNE,22,8.7,12.9,84,0.00,,,0.06,VWS V14.01,2013-05-10 15:11:00,
2013-05-10 10:12:00,47.4,42.8,30.03,NNE,22,8.7,8.7,84,0.00,,,0.06,VWS V14.01,2013-05-10 15:12:00,
2013-05-10 10:13:00,47.4,43.1,30.03,NNE,22,7.6,8.7,85,0.00,,,0.06,VWS V14.01,2013-05-10 15:13:00,
2013-05-10 10:14:00,47.4,43.1,30.03,NNE,22,7.6,7.6,85,0.00,,,0.06,VWS V14.01,2013-05-10 15:14:00,
2013-05-10 10:15:00,47.4,43.1,30.03,NNE,22,11.4,11.4,85,0.00,,,0.06,VWS V14.01,2013-05-10 15:15:00,
2013-05-10 10:16:00,47.4,43.1,30.03,NNE,22,11.4,11.4,85,0.00,,,0.06,VWS V14.01,2013-05-10 15:16:00,
2013-05-10 10:17:00,47.4,43.1,30.03,North,0,10.2,11.4,85,0.00,,,0.06,VWS V14.01,2013-05-10 15:17:00,
2013-05-10 10:18:00,47.4,42.8,30.03,North,0,10.2,10.2,84,0.00,,,0.06,VWS V14.01,2013-05-10 15:18:00,
2013-05-10 10:19:00,47.4,42.8,30.03,North,0,10.2,10.2,84,0.00,,,0.06,VWS V14.01,2013-05-10 15:19:00,
2013-05-10 10:20:00,47.4,43.1,30.03,NNE,22,12.3,12.3,85,0.00,,,0.06,VWS V14.01,2013-05-10 15:20:00,
2013-05-10 10:21:00,47.4,43.1,30.03,NNE,22,12.3,12.3,85,0.00,,,0.06,VWS V14.01,2013-05-10 15:21:00,
2013-05-10 10:22:00,47.4,43.1,30.03,NNE,22,7.8,12.3,85,0.00,,,0.06,VWS V14.01,2013-05-10 15:22:00,
2013-05-10 10:23:00,47.4,43.1,30.03,NNE,22,7.8,7.8,85,0.00,,,0.06,VWS V14.01,2013-05-10 15:23:00,
2013-05-10 10:24:00,47.8,43.5,30.03,NNE,22,9.1,9.1,85,0.00,,,0.06,VWS V14.01,2013-05-10 15:24:00,
2013-05-10 10:25:00,47.8,43.5,30.03,NNE,22,9.1,9.1,85,0.00,,,0.06,VWS V14.01,2013-05-10 15:25:00,
2013-05-10 10:26:00,47.8,43.5,30.03,NNE,22,10.5,10.5,85,0.00,,,0.06,VWS V14.01,2013-05-10 15:26:00,
2013-05-10 10:27:00,47.8,43.5,30.03,NNE,22,10.5,10.5,85,0.00,,,0.06,VWS V14.01,2013-05-10 15:27:00,
2013-05-10 10:28:00,47.8,43.5,30.03,NNE,22,6.9,10.5,85,0.00,,,0.06,VWS V14.01,2013-05-10 15:28:00,
2013-05-10 10:29:00,47.8,43.5,30.03,NNE,22,6.9,6.9,85,0.00,,,0.06,VWS V14.01,2013-05-10 15:29:00,
2013-05-10 10:30:00,48.0,43.4,30.03,North,0,13.4,13.4,84,0.00,,,0.06,VWS V14.01,2013-05-10 15:30:00,
2013-05-10 10:31:00,48.0,43.4,30.03,North,0,13.4,13.4,84,0.00,,,0.06,VWS V14.01,2013-05-10 15:31:00,
2013-05-10 10:32:00,48.0,43.4,30.03,NNE,22,11.4,13.4,84,0.00,,,0.06,VWS V14.01,2013-05-10 15:32:00,
2013-05-10 10:33:00,48.0,43.4,30.03,NNE,22,11.4,11.4,84,0.00,,,0.06,VWS V14.01,2013-05-10 15:33:00,
2013-05-10 10:34:00,48.0,43.4,30.03,NNE,22,11.4,11.4,84,0.00,,,0.06,VWS V14.01,2013-05-10 15:34:00,
2013-05-10 10:35:00,48.0,43.4,30.03,North,0,11.4,11.4,84,0.00,,,0.06,VWS V14.01,2013-05-10 15:35:00,
2013-05-10 10:36:00,48.0,43.4,30.04,North,0,11.4,11.4,84,0.00,,,0.06,VWS V14.01,2013-05-10 15:36:00,
2013-05-10 10:37:00,48.0,43.4,30.04,North,0,11.6,11.6,84,0.00,,,0.06,VWS V14.01,2013-05-10 15:37:00,
2013-05-10 10:38:00,48.0,43.4,30.04,North,0,11.6,11.6,84,0.00,,,0.06,VWS V14.01,2013-05-10 15:38:00,
2013-05-10 10:39:00,48.0,43.4,30.04,NNE,22,15.2,15.2,84,0.00,,,0.06,VWS V14.01,2013-05-10 15:39:00,
2013-05-10 10:40:00,48.0,43.4,30.04,NNE,22,15.2,15.2,84,0.00,,,0.06,VWS V14.01,2013-05-10 15:40:00,
2013-05-10 10:41:00,48.0,43.4,30.04,NNE,22,11.1,15.2,84,0.00,,,0.06,VWS V14.01,2013-05-10 15:41:00,
2013-05-10 10:42:00,48.0,43.4,30.04,NNE,22,11.1,11.1,84,0.00,,,0.06,VWS V14.01,2013-05-10 15:42:00,
2013-05-10 10:43:00,47.8,43.2,30.05,NE,45,6.4,11.1,84,0.00,,,0.06,VWS V14.01,2013-05-10 15:43:00,
2013-05-10 10:44:00,47.8,43.2,30.05,NE,45,6.4,6.4,84,0.00,,,0.06,VWS V14.01,2013-05-10 15:44:00,
2013-05-10 10:45:00,47.8,43.2,30.05,NNE,22,10.5,10.5,84,0.00,,,0.06,VWS V14.01,2013-05-10 15:45:00,
2013-05-10 10:46:00,47.8,43.2,30.05,NNE,22,10.5,10.5,84,0.00,,,0.06,VWS V14.01,2013-05-10 15:46:00,
2013-05-10 10:47:00,47.6,43.0,30.05,NNE,22,9.3,10.5,84,0.00,,,0.06,VWS V14.01,2013-05-10 15:47:00,
2013-05-10 10:48:00,47.6,43.0,30.05,NNE,22,9.3,9.3,84,0.00,,,0.06,VWS V14.01,2013-05-10 15:48:00,
2013-05-10 10:49:00,47.6,43.0,30.05,NNE,22,9.3,9.3,84,0.00,,,0.06,VWS V14.01,2013-05-10 15:49:00,
2013-05-10 10:50:00,47.6,43.0,30.05,NNE,22,7.8,7.8,84,0.00,,,0.06,VWS V14.01,2013-05-10 15:50:00,
2013-05-10 10:51:00,47.6,43.0,30.05,NNE,22,7.8,7.8,84,0.00,,,0.06,VWS V14.01,2013-05-10 15:51:00,
2013-05-10 10:52:00,47.8,43.2,30.05,NE,45,9.3,9.3,84,0.00,,,0.06,VWS V14.01,2013-05-10 15:52:00,
2013-05-10 10:53:00,47.8,43.2,30.05,NE,45,9.3,9.3,84,0.00,,,0.06,VWS V14.01,2013-05-10 15:53:00,
2013-05-10 10:54:00,48.0,43.4,30.05,NNE,22,10.2,10.2,84,0.00,,,0.06,VWS V14.01,2013-05-10 15:54:00,
2013-05-10 10:55:00,48.0,43.4,30.05,NNE,22,10.2,10.2,84,0.00,,,0.06,VWS V14.01,2013-05-10 15:55:00,
2013-05-10 10:56:00,48.0,43.4,30.05,NNE,22,8.9,10.2,84,0.00,,,0.06,VWS V14.01,2013-05-10 15:56:00,
2013-05-10 10:57:00,48.0,43.4,30.05,NNE,22,8.9,8.9,84,0.00,,,0.06,VWS V14.01,2013-05-10 15:57:00,
2013-05-10 10:58:00,48.0,43.4,30.05,NNE,22,12.5,12.5,84,0.00,,,0.06,VWS V14.01,2013-05-10 15:58:00,
2013-05-10 10:59:00,48.0,43.4,30.05,NNE,22,12.5,12.5,84,0.00,,,0.06,VWS V14.01,2013-05-10 15:59:00,
2013-05-10 11:00:00,48.0,43.4,30.05,NNE,22,8.2,8.2,84,0.00,,,0.06,VWS V14.01,2013-05-10 16:00:00,
2013-05-10 11:01:00,48.0,43.4,30.05,NNE,22,8.2,8.2,84,0.00,,,0.06,VWS V14.01,2013-05-10 16:01:00,
2013-05-10 11:02:00,48.0,43.4,30.05,NE,45,6.7,8.2,84,0.00,,,0.06,VWS V14.01,2013-05-10 16:02:00,
2013-05-10 11:03:00,48.0,43.4,30.05,NE,45,6.7,6.7,84,0.00,,,0.06,VWS V14.01,2013-05-10 16:03:00,
2013-05-10 11:04:00,48.0,43.4,30.05,NE,45,6.7,6.7,84,0.00,,,0.06,VWS V14.01,2013-05-10 16:04:00,
2013-05-10 11:05:00,48.0,43.4,30.05,NNE,22,8.9,8.9,84,0.00,,,0.06,VWS V14.01,2013-05-10 16:05:00,
2013-05-10 11:06:00,48.0,43.4,30.05,NNE,22,8.9,8.9,84,0.00,,,0.06,VWS V14.01,2013-05-10 16:06:00,
2013-05-10 11:07:00,48.0,43.4,30.05,NNE,22,10.5,10.5,84,0.00,,,0.06,VWS V14.01,2013-05-10 16:07:00,
2013-05-10 11:08:00,48.0,43.4,30.05,NNE,22,10.5,10.5,84,0.00,,,0.06,VWS V14.01,2013-05-10 16:08:00,
2013-05-10 11:09:00,48.0,43.4,30.05,NNE,22,10.5,10.5,84,0.00,,,0.06,VWS V14.01,2013-05-10 16:09:00,
2013-05-10 11:10:00,48.0,43.4,30.05,NNE,22,10.5,10.5,84,0.00,,,0.06,VWS V14.01,2013-05-10 16:10:00,
2013-05-10 11:11:00,48.0,43.4,30.05,NNE,22,13.1,13.1,84,0.00,,,0.06,VWS V14.01,2013-05-10 16:11:00,
2013-05-10 11:12:00,48.0,43.4,30.05,NNE,22,13.1,13.1,84,0.00,,,0.06,VWS V14.01,2013-05-10 16:12:00,
2013-05-10 11:13:00,48.0,43.4,30.05,NNE,22,11.4,13.1,84,0.00,,,0.06,VWS V14.01,2013-05-10 16:13:00,
2013-05-10 11:14:00,48.0,43.4,30.05,NNE,22,11.4,11.4,84,0.00,,,0.06,VWS V14.01,2013-05-10 16:14:00,
2013-05-10 11:15:00,48.0,43.4,30.05,NNE,22,5.1,5.1,84,0.00,,,0.06,VWS V14.01,2013-05-10 16:15:00,
2013-05-10 11:16:00,48.2,43.6,30.05,NNE,22,5.1,5.1,84,0.00,,,0.06,VWS V14.01,2013-05-10 16:16:00,
2013-05-10 11:17:00,48.2,43.6,30.05,NNE,22,12.9,12.9,84,0.00,,,0.06,VWS V14.01,2013-05-10 16:17:00,
2013-05-10 11:18:00,48.3,43.7,30.05,NNE,22,12.9,12.9,84,0.00,,,0.06,VWS V14.01,2013-05-10 16:18:00,
2013-05-10 11:19:00,48.3,43.7,30.05,NNE,22,12.9,12.9,84,0.00,,,0.06,VWS V14.01,2013-05-10 16:19:00,
2013-05-10 11:20:00,48.3,43.7,30.05,NNE,22,8.5,8.5,84,0.00,,,0.06,VWS V14.01,2013-05-10 16:20:00,
2013-05-10 11:21:00,48.3,43.7,30.05,NNE,22,8.5,8.5,84,0.00,,,0.06,VWS V14.01,2013-05-10 16:21:00,
2013-05-10 11:22:00,48.3,43.7,30.05,NNE,22,10.0,10.0,84,0.00,,,0.06,VWS V14.01,2013-05-10 16:22:00,
2013-05-10 11:23:00,48.3,43.7,30.05,NNE,22,10.0,10.0,84,0.00,,,0.06,VWS V14.01,2013-05-10 16:23:00,
2013-05-10 11:24:00,48.3,43.7,30.05,NNE,22,8.7,10.0,84,0.00,,,0.06,VWS V14.01,2013-05-10 16:24:00,
2013-05-10 11:25:00,48.3,43.7,30.05,NNE,22,8.7,8.7,84,0.00,,,0.06,VWS V14.01,2013-05-10 16:25:00,
2013-05-10 11:26:00,48.2,43.6,30.05,NNE,22,13.4,13.4,84,0.00,,,0.06,VWS V14.01,2013-05-10 16:26:00,
2013-05-10 11:27:00,48.2,43.6,30.05,NNE,22,13.4,13.4,84,0.00,,,0.06,VWS V14.01,2013-05-10 16:27:00,
2013-05-10 11:28:00,48.2,43.6,30.05,NNE,22,12.5,13.4,84,0.00,,,0.06,VWS V14.01,2013-05-10 16:28:00,
2013-05-10 11:29:00,48.2,43.6,30.05,NNE,22,12.5,12.5,84,0.00,,,0.06,VWS V14.01,2013-05-10 16:29:00,
2013-05-10 11:30:00,48.2,43.6,30.05,North,0,9.1,9.1,84,0.00,,,0.06,VWS V14.01,2013-05-10 16:30:00,
2013-05-10 11:31:00,48.2,43.6,30.05,North,0,9.1,9.1,84,0.00,,,0.06,VWS V14.01,2013-05-10 16:31:00,
2013-05-10 11:32:00,48.2,43.6,30.05,North,0,15.4,15.4,84,0.00,,,0.06,VWS V14.01,2013-05-10 16:32:00,
2013-05-10 11:33:00,48.2,43.6,30.05,North,0,15.4,15.4,84,0.00,,,0.06,VWS V14.01,2013-05-10 16:33:00,
2013-05-10 11:34:00,48.2,43.6,30.05,North,0,15.4,15.4,84,0.00,,,0.06,VWS V14.01,2013-05-10 16:34:00,
2013-05-10 11:35:00,48.3,43.7,30.05,North,0,8.5,8.5,84,0.00,,,0.06,VWS V14.01,2013-05-10 16:35:00,
2013-05-10 11:36:00,48.3,43.7,30.05,North,0,8.5,8.5,84,0.00,,,0.06,VWS V14.01,2013-05-10 16:36:00,
2013-05-10 11:37:00,48.2,43.6,30.05,North,0,11.6,11.6,84,0.00,,,0.06,VWS V14.01,2013-05-10 16:37:00,
2013-05-10 11:38:00,48.2,43.6,30.05,North,0,11.6,11.6,84,0.00,,,0.06,VWS V14.01,2013-05-10 16:38:00,
2013-05-10 11:39:00,48.2,43.6,30.05,NNE,22,9.6,11.6,84,0.00,,,0.06,VWS V14.01,2013-05-10 16:39:00,
2013-05-10 11:40:00,48.2,43.6,30.05,NNE,22,9.6,9.6,84,0.00,,,0.06,VWS V14.01,2013-05-10 16:40:00,
2013-05-10 11:41:00,48.0,43.4,30.05,NNE,22,10.2,10.2,84,0.00,,,0.06,VWS V14.01,2013-05-10 16:41:00,
2013-05-10 11:42:00,48.0,43.4,30.06,NNE,22,10.2,10.2,84,0.00,,,0.06,VWS V14.01,2013-05-10 16:42:00,
2013-05-10 11:43:00,48.0,43.4,30.06,North,0,9.8,10.2,84,0.00,,,0.06,VWS V14.01,2013-05-10 16:43:00,
2013-05-10 11:44:00,48.0,43.4,30.06,North,0,9.8,9.8,84,0.00,,,0.06,VWS V14.01,2013-05-10 16:44:00,
2013-05-10 11:45:00,48.0,43.4,30.06,NNE,22,8.7,8.7,84,0.00,,,0.06,VWS V14.01,2013-05-10 16:45:00,
2013-05-10 11:46:00,48.0,43.4,30.06,NNE,22,8.7,8.7,84,0.00,,,0.06,VWS V14.01,2013-05-10 16:46:00,
2013-05-10 11:47:00,48.0,43.4,30.06,NNE,22,14.5,14.5,84,0.00,,,0.06,VWS V14.01,2013-05-10 16:47:00,
2013-05-10 11:48:00,48.0,43.4,30.06,NNE,22,14.5,14.5,84,0.00,,,0.06,VWS V14.01,2013-05-10 16:48:00,
2013-05-10 11:49:00,48.0,43.4,30.06,NNE,22,14.5,14.5,84,0.00,,,0.06,VWS V14.01,2013-05-10 16:49:00,
2013-05-10 11:50:00,48.0,43.4,30.06,NNE,22,10.2,14.5,84,0.00,,,0.06,VWS V14.01,2013-05-10 16:50:00,
2013-05-10 11:51:00,48.0,43.4,30.06,NNE,22,10.2,10.2,84,0.00,,,0.06,VWS V14.01,2013-05-10 16:51:00,
2013-05-10 11:52:00,48.0,43.4,30.06,NNE,22,13.8,13.8,84,0.00,,,0.06,VWS V14.01,2013-05-10 16:52:00,
2013-05-10 11:53:00,48.0,43.4,30.06,NNE,22,13.8,13.8,84,0.00,,,0.06,VWS V14.01,2013-05-10 16:53:00,
2013-05-10 11:54:00,48.2,43.6,30.06,NNE,22,11.8,13.8,84,0.00,,,0.06,VWS V14.01,2013-05-10 16:54:00,
2013-05-10 11:55:00,48.2,43.6,30.06,NNE,22,11.8,11.8,84,0.00,,,0.06,VWS V14.01,2013-05-10 16:55:00,
2013-05-10 11:56:00,48.3,43.7,30.06,NE,45,12.3,12.3,84,0.00,,,0.06,VWS V14.01,2013-05-10 16:56:00,
2013-05-10 11:57:00,48.3,43.7,30.06,NE,45,12.3,12.3,84,0.00,,,0.06,VWS V14.01,2013-05-10 16:57:00,
2013-05-10 11:58:00,48.5,43.9,30.06,NNE,22,7.3,12.3,84,0.00,,,0.06,VWS V14.01,2013-05-10 16:58:00,
2013-05-10 11:59:00,48.5,43.9,30.06,NNE,22,7.3,7.3,84,0.00,,,0.06,VWS V14.01,2013-05-10 16:59:00,
2013-05-10 12:00:00,48.5,43.9,30.06,NNE,22,7.3,7.3,84,0.00,,,0.06,VWS V14.01,2013-05-10 17:00:00,
2013-05-10 12:01:00,48.9,44.3,30.06,NNE,22,10.5,10.5,84,0.00,,,0.06,VWS V14.01,2013-05-10 17:01:00,
2013-05-10 12:02:00,48.7,43.8,30.06,North,0,0.0,10.5,83,0.00,,,0.06,VWS V14.01,2013-05-10 17:02:00,
2013-05-10 12:03:00,48.7,43.8,30.06,North,0,10.0,10.0,83,0.00,,,0.06,VWS V14.01,2013-05-10 17:03:00,
2013-05-10 12:04:00,48.7,43.8,30.06,North,0,10.0,10.0,83,0.00,,,0.06,VWS V14.01,2013-05-10 17:04:00,
2013-05-10 12:05:00,48.7,43.8,30.06,North,0,10.0,10.0,83,0.00,,,0.06,VWS V14.01,2013-05-10 17:05:00,
2013-05-10 12:06:00,48.9,44.0,30.06,North,0,11.1,11.1,83,0.00,,,0.06,VWS V14.01,2013-05-10 17:06:00,
2013-05-10 12:07:00,48.9,44.0,30.06,North,0,8.0,11.1,83,0.00,,,0.06,VWS V14.01,2013-05-10 17:07:00,
2013-05-10 12:08:00,48.9,44.0,30.06,North,0,8.0,8.0,83,0.00,,,0.06,VWS V14.01,2013-05-10 17:08:00,
2013-05-10 12:09:00,48.7,43.8,30.06,NNE,22,9.8,9.8,83,0.00,,,0.06,VWS V14.01,2013-05-10 17:09:00,
2013-05-10 12:10:00,48.7,43.8,30.06,NNE,22,9.8,9.8,83,0.00,,,0.06,VWS V14.01,2013-05-10 17:10:00,
2013-05-10 12:11:00,48.7,43.8,30.06,NNE,22,9.8,9.8,83,0.00,,,0.06,VWS V14.01,2013-05-10 17:11:00,
2013-05-10 12:12:00,48.7,43.8,30.06,NNE,22,9.8,9.8,83,0.00,,,0.06,VWS V14.01,2013-05-10 17:12:00,
2013-05-10 12:13:00,48.3,43.4,30.06,NNE,22,9.1,9.8,83,0.00,,,0.06,VWS V14.01,2013-05-10 17:13:00,
2013-05-10 12:14:00,48.3,43.4,30.06,NNE,22,9.1,9.1,83,0.00,,,0.06,VWS V14.01,2013-05-10 17:14:00,
2013-05-10 12:15:00,48.3,43.4,30.06,NNE,22,9.1,9.1,83,0.00,,,0.06,VWS V14.01,2013-05-10 17:15:00,
2013-05-10 12:16:00,48.5,43.9,30.06,NNE,22,8.0,8.0,84,0.00,,,0.06,VWS V14.01,2013-05-10 17:16:00,
2013-05-10 12:17:00,48.5,43.9,30.06,NNE,22,7.3,8.0,84,0.00,,,0.06,VWS V14.01,2013-05-10 17:17:00,
2013-05-10 12:18:00,48.5,43.9,30.06,NNE,22,7.3,7.3,84,0.00,,,0.06,VWS V14.01,2013-05-10 17:18:00,
2013-05-10 12:19:00,48.5,43.9,30.06,NNE,22,7.3,7.3,84,0.00,,,0.06,VWS V14.01,2013-05-10 17:19:00,
2013-05-10 12:20:00,48.5,43.9,30.06,NNE,22,7.3,7.3,84,0.00,,,0.06,VWS V14.01,2013-05-10 17:20:00,
2013-05-10 12:21:00,48.7,44.1,30.06,NNE,22,13.1,13.1,84,0.00,,,0.06,VWS V14.01,2013-05-10 17:21:00,
2013-05-10 12:22:00,48.5,43.9,30.06,NNE,22,6.2,13.1,84,0.00,,,0.06,VWS V14.01,2013-05-10 17:22:00,
2013-05-10 12:23:00,48.5,43.9,30.06,NNE,22,6.2,6.2,84,0.00,,,0.06,VWS V14.01,2013-05-10 17:23:00,
2013-05-10 12:24:00,48.7,44.1,30.06,NNE,22,7.1,7.1,84,0.00,,,0.06,VWS V14.01,2013-05-10 17:24:00,
2013-05-10 12:25:00,48.7,44.1,30.06,NNE,22,7.1,7.1,84,0.00,,,0.06,VWS V14.01,2013-05-10 17:25:00,
2013-05-10 12:26:00,48.7,44.1,30.06,NNE,22,6.2,7.1,84,0.00,,,0.06,VWS V14.01,2013-05-10 17:26:00,
2013-05-10 12:27:00,48.7,44.1,30.06,NNE,22,6.2,6.2,84,0.00,,,0.06,VWS V14.01,2013-05-10 17:27:00,
2013-05-10 12:28:00,48.7,44.1,30.06,NNE,22,9.6,9.6,84,0.00,,,0.06,VWS V14.01,2013-05-10 17:28:00,
2013-05-10 12:29:00,48.7,44.1,30.06,NNE,22,9.6,9.6,84,0.00,,,0.06,VWS V14.01,2013-05-10 17:29:00,
2013-05-10 12:30:00,48.7,44.1,30.06,NNE,22,9.6,9.6,84,0.00,,,0.06,VWS V14.01,2013-05-10 17:30:00,
2013-05-10 12:31:00,48.9,44.3,30.06,NNE,22,6.4,6.4,84,0.00,,,0.06,VWS V14.01,2013-05-10 17:31:00,
2013-05-10 12:32:00,48.9,44.3,30.06,NNE,22,8.5,8.5,84,0.00,,,0.06,VWS V14.01,2013-05-10 17:32:00,
2013-05-10 12:33:00,49.1,44.5,30.07,NNE,22,8.5,8.5,84,0.00,,,0.06,VWS V14.01,2013-05-10 17:33:00,
2013-05-10 12:34:00,49.1,44.5,30.07,NNE,22,8.5,8.5,84,0.00,,,0.06,VWS V14.01,2013-05-10 17:34:00,
2013-05-10 12:35:00,49.1,44.5,30.07,NNE,22,8.5,8.5,84,0.00,,,0.06,VWS V14.01,2013-05-10 17:35:00,
2013-05-10 12:36:00,49.1,44.2,30.07,NNE,22,10.2,10.2,83,0.00,,,0.06,VWS V14.01,2013-05-10 17:36:00,
2013-05-10 12:37:00,49.1,44.5,30.07,NNE,22,11.1,11.1,84,0.00,,,0.06,VWS V14.01,2013-05-10 17:37:00,
2013-05-10 12:38:00,49.1,44.5,30.07,NNE,22,11.1,11.1,84,0.00,,,0.06,VWS V14.01,2013-05-10 17:38:00,
2013-05-10 12:39:00,49.2,44.6,30.07,North,0,10.5,11.1,84,0.00,,,0.06,VWS V14.01,2013-05-10 17:39:00,
2013-05-10 12:40:00,49.2,44.6,30.07,North,0,10.5,10.5,84,0.00,,,0.06,VWS V14.01,2013-05-10 17:40:00,
2013-05-10 12:41:00,49.1,44.5,30.07,NNE,22,8.0,10.5,84,0.00,,,0.06,VWS V14.01,2013-05-10 17:41:00,
2013-05-10 12:42:00,49.1,44.5,30.07,NNE,22,8.0,8.0,84,0.00,,,0.06,VWS V14.01,2013-05-10 17:42:00,
2013-05-10 12:43:00,49.2,44.3,30.06,NE,45,7.3,8.0,83,0.00,,,0.06,VWS V14.01,2013-05-10 17:43:00,
2013-05-10 12:44:00,49.2,44.3,30.06,NE,45,7.3,7.3,83,0.00,,,0.06,VWS V14.01,2013-05-10 17:44:00,
2013-05-10 12:45:00,49.2,44.3,30.06,NE,45,7.3,7.3,83,0.00,,,0.06,VWS V14.01,2013-05-10 17:45:00,
2013-05-10 12:46:00,49.2,44.3,30.07,NNE,22,12.0,12.0,83,0.00,,,0.06,VWS V14.01,2013-05-10 17:46:00,
2013-05-10 12:47:00,49.2,44.3,30.06,NNE,22,12.0,12.0,83,0.00,,,0.06,VWS V14.01,2013-05-10 17:47:00,
2013-05-10 12:48:00,49.2,44.3,30.06,NNE,22,5.1,12.0,83,0.00,,,0.06,VWS V14.01,2013-05-10 17:48:00,
2013-05-10 12:49:00,49.2,44.3,30.06,NNE,22,5.1,5.1,83,0.00,,,0.06,VWS V14.01,2013-05-10 17:49:00,
2013-05-10 12:50:00,49.2,44.3,30.06,NNE,22,5.1,5.1,83,0.00,,,0.06,VWS V14.01,2013-05-10 17:50:00,
2013-05-10 12:51:00,49.2,44.3,30.06,NNE,22,7.1,7.1,83,0.00,,,0.06,VWS V14.01,2013-05-10 17:51:00,
2013-05-10 12:52:00,49.6,44.7,30.06,NNE,22,6.7,7.1,83,0.00,,,0.06,VWS V14.01,2013-05-10 17:52:00,
2013-05-10 12:53:00,49.6,44.7,30.06,NNE,22,6.7,6.7,83,0.00,,,0.06,VWS V14.01,2013-05-10 17:53:00,
2013-05-10 12:54:00,49.8,44.8,30.06,NNE,22,9.8,9.8,83,0.00,,,0.06,VWS V14.01,2013-05-10 17:54:00,
2013-05-10 12:55:00,49.8,44.8,30.06,NNE,22,9.8,9.8,83,0.00,,,0.06,VWS V14.01,2013-05-10 17:55:00,
2013-05-10 12:56:00,50.5,45.2,30.06,NNE,22,10.0,10.0,82,0.00,,,0.06,VWS V14.01,2013-05-10 17:56:00,
2013-05-10 12:57:00,50.5,45.2,30.05,NNE,22,10.0,10.0,82,0.00,,,0.06,VWS V14.01,2013-05-10 17:57:00,
2013-05-10 12:58:00,50.7,45.4,30.06,NNE,22,10.9,10.9,82,0.00,,,0.06,VWS V14.01,2013-05-10 17:58:00,
2013-05-10 12:59:00,50.7,45.4,30.06,NNE,22,10.9,10.9,82,0.00,,,0.06,VWS V14.01,2013-05-10 17:59:00,
2013-05-10 13:00:00,50.7,45.4,30.06,NNE,22,10.9,10.9,82,0.00,,,0.06,VWS V14.01,2013-05-10 18:00:00,
2013-05-10 13:01:00,50.7,45.4,30.06,NNE,22,7.1,7.1,82,0.00,,,0.06,VWS V14.01,2013-05-10 18:01:00,
2013-05-10 13:02:00,50.7,45.4,30.06,NNE,22,7.1,7.1,82,0.00,,,0.06,VWS V14.01,2013-05-10 18:02:00,
2013-05-10 13:03:00,50.7,45.4,30.06,North,0,15.6,15.6,82,0.00,,,0.06,VWS V14.01,2013-05-10 18:03:00,
2013-05-10 13:04:00,50.7,45.4,30.06,North,0,15.6,15.6,82,0.00,,,0.06,VWS V14.01,2013-05-10 18:04:00,
2013-05-10 13:05:00,50.7,45.4,30.06,North,0,15.6,15.6,82,0.00,,,0.06,VWS V14.01,2013-05-10 18:05:00,
2013-05-10 13:06:00,50.3,45.0,30.06,NNE,22,11.1,11.1,82,0.00,,,0.06,VWS V14.01,2013-05-10 18:06:00,
2013-05-10 13:07:00,50.1,44.8,30.06,NNE,22,9.6,11.1,82,0.00,,,0.06,VWS V14.01,2013-05-10 18:07:00,
2013-05-10 13:08:00,50.1,44.8,30.06,NNE,22,9.6,9.6,82,0.00,,,0.06,VWS V14.01,2013-05-10 18:08:00,
2013-05-10 13:09:00,50.1,44.8,30.06,NNE,22,7.8,9.6,82,0.00,,,0.06,VWS V14.01,2013-05-10 18:09:00,
2013-05-10 13:10:00,50.1,44.8,30.06,NNE,22,7.8,7.8,82,0.00,,,0.06,VWS V14.01,2013-05-10 18:10:00,
2013-05-10 13:11:00,50.5,45.2,30.06,North,0,9.8,9.8,82,0.00,,,0.06,VWS V14.01,2013-05-10 18:11:00,
2013-05-10 13:12:00,50.5,45.2,30.05,North,0,9.8,9.8,82,0.00,,,0.06,VWS V14.01,2013-05-10 18:12:00,
2013-05-10 13:13:00,50.7,45.4,30.06,NNE,22,10.5,10.5,82,0.00,,,0.06,VWS V14.01,2013-05-10 18:13:00,
2013-05-10 13:14:00,50.7,45.4,30.05,NNE,22,10.5,10.5,82,0.00,,,0.06,VWS V14.01,2013-05-10 18:14:00,
2013-05-10 13:15:00,50.7,45.4,30.05,NNE,22,10.5,10.5,82,0.00,,,0.06,VWS V14.01,2013-05-10 18:15:00,
2013-05-10 13:16:00,50.5,45.2,30.05,NNE,22,7.6,7.6,82,0.00,,,0.06,VWS V14.01,2013-05-10 18:16:00,
2013-05-10 13:17:00,50.5,45.2,30.06,NNE,22,7.6,7.6,82,0.00,,,0.06,VWS V14.01,2013-05-10 18:17:00,
2013-05-10 13:18:00,50.3,45.0,30.06,North,0,11.1,11.1,82,0.00,,,0.06,VWS V14.01,2013-05-10 18:18:00,
2013-05-10 13:19:00,50.3,45.0,30.06,North,0,11.1,11.1,82,0.00,,,0.06,VWS V14.01,2013-05-10 18:19:00,
2013-05-10 13:20:00,50.3,45.0,30.06,North,0,11.1,11.1,82,0.00,,,0.06,VWS V14.01,2013-05-10 18:20:00,
2013-05-10 13:21:00,50.1,44.8,30.06,North,0,8.0,8.0,82,0.00,,,0.06,VWS V14.01,2013-05-10 18:21:00,
2013-05-10 13:22:00,50.1,44.8,30.06,North,0,9.1,9.1,82,0.00,,,0.06,VWS V14.01,2013-05-10 18:22:00,
2013-05-10 13:23:00,50.1,44.8,30.06,North,0,9.1,9.1,82,0.00,,,0.06,VWS V14.01,2013-05-10 18:23:00,
2013-05-10 13:24:00,49.8,44.8,30.06,NNE,22,10.2,10.2,83,0.00,,,0.06,VWS V14.01,2013-05-10 18:24:00,
2013-05-10 13:25:00,49.8,44.8,30.06,NNE,22,10.2,10.2,83,0.00,,,0.06,VWS V14.01,2013-05-10 18:25:00,
2013-05-10 13:26:00,49.8,44.8,30.06,North,0,6.2,10.2,83,0.00,,,0.06,VWS V14.01,2013-05-10 18:26:00,
2013-05-10 13:27:00,49.8,44.8,30.06,North,0,6.2,6.2,83,0.00,,,0.06,VWS V14.01,2013-05-10 18:27:00,
2013-05-10 13:28:00,50.1,45.2,30.06,ENE,68,7.6,7.6,83,0.00,,,0.06,VWS V14.01,2013-05-10 18:28:00,
2013-05-10 13:29:00,50.1,45.2,30.06,ENE,68,7.6,7.6,83,0.00,,,0.06,VWS V14.01,2013-05-10 18:29:00,
2013-05-10 13:30:00,50.1,45.2,30.06,ENE,68,7.6,7.6,83,0.00,,,0.06,VWS V14.01,2013-05-10 18:30:00,
2013-05-10 13:31:00,49.8,44.8,30.06,NNE,22,10.2,10.2,83,0.00,,,0.06,VWS V14.01,2013-05-10 18:31:00,
2013-05-10 13:32:00,49.8,44.8,30.06,NNE,22,10.2,10.2,83,0.00,,,0.06,VWS V14.01,2013-05-10 18:32:00,
2013-05-10 13:33:00,49.8,44.8,30.06,North,0,5.1,10.2,83,0.00,,,0.06,VWS V14.01,2013-05-10 18:33:00,
2013-05-10 13:34:00,49.8,44.8,30.06,North,0,5.1,5.1,83,0.00,,,0.06,VWS V14.01,2013-05-10 18:34:00,
2013-05-10 13:35:00,49.8,44.8,30.06,North,0,5.1,5.1,83,0.00,,,0.06,VWS V14.01,2013-05-10 18:35:00,
2013-05-10 13:36:00,50.1,45.2,30.06,NNE,22,8.0,8.0,83,0.00,,,0.06,VWS V14.01,2013-05-10 18:36:00,
2013-05-10 13:37:00,50.1,45.2,30.06,NE,45,9.8,9.8,83,0.00,,,0.06,VWS V14.01,2013-05-10 18:37:00,
2013-05-10 13:38:00,50.1,45.2,30.06,NE,45,9.8,9.8,83,0.00,,,0.06,VWS V14.01,2013-05-10 18:38:00,
2013-05-10 13:39:00,50.1,45.2,30.06,NNE,22,6.4,9.8,83,0.00,,,0.06,VWS V14.01,2013-05-10 18:39:00,
2013-05-10 13:40:00,50.1,45.2,30.06,NNE,22,6.4,6.4,83,0.00,,,0.06,VWS V14.01,2013-05-10 18:40:00,
2013-05-10 13:41:00,50.7,45.7,30.06,NNE,22,4.9,6.4,83,0.00,,,0.06,VWS V14.01,2013-05-10 18:41:00,
2013-05-10 13:42:00,50.7,45.7,30.06,NNE,22,4.9,4.9,83,0.00,,,0.06,VWS V14.01,2013-05-10 18:42:00,
2013-05-10 13:43:00,50.9,45.6,30.06,NNE,22,6.4,6.4,82,0.00,,,0.06,VWS V14.01,2013-05-10 18:43:00,
2013-05-10 13:44:00,50.9,45.6,30.06,NNE,22,6.4,6.4,82,0.00,,,0.06,VWS V14.01,2013-05-10 18:44:00,
2013-05-10 13:45:00,50.9,45.6,30.06,NNE,22,6.4,6.4,82,0.00,,,0.06,VWS V14.01,2013-05-10 18:45:00,
2013-05-10 13:46:00,50.7,45.4,30.06,NNE,22,8.7,8.7,82,0.00,,,0.06,VWS V14.01,2013-05-10 18:46:00,
2013-05-10 13:47:00,50.7,45.4,30.06,NNE,22,8.7,8.7,82,0.00,,,0.06,VWS V14.01,2013-05-10 18:47:00,
2013-05-10 13:48:00,51.0,45.7,30.05,North,0,10.9,10.9,82,0.00,,,0.06,VWS V14.01,2013-05-10 18:48:00,
2013-05-10 13:49:00,51.0,45.7,30.05,North,0,10.9,10.9,82,0.00,,,0.06,VWS V14.01,2013-05-10 18:49:00,
2013-05-10 13:50:00,51.0,45.7,30.05,North,0,10.9,10.9,82,0.00,,,0.06,VWS V14.01,2013-05-10 18:50:00,
2013-05-10 13:51:00,51.4,46.1,30.06,NE,45,10.2,10.2,82,0.00,,,0.06,VWS V14.01,2013-05-10 18:51:00,
2013-05-10 13:52:00,51.4,46.1,30.05,NNE,22,7.3,10.2,82,0.00,,,0.06,VWS V14.01,2013-05-10 18:52:00,
2013-05-10 13:53:00,51.4,46.1,30.06,NNE,22,7.3,7.3,82,0.00,,,0.06,VWS V14.01,2013-05-10 18:53:00,
2013-05-10 13:54:00,51.4,46.1,30.05,NNE,22,10.0,10.0,82,0.00,,,0.06,VWS V14.01,2013-05-10 18:54:00,
2013-05-10 13:55:00,51.4,46.1,30.05,NNE,22,10.0,10.0,82,0.00,,,0.06,VWS V14.01,2013-05-10 18:55:00,
2013-05-10 13:56:00,51.4,45.8,30.05,North,0,7.8,10.0,81,0.00,,,0.06,VWS V14.01,2013-05-10 18:56:00,
2013-05-10 13:57:00,51.4,45.8,30.05,North,0,7.8,7.8,81,0.00,,,0.06,VWS V14.01,2013-05-10 18:57:00,
2013-05-10 13:58:00,51.6,46.0,30.05,NNE,22,7.6,7.8,81,0.00,,,0.06,VWS V14.01,2013-05-10 18:58:00,
2013-05-10 13:59:00,51.6,46.0,30.05,NNE,22,7.6,7.6,81,0.00,,,0.06,VWS V14.01,2013-05-10 18:59:00,
2013-05-10 14:00:00,51.6,46.0,30.05,NNE,22,7.6,7.6,81,0.00,,,0.06,VWS V14.01,2013-05-10 19:00:00,
2013-05-10 14:01:00,51.6,46.0,30.05,NNE,22,8.0,8.0,81,0.00,,,0.06,VWS V14.01,2013-05-10 19:01:00,
2013-05-10 14:02:00,51.6,46.0,30.05,NNE,22,8.0,8.0,81,0.00,,,0.06,VWS V14.01,2013-05-10 19:02:00,
2013-05-10 14:03:00,51.8,46.2,30.05,NNE,22,6.4,8.0,81,0.00,,,0.06,VWS V14.01,2013-05-10 19:03:00,
2013-05-10 14:04:00,51.8,46.2,30.06,NNE,22,6.4,6.4,81,0.00,,,0.06,VWS V14.01,2013-05-10 19:04:00,
2013-05-10 14:05:00,51.8,46.2,30.06,NNE,22,6.4,6.4,81,0.00,,,0.06,VWS V14.01,2013-05-10 19:05:00,
2013-05-10 14:06:00,51.9,46.3,30.05,NNE,22,6.7,6.7,81,0.00,,,0.06,VWS V14.01,2013-05-10 19:06:00,
2013-05-10 14:07:00,51.8,46.2,30.05,NNE,22,10.7,10.7,81,0.00,,,0.06,VWS V14.01,2013-05-10 19:07:00,
2013-05-10 14:08:00,51.8,46.2,30.05,NNE,22,10.7,10.7,81,0.00,,,0.06,VWS V14.01,2013-05-10 19:08:00,
2013-05-10 14:09:00,51.6,46.3,30.05,NNE,22,8.7,10.7,82,0.00,,,0.06,VWS V14.01,2013-05-10 19:09:00,
2013-05-10 14:10:00,51.6,46.3,30.05,NNE,22,8.7,8.7,82,0.00,,,0.06,VWS V14.01,2013-05-10 19:10:00,
2013-05-10 14:11:00,51.6,46.3,30.05,North,0,10.9,10.9,82,0.00,,,0.06,VWS V14.01,2013-05-10 19:11:00,
2013-05-10 14:12:00,51.6,46.3,30.05,North,0,10.9,10.9,82,0.00,,,0.06,VWS V14.01,2013-05-10 19:12:00,
2013-05-10 14:13:00,51.4,45.8,30.05,NNE,22,11.6,11.6,81,0.00,,,0.06,VWS V14.01,2013-05-10 19:13:00,
2013-05-10 14:14:00,51.4,45.8,30.05,NNE,22,11.6,11.6,81,0.00,,,0.06,VWS V14.01,2013-05-10 19:14:00,
2013-05-10 14:15:00,51.4,45.8,30.05,NNE,22,11.6,11.6,81,0.00,,,0.06,VWS V14.01,2013-05-10 19:15:00,
2013-05-10 14:16:00,51.2,45.6,30.05,NNE,22,8.2,11.6,81,0.00,,,0.06,VWS V14.01,2013-05-10 19:16:00,
2013-05-10 14:17:00,51.2,45.6,30.05,NNE,22,8.2,8.2,81,0.00,,,0.06,VWS V14.01,2013-05-10 19:17:00,
2013-05-10 14:18:00,51.2,45.9,30.05,NNE,22,19.0,19.0,82,0.00,,,0.06,VWS V14.01,2013-05-10 19:18:00,
2013-05-10 14:19:00,51.2,45.9,30.05,NNE,22,19.0,19.0,82,0.00,,,0.06,VWS V14.01,2013-05-10 19:19:00,
2013-05-10 14:20:00,51.2,45.9,30.05,NNE,22,19.0,19.0,82,0.00,,,0.06,VWS V14.01,2013-05-10 19:20:00,
2013-05-10 14:21:00,51.2,45.9,30.05,North,0,8.7,8.7,82,0.00,,,0.06,VWS V14.01,2013-05-10 19:21:00,
2013-05-10 14:22:00,51.6,46.3,30.05,North,0,8.2,8.7,82,0.00,,,0.06,VWS V14.01,2013-05-10 19:22:00,
2013-05-10 14:23:00,51.6,46.3,30.05,North,0,8.2,8.2,82,0.00,,,0.06,VWS V14.01,2013-05-10 19:23:00,
2013-05-10 14:24:00,51.9,46.6,30.05,North,0,10.5,10.5,82,0.00,,,0.06,VWS V14.01,2013-05-10 19:24:00,
2013-05-10 14:25:00,51.9,46.6,30.05,North,0,10.5,10.5,82,0.00,,,0.06,VWS V14.01,2013-05-10 19:25:00,
2013-05-10 14:26:00,52.5,46.8,30.06,NNE,22,10.2,10.5,81,0.00,,,0.06,VWS V14.01,2013-05-10 19:26:00,
2013-05-10 14:27:00,52.5,46.8,30.06,NNE,22,10.2,10.2,81,0.00,,,0.06,VWS V14.01,2013-05-10 19:27:00,
2013-05-10 14:28:00,52.5,46.8,30.06,NNE,22,6.4,10.2,81,0.00,,,0.06,VWS V14.01,2013-05-10 19:28:00,
2013-05-10 14:29:00,52.8,47.1,30.06,NNE,22,6.4,6.4,81,0.00,,,0.06,VWS V14.01,2013-05-10 19:29:00,
2013-05-10 14:30:00,52.8,47.1,30.06,NNE,22,6.4,6.4,81,0.00,,,0.06,VWS V14.01,2013-05-10 19:30:00,
2013-05-10 14:31:00,52.8,46.8,30.05,NNE,22,9.3,9.3,80,0.00,,,0.06,VWS V14.01,2013-05-10 19:31:00,
2013-05-10 14:32:00,52.8,46.8,30.05,NNE,22,9.3,9.3,80,0.00,,,0.06,VWS V14.01,2013-05-10 19:32:00,
2013-05-10 14:33:00,52.7,46.7,30.05,NNE,22,12.0,12.0,80,0.00,,,0.06,VWS V14.01,2013-05-10 19:33:00,
2013-05-10 14:34:00,52.7,46.7,30.05,NNE,22,12.0,12.0,80,0.00,,,0.06,VWS V14.01,2013-05-10 19:34:00,
2013-05-10 14:35:00,52.7,46.7,30.05,NNE,22,12.0,12.0,80,0.00,,,0.06,VWS V14.01,2013-05-10 19:35:00,
2013-05-10 14:36:00,52.5,46.5,30.05,North,0,16.3,16.3,80,0.00,,,0.06,VWS V14.01,2013-05-10 19:36:00,
2013-05-10 14:37:00,52.5,46.5,30.05,NE,45,11.6,16.3,80,0.00,,,0.06,VWS V14.01,2013-05-10 19:37:00,
2013-05-10 14:38:00,52.5,46.5,30.05,NE,45,11.6,11.6,80,0.00,,,0.06,VWS V14.01,2013-05-10 19:38:00,
2013-05-10 14:39:00,52.5,46.5,30.05,NNE,22,8.9,11.6,80,0.00,,,0.06,VWS V14.01,2013-05-10 19:39:00,
2013-05-10 14:40:00,52.5,46.5,30.05,NNE,22,8.9,8.9,80,0.00,,,0.06,VWS V14.01,2013-05-10 19:40:00,
2013-05-10 14:41:00,52.5,46.5,30.06,NNE,22,10.5,10.5,80,0.00,,,0.06,VWS V14.01,2013-05-10 19:41:00,
2013-05-10 14:42:00,52.5,46.5,30.06,NNE,22,10.5,10.5,80,0.00,,,0.06,VWS V14.01,2013-05-10 19:42:00,
2013-05-10 14:43:00,52.5,46.5,30.05,North,0,9.3,10.5,80,0.00,,,0.06,VWS V14.01,2013-05-10 19:43:00,
2013-05-10 14:44:00,52.5,46.5,30.05,North,0,9.3,9.3,80,0.00,,,0.06,VWS V14.01,2013-05-10 19:44:00,
2013-05-10 14:45:00,52.5,46.5,30.05,North,0,9.3,9.3,80,0.00,,,0.06,VWS V14.01,2013-05-10 19:45:00,
2013-05-10 14:46:00,52.5,46.8,30.06,NNE,22,10.5,10.5,81,0.00,,,0.06,VWS V14.01,2013-05-10 19:46:00,
2013-05-10 14:47:00,52.5,46.8,30.06,NNE,22,10.5,10.5,81,0.00,,,0.06,VWS V14.01,2013-05-10 19:47:00,
2013-05-10 14:48:00,52.3,46.7,30.06,NNE,22,13.1,13.1,81,0.00,,,0.06,VWS V14.01,2013-05-10 19:48:00,
2013-05-10 14:49:00,52.3,46.7,30.06,NNE,22,13.1,13.1,81,0.00,,,0.06,VWS V14.01,2013-05-10 19:49:00,
2013-05-10 14:50:00,52.3,46.7,30.06,NNE,22,13.1,13.1,81,0.00,,,0.06,VWS V14.01,2013-05-10 19:50:00,
2013-05-10 14:51:00,52.3,46.7,30.06,North,0,12.7,12.7,81,0.00,,,0.06,VWS V14.01,2013-05-10 19:51:00,
2013-05-10 14:52:00,52.3,46.7,30.06,North,0,9.3,12.7,81,0.00,,,0.06,VWS V14.01,2013-05-10 19:52:00,
2013-05-10 14:53:00,52.3,46.7,30.06,North,0,9.3,9.3,81,0.00,,,0.06,VWS V14.01,2013-05-10 19:53:00,
2013-05-10 14:54:00,52.7,47.0,30.06,NNE,22,12.3,12.3,81,0.00,,,0.06,VWS V14.01,2013-05-10 19:54:00,
2013-05-10 14:55:00,52.7,47.0,30.06,NNE,22,12.3,12.3,81,0.00,,,0.06,VWS V14.01,2013-05-10 19:55:00,
2013-05-10 14:56:00,52.5,46.5,30.06,NNE,22,7.6,12.3,80,0.00,,,0.06,VWS V14.01,2013-05-10 19:56:00,
2013-05-10 14:57:00,52.5,46.5,30.06,NNE,22,7.6,7.6,80,0.00,,,0.06,VWS V14.01,2013-05-10 19:57:00,
2013-05-10 14:58:00,52.7,46.7,30.05,NNE,22,11.4,11.4,80,0.00,,,0.06,VWS V14.01,2013-05-10 19:58:00,
2013-05-10 14:59:00,52.7,46.7,30.05,NNE,22,11.4,11.4,80,0.00,,,0.06,VWS V14.01,2013-05-10 19:59:00,
2013-05-10 15:00:00,52.7,46.7,30.05,NNE,22,11.4,11.4,80,0.00,,,0.06,VWS V14.01,2013-05-10 20:00:00,
2013-05-10 15:01:00,52.5,46.5,30.06,NNE,22,11.6,11.6,80,0.00,,,0.06,VWS V14.01,2013-05-10 20:01:00,
2013-05-10 15:02:00,52.5,46.5,30.06,NNE,22,11.6,11.6,80,0.00,,,0.06,VWS V14.01,2013-05-10 20:02:00,
2013-05-10 15:03:00,52.7,46.7,30.05,North,0,11.8,11.8,80,0.00,,,0.06,VWS V14.01,2013-05-10 20:03:00,
2013-05-10 15:04:00,52.7,46.7,30.06,North,0,11.8,11.8,80,0.00,,,0.06,VWS V14.01,2013-05-10 20:04:00,
2013-05-10 15:05:00,52.7,46.7,30.06,North,0,11.8,11.8,80,0.00,,,0.06,VWS V14.01,2013-05-10 20:05:00,
2013-05-10 15:06:00,52.8,46.8,30.06,NNE,22,9.3,9.3,80,0.00,,,0.06,VWS V14.01,2013-05-10 20:06:00,
2013-05-10 15:07:00,52.8,46.8,30.06,NNE,22,10.9,10.9,80,0.00,,,0.06,VWS V14.01,2013-05-10 20:07:00,
2013-05-10 15:08:00,52.8,46.8,30.06,NNE,22,10.9,10.9,80,0.00,,,0.06,VWS V14.01,2013-05-10 20:08:00,
2013-05-10 15:09:00,53.2,47.2,30.06,NNE,22,8.2,10.9,80,0.00,,,0.06,VWS V14.01,2013-05-10 20:09:00,
2013-05-10 15:10:00,53.2,47.2,30.06,NNE,22,8.2,8.2,80,0.00,,,0.06,VWS V14.01,2013-05-10 20:10:00,
2013-05-10 15:11:00,53.4,47.1,30.05,NNE,22,10.2,10.2,79,0.00,,,0.06,VWS V14.01,2013-05-10 20:11:00,
2013-05-10 15:12:00,53.4,47.1,30.05,NNE,22,10.2,10.2,79,0.00,,,0.06,VWS V14.01,2013-05-10 20:12:00,
2013-05-10 15:13:00,53.2,46.9,30.05,NNE,22,8.9,10.2,79,0.00,,,0.06,VWS V14.01,2013-05-10 20:13:00,
2013-05-10 15:14:00,53.2,46.9,30.05,NNE,22,8.9,8.9,79,0.00,,,0.06,VWS V14.01,2013-05-10 20:14:00,
2013-05-10 15:15:00,53.2,46.9,30.05,NNE,22,8.9,8.9,79,0.00,,,0.06,VWS V14.01,2013-05-10 20:15:00,
2013-05-10 15:16:00,53.4,47.1,30.06,NNE,22,13.8,13.8,79,0.00,,,0.06,VWS V14.01,2013-05-10 20:16:00,
2013-05-10 15:17:00,53.4,47.1,30.06,NNE,22,13.8,13.8,79,0.00,,,0.06,VWS V14.01,2013-05-10 20:17:00,
2013-05-10 15:18:00,53.7,47.3,30.06,NNE,22,7.6,13.8,79,0.00,,,0.06,VWS V14.01,2013-05-10 20:18:00,
2013-05-10 15:19:00,53.7,47.3,30.06,NNE,22,7.6,7.6,79,0.00,,,0.06,VWS V14.01,2013-05-10 20:19:00,
2013-05-10 15:20:00,53.7,47.3,30.06,NNE,22,7.6,7.6,79,0.00,,,0.06,VWS V14.01,2013-05-10 20:20:00,
2013-05-10 15:21:00,53.7,47.0,30.05,North,0,6.7,6.7,78,0.00,,,0.06,VWS V14.01,2013-05-10 20:21:00,
2013-05-10 15:22:00,53.7,47.3,30.05,North,0,8.0,8.0,79,0.00,,,0.06,VWS V14.01,2013-05-10 20:22:00,
2013-05-10 15:23:00,53.7,47.3,30.05,North,0,8.0,8.0,79,0.00,,,0.06,VWS V14.01,2013-05-10 20:23:00,
2013-05-10 15:24:00,53.9,47.2,30.05,North,0,11.8,11.8,78,0.00,,,0.06,VWS V14.01,2013-05-10 20:24:00,
2013-05-10 15:25:00,53.9,47.2,30.05,North,0,11.8,11.8,78,0.00,,,0.06,VWS V14.01,2013-05-10 20:25:00,
2013-05-10 15:26:00,54.1,47.7,30.05,North,0,4.9,11.8,79,0.00,,,0.06,VWS V14.01,2013-05-10 20:26:00,
2013-05-10 15:27:00,54.1,47.7,30.05,North,0,4.9,4.9,79,0.00,,,0.06,VWS V14.01,2013-05-10 20:27:00,
2013-05-10 15:28:00,54.5,48.1,30.05,NNE,22,11.4,11.4,79,0.00,,,0.06,VWS V14.01,2013-05-10 20:28:00,
2013-05-10 15:29:00,54.5,48.1,30.05,NNE,22,11.4,11.4,79,0.00,,,0.06,VWS V14.01,2013-05-10 20:29:00,
2013-05-10 15:30:00,54.5,48.1,30.05,NNE,22,11.4,11.4,79,0.00,,,0.06,VWS V14.01,2013-05-10 20:30:00,
2013-05-10 15:31:00,54.3,47.6,30.05,NNE,22,7.3,7.3,78,0.00,,,0.06,VWS V14.01,2013-05-10 20:31:00,
2013-05-10 15:32:00,54.3,47.6,30.05,NNE,22,7.3,7.3,78,0.00,,,0.06,VWS V14.01,2013-05-10 20:32:00,
2013-05-10 15:33:00,55.2,48.8,30.05,NNE,22,13.6,13.6,79,0.00,,,0.06,VWS V14.01,2013-05-10 20:33:00,
2013-05-10 15:34:00,55.2,48.8,30.05,NNE,22,13.6,13.6,79,0.00,,,0.06,VWS V14.01,2013-05-10 20:34:00,
2013-05-10 15:35:00,55.2,48.8,30.05,NNE,22,13.6,13.6,79,0.00,,,0.06,VWS V14.01,2013-05-10 20:35:00,
2013-05-10 15:36:00,55.2,48.1,30.05,North,0,7.8,7.8,77,0.00,,,0.06,VWS V14.01,2013-05-10 20:36:00,
2013-05-10 15:37:00,54.8,47.7,30.05,NNE,22,6.2,7.8,77,0.00,,,0.06,VWS V14.01,2013-05-10 20:37:00,
2013-05-10 15:38:00,54.8,47.7,30.05,NNE,22,6.2,6.2,77,0.00,,,0.06,VWS V14.01,2013-05-10 20:38:00,
2013-05-10 15:39:00,54.5,47.5,30.05,NNE,22,7.1,7.1,77,0.00,,,0.06,VWS V14.01,2013-05-10 20:39:00,
2013-05-10 15:40:00,54.5,47.5,30.05,NNE,22,7.1,7.1,77,0.00,,,0.06,VWS V14.01,2013-05-10 20:40:00,
2013-05-10 15:41:00,54.6,47.9,30.05,NNE,22,7.8,7.8,78,0.00,,,0.06,VWS V14.01,2013-05-10 20:41:00,
2013-05-10 15:42:00,54.6,47.9,30.05,NNE,22,7.8,7.8,78,0.00,,,0.06,VWS V14.01,2013-05-10 20:42:00,
2013-05-10 15:43:00,54.6,47.5,30.05,NNE,22,9.1,9.1,77,0.00,,,0.06,VWS V14.01,2013-05-10 20:43:00,
2013-05-10 15:44:00,54.6,47.5,30.05,NNE,22,9.1,9.1,77,0.00,,,0.06,VWS V14.01,2013-05-10 20:44:00,
2013-05-10 15:45:00,54.6,47.5,30.05,NNE,22,9.1,9.1,77,0.00,,,0.06,VWS V14.01,2013-05-10 20:45:00,
2013-05-10 15:46:00,54.5,47.5,30.05,North,0,6.9,6.9,77,0.00,,,0.06,VWS V14.01,2013-05-10 20:46:00,
2013-05-10 15:47:00,54.5,47.5,30.05,North,0,6.9,6.9,77,0.00,,,0.06,VWS V14.01,2013-05-10 20:47:00,
2013-05-10 15:48:00,54.3,47.6,30.05,NNE,22,11.4,11.4,78,0.00,,,0.06,VWS V14.01,2013-05-10 20:48:00,
2013-05-10 15:49:00,54.3,47.6,30.05,NNE,22,11.4,11.4,78,0.00,,,0.06,VWS V14.01,2013-05-10 20:49:00,
2013-05-10 15:50:00,54.3,47.6,30.05,NNE,22,11.4,11.4,78,0.00,,,0.06,VWS V14.01,2013-05-10 20:50:00,
2013-05-10 15:51:00,54.3,47.2,30.05,NNE,22,12.3,12.3,77,0.00,,,0.06,VWS V14.01,2013-05-10 20:51:00,
2013-05-10 15:52:00,54.3,47.6,30.05,NE,45,7.1,12.3,78,0.00,,,0.06,VWS V14.01,2013-05-10 20:52:00,
2013-05-10 15:53:00,54.3,47.6,30.05,NE,45,7.1,7.1,78,0.00,,,0.06,VWS V14.01,2013-05-10 20:53:00,
2013-05-10 15:54:00,54.3,47.6,30.06,NE,45,6.9,7.1,78,0.00,,,0.06,VWS V14.01,2013-05-10 20:54:00,
2013-05-10 15:55:00,54.3,47.6,30.06,NE,45,6.9,6.9,78,0.00,,,0.06,VWS V14.01,2013-05-10 20:55:00,
2013-05-10 15:56:00,54.5,47.8,30.05,NE,45,6.9,6.9,78,0.00,,,0.06,VWS V14.01,2013-05-10 20:56:00,
2013-05-10 15:57:00,54.5,47.8,30.06,NE,45,6.9,6.9,78,0.00,,,0.06,VWS V14.01,2013-05-10 20:57:00,
2013-05-10 15:58:00,54.6,47.9,30.05,NNE,22,4.9,6.9,78,0.00,,,0.06,VWS V14.01,2013-05-10 20:58:00,
2013-05-10 15:59:00,54.6,47.5,30.05,NNE,22,4.9,4.9,77,0.00,,,0.06,VWS V14.01,2013-05-10 20:59:00,
2013-05-10 16:00:00,54.6,47.5,30.05,NNE,22,4.9,4.9,77,0.00,,,0.06,VWS V14.01,2013-05-10 21:00:00,
2013-05-10 16:01:00,55.0,47.9,30.06,NE,45,7.3,7.3,77,0.00,,,0.06,VWS V14.01,2013-05-10 21:01:00,
2013-05-10 16:02:00,55.0,47.9,30.06,NE,45,7.3,7.3,77,0.00,,,0.06,VWS V14.01,2013-05-10 21:02:00,
2013-05-10 16:03:00,55.2,48.1,30.05,North,0,5.5,7.3,77,0.00,,,0.06,VWS V14.01,2013-05-10 21:03:00,
2013-05-10 16:04:00,55.2,48.1,30.06,North,0,5.5,5.5,77,0.00,,,0.06,VWS V14.01,2013-05-10 21:04:00,
2013-05-10 16:05:00,55.2,48.1,30.06,North,0,5.5,5.5,77,0.00,,,0.06,VWS V14.01,2013-05-10 21:05:00,
2013-05-10 16:06:00,55.2,48.1,30.05,NNE,22,7.3,7.3,77,0.00,,,0.06,VWS V14.01,2013-05-10 21:06:00,
2013-05-10 16:07:00,55.0,47.9,30.05,NE,45,10.5,10.5,77,0.00,,,0.06,VWS V14.01,2013-05-10 21:07:00,
2013-05-10 16:08:00,55.0,47.9,30.05,NE,45,10.5,10.5,77,0.00,,,0.06,VWS V14.01,2013-05-10 21:08:00,
2013-05-10 16:09:00,54.6,47.5,30.05,North,0,6.9,10.5,77,0.00,,,0.06,VWS V14.01,2013-05-10 21:09:00,
2013-05-10 16:10:00,54.6,47.5,30.05,North,0,6.9,6.9,77,0.00,,,0.06,VWS V14.01,2013-05-10 21:10:00,
2013-05-10 16:11:00,54.6,47.5,30.05,NNE,22,8.0,8.0,77,0.00,,,0.06,VWS V14.01,2013-05-10 21:11:00,
2013-05-10 16:12:00,54.6,47.5,30.05,NNE,22,8.0,8.0,77,0.00,,,0.06,VWS V14.01,2013-05-10 21:12:00,
2013-05-10 16:13:00,54.3,47.2,30.05,NNE,22,7.6,8.0,77,0.00,,,0.06,VWS V14.01,2013-05-10 21:13:00,
2013-05-10 16:14:00,54.3,47.2,30.05,NNE,22,7.6,7.6,77,0.00,,,0.06,VWS V14.01,2013-05-10 21:14:00,
2013-05-10 16:15:00,54.3,47.2,30.05,NNE,22,7.6,7.6,77,0.00,,,0.06,VWS V14.01,2013-05-10 21:15:00,
2013-05-10 16:16:00,54.5,47.5,30.05,NE,45,4.2,4.2,77,0.00,,,0.06,VWS V14.01,2013-05-10 21:16:00,
2013-05-10 16:17:00,54.5,47.5,30.05,NE,45,4.2,4.2,77,0.00,,,0.06,VWS V14.01,2013-05-10 21:17:00,
2013-05-10 16:18:00,54.5,47.5,30.05,NNE,22,5.8,5.8,77,0.00,,,0.06,VWS V14.01,2013-05-10 21:18:00,
2013-05-10 16:19:00,54.5,47.5,30.05,NNE,22,5.8,5.8,77,0.00,,,0.06,VWS V14.01,2013-05-10 21:19:00,
2013-05-10 16:20:00,54.5,47.5,30.05,NNE,22,5.8,5.8,77,0.00,,,0.06,VWS V14.01,2013-05-10 21:20:00,
2013-05-10 16:21:00,54.8,48.1,30.05,NNE,22,6.4,6.4,78,0.00,,,0.06,VWS V14.01,2013-05-10 21:21:00,
2013-05-10 16:22:00,55.0,48.3,30.05,NNE,22,8.7,8.7,78,0.00,,,0.06,VWS V14.01,2013-05-10 21:22:00,
2013-05-10 16:23:00,55.0,48.3,30.05,NNE,22,8.7,8.7,78,0.00,,,0.06,VWS V14.01,2013-05-10 21:23:00,
2013-05-10 16:24:00,55.0,48.3,30.05,NNE,22,6.9,8.7,78,0.00,,,0.06,VWS V14.01,2013-05-10 21:24:00,
2013-05-10 16:25:00,55.0,48.3,30.05,NNE,22,6.9,6.9,78,0.00,,,0.06,VWS V14.01,2013-05-10 21:25:00,
2013-05-10 16:26:00,55.2,48.5,30.05,NE,45,8.5,8.5,78,0.00,,,0.06,VWS V14.01,2013-05-10 21:26:00,
2013-05-10 16:27:00,55.2,48.5,30.05,NE,45,8.5,8.5,78,0.00,,,0.06,VWS V14.01,2013-05-10 21:27:00,
2013-05-10 16:28:00,55.2,48.1,30.05,NNE,22,6.9,8.5,77,0.00,,,0.06,VWS V14.01,2013-05-10 21:28:00,
2013-05-10 16:29:00,55.2,48.1,30.05,NNE,22,6.9,6.9,77,0.00,,,0.06,VWS V14.01,2013-05-10 21:29:00,
2013-05-10 16:30:00,55.2,48.1,30.05,NNE,22,6.9,6.9,77,0.00,,,0.06,VWS V14.01,2013-05-10 21:30:00,
2013-05-10 16:31:00,55.0,47.9,30.05,NNE,22,4.4,4.4,77,0.00,,,0.06,VWS V14.01,2013-05-10 21:31:00,
2013-05-10 16:32:00,55.0,47.9,30.05,NNE,22,4.4,4.4,77,0.00,,,0.06,VWS V14.01,2013-05-10 21:32:00,
2013-05-10 16:33:00,55.2,48.5,30.05,NNE,22,11.6,11.6,78,0.00,,,0.06,VWS V14.01,2013-05-10 21:33:00,
2013-05-10 16:34:00,55.2,48.5,30.05,NNE,22,11.6,11.6,78,0.00,,,0.06,VWS V14.01,2013-05-10 21:34:00,
2013-05-10 16:35:00,55.2,48.5,30.05,NNE,22,11.6,11.6,78,0.00,,,0.06,VWS V14.01,2013-05-10 21:35:00,
2013-05-10 16:36:00,55.0,47.9,30.05,NNE,22,7.1,7.1,77,0.00,,,0.06,VWS V14.01,2013-05-10 21:36:00,
2013-05-10 16:37:00,54.6,47.9,30.05,NNE,22,6.4,7.1,78,0.00,,,0.06,VWS V14.01,2013-05-10 21:37:00,
2013-05-10 16:38:00,54.6,47.9,30.05,NNE,22,6.4,6.4,78,0.00,,,0.06,VWS V14.01,2013-05-10 21:38:00,
2013-05-10 16:39:00,54.6,47.9,30.05,NNE,22,7.3,7.3,78,0.00,,,0.06,VWS V14.01,2013-05-10 21:39:00,
2013-05-10 16:40:00,54.6,47.9,30.05,NNE,22,7.3,7.3,78,0.00,,,0.06,VWS V14.01,2013-05-10 21:40:00,
2013-05-10 16:41:00,54.5,47.8,30.05,NNE,22,6.9,7.3,78,0.00,,,0.06,VWS V14.01,2013-05-10 21:41:00,
2013-05-10 16:42:00,54.5,47.8,30.05,NNE,22,6.9,6.9,78,0.00,,,0.06,VWS V14.01,2013-05-10 21:42:00,
2013-05-10 16:43:00,54.5,47.8,30.05,NNE,22,7.8,7.8,78,0.00,,,0.06,VWS V14.01,2013-05-10 21:43:00,
2013-05-10 16:44:00,54.5,47.8,30.05,NNE,22,7.8,7.8,78,0.00,,,0.06,VWS V14.01,2013-05-10 21:44:00,
2013-05-10 16:45:00,54.5,47.8,30.05,NNE,22,7.8,7.8,78,0.00,,,0.00,VWS V14.01,2013-05-10 21:45:00,
2013-05-10 16:46:00,54.6,47.9,30.05,North,0,9.3,9.3,78,0.00,,,0.06,VWS V14.01,2013-05-10 21:46:00,
2013-05-10 16:47:00,54.6,47.9,30.05,North,0,9.3,9.3,78,0.00,,,0.06,VWS V14.01,2013-05-10 21:47:00,
2013-05-10 16:48:00,54.5,47.8,30.05,North,0,7.8,9.3,78,0.00,,,0.06,VWS V14.01,2013-05-10 21:48:00,
2013-05-10 16:49:00,54.5,47.8,30.05,North,0,7.8,7.8,78,0.00,,,0.06,VWS V14.01,2013-05-10 21:49:00,
2013-05-10 16:50:00,54.5,47.8,30.05,North,0,7.8,7.8,78,0.00,,,0.06,VWS V14.01,2013-05-10 21:50:00,
2013-05-10 16:51:00,54.6,47.9,30.05,NNE,22,8.2,8.2,78,0.00,,,0.06,VWS V14.01,2013-05-10 21:51:00,
2013-05-10 16:52:00,54.6,47.9,30.05,NNE,22,6.4,8.2,78,0.00,,,0.06,VWS V14.01,2013-05-10 21:52:00,
2013-05-10 16:53:00,54.6,47.9,30.05,NNE,22,6.4,6.4,78,0.00,,,0.06,VWS V14.01,2013-05-10 21:53:00,
2013-05-10 16:54:00,54.6,47.9,30.05,NNE,22,7.3,7.3,78,0.00,,,0.06,VWS V14.01,2013-05-10 21:54:00,
2013-05-10 16:55:00,54.6,47.9,30.05,NNE,22,7.3,7.3,78,0.00,,,0.06,VWS V14.01,2013-05-10 21:55:00,
2013-05-10 16:56:00,54.8,48.1,30.05,North,0,5.8,7.3,78,0.00,,,0.06,VWS V14.01,2013-05-10 21:56:00,
2013-05-10 16:57:00,54.8,48.1,30.05,North,0,5.8,5.8,78,0.00,,,0.06,VWS V14.01,2013-05-10 21:57:00,
2013-05-10 16:58:00,54.8,48.1,30.05,North,0,5.8,5.8,78,0.00,,,0.06,VWS V14.01,2013-05-10 21:58:00,
2013-05-10 16:59:00,54.8,48.1,30.05,North,0,7.1,7.1,78,0.00,,,0.06,VWS V14.01,2013-05-10 21:59:00,
2013-05-10 17:00:00,54.8,48.1,30.05,NNE,22,8.0,8.0,78,0.00,,,0.06,VWS V14.01,2013-05-10 22:00:00,
2013-05-10 17:01:00,54.8,48.1,30.06,NNE,22,8.0,8.0,78,0.00,,,0.06,VWS V14.01,2013-05-10 22:01:00,
2013-05-10 17:02:00,54.8,48.1,30.06,NNE,22,8.0,8.0,78,0.00,,,0.06,VWS V14.01,2013-05-10 22:02:00,
2013-05-10 17:03:00,55.0,48.3,30.06,North,0,6.2,6.2,78,0.00,,,0.06,VWS V14.01,2013-05-10 22:03:00,
2013-05-10 17:04:00,55.0,48.3,30.05,North,0,6.2,6.2,78,0.00,,,0.06,VWS V14.01,2013-05-10 22:04:00,
2013-05-10 17:05:00,54.8,47.7,30.05,NNE,22,5.8,6.2,77,0.00,,,0.06,VWS V14.01,2013-05-10 22:05:00,
2013-05-10 17:07:00,54.6,47.5,30.05,NNE,22,4.4,5.8,77,0.00,,,0.06,VWS V14.01,2013-05-10 22:07:00,
2013-05-10 17:08:00,54.6,47.5,30.05,NNE,22,4.4,4.4,77,0.00,,,0.06,VWS V14.01,2013-05-10 22:08:00,
2013-05-10 17:09:00,55.0,48.3,30.05,NNE,22,6.0,6.0,78,0.00,,,0.06,VWS V14.01,2013-05-10 22:09:00,
2013-05-10 17:10:00,55.0,48.3,30.05,NNE,22,6.0,6.0,78,0.00,,,0.06,VWS V14.01,2013-05-10 22:10:00,
2013-05-10 17:11:00,55.0,48.3,30.06,North,0,6.7,6.7,78,0.00,,,0.06,VWS V14.01,2013-05-10 22:11:00,
2013-05-10 17:12:00,55.0,48.3,30.06,North,0,6.7,6.7,78,0.00,,,0.06,VWS V14.01,2013-05-10 22:12:00,
2013-05-10 17:13:00,55.0,48.3,30.05,NNE,22,7.8,7.8,78,0.00,,,0.06,VWS V14.01,2013-05-10 22:13:00,
2013-05-10 17:14:00,55.0,48.3,30.05,NNE,22,7.8,7.8,78,0.00,,,0.06,VWS V14.01,2013-05-10 22:14:00,
2013-05-10 17:15:00,55.0,48.3,30.06,NNE,22,5.5,7.8,78,0.00,,,0.06,VWS V14.01,2013-05-10 22:15:00,
2013-05-10 17:16:00,55.0,48.3,30.05,NNE,22,5.5,5.5,78,0.00,,,0.06,VWS V14.01,2013-05-10 22:16:00,
2013-05-10 17:17:00,55.0,48.3,30.05,NNE,22,5.8,5.8,78,0.00,,,0.06,VWS V14.01,2013-05-10 22:17:00,
2013-05-10 17:18:00,55.0,47.9,30.05,NNE,22,5.8,5.8,77,0.00,,,0.06,VWS V14.01,2013-05-10 22:18:00,
2013-05-10 17:19:00,55.0,47.9,30.06,NNE,22,5.8,5.8,77,0.00,,,0.06,VWS V14.01,2013-05-10 22:19:00,
2013-05-10 17:20:00,55.2,48.5,30.06,NNE,22,5.3,5.8,78,0.00,,,0.06,VWS V14.01,2013-05-10 22:20:00,
2013-05-10 17:21:00,55.2,48.5,30.06,NNE,22,5.3,5.3,78,0.00,,,0.06,VWS V14.01,2013-05-10 22:21:00,
2013-05-10 17:22:00,55.0,47.9,30.05,NNE,22,7.1,7.1,77,0.00,,,0.06,VWS V14.01,2013-05-10 22:22:00,
2013-05-10 17:23:00,55.0,47.9,30.05,NNE,22,7.1,7.1,77,0.00,,,0.06,VWS V14.01,2013-05-10 22:23:00,
2013-05-10 17:24:00,55.0,47.9,30.05,North,0,7.1,7.1,77,0.00,,,0.06,VWS V14.01,2013-05-10 22:24:00,
2013-05-10 17:25:00,55.0,47.9,30.06,North,0,7.1,7.1,77,0.00,,,0.06,VWS V14.01,2013-05-10 22:25:00,
2013-05-10 17:26:00,55.0,47.9,30.05,North,0,6.9,7.1,77,0.00,,,0.06,VWS V14.01,2013-05-10 22:26:00,
2013-05-10 17:27:00,55.0,47.9,30.05,North,0,6.9,6.9,77,0.00,,,0.06,VWS V14.01,2013-05-10 22:27:00,
2013-05-10 17:28:00,55.0,47.9,30.05,NNE,22,6.2,6.2,77,0.00,,,0.06,VWS V14.01,2013-05-10 22:28:00,
2013-05-10 17:29:00,55.0,47.9,30.05,NNE,22,6.2,6.2,77,0.00,,,0.06,VWS V14.01,2013-05-10 22:29:00,
2013-05-10 17:30:00,55.2,48.1,30.05,NNE,22,6.9,6.9,77,0.00,,,0.06,VWS V14.01,2013-05-10 22:30:00,
2013-05-10 17:31:00,55.2,48.1,30.05,NNE,22,6.9,6.9,77,0.00,,,0.06,VWS V14.01,2013-05-10 22:31:00,
2013-05-10 17:32:00,55.2,48.1,30.05,NNE,22,6.9,6.9,77,0.00,,,0.06,VWS V14.01,2013-05-10 22:32:00,
2013-05-10 17:33:00,55.2,48.1,30.05,NNE,22,6.9,6.9,77,0.00,,,0.06,VWS V14.01,2013-05-10 22:33:00,
2013-05-10 17:34:00,55.2,48.1,30.05,NNE,22,6.9,6.9,77,0.00,,,0.06,VWS V14.01,2013-05-10 22:34:00,
2013-05-10 17:35:00,55.2,48.1,30.05,NNE,22,6.7,6.9,77,0.00,,,0.06,VWS V14.01,2013-05-10 22:35:00,
2013-05-10 17:36:00,55.2,48.1,30.06,NNE,22,6.7,6.7,77,0.00,,,0.06,VWS V14.01,2013-05-10 22:36:00,
2013-05-10 17:37:00,55.2,48.1,30.06,NNE,22,6.4,6.7,77,0.00,,,0.06,VWS V14.01,2013-05-10 22:37:00,
2013-05-10 17:38:00,55.2,48.1,30.06,NNE,22,6.4,6.4,77,0.00,,,0.06,VWS V14.01,2013-05-10 22:38:00,
2013-05-10 17:39:00,55.0,47.9,30.06,North,0,6.7,6.7,77,0.00,,,0.06,VWS V14.01,2013-05-10 22:39:00,
2013-05-10 17:40:00,55.0,47.9,30.06,North,0,6.7,6.7,77,0.00,,,0.06,VWS V14.01,2013-05-10 22:40:00,
2013-05-10 17:41:00,55.0,47.9,30.06,NNE,22,5.1,6.7,77,0.00,,,0.06,VWS V14.01,2013-05-10 22:41:00,
2013-05-10 17:42:00,55.0,47.9,30.06,NNE,22,5.1,5.1,77,0.00,,,0.06,VWS V14.01,2013-05-10 22:42:00,
2013-05-10 17:43:00,55.2,48.1,30.06,NNE,22,4.4,5.1,77,0.00,,,0.06,VWS V14.01,2013-05-10 22:43:00,
2013-05-10 17:44:00,55.2,48.1,30.06,NNE,22,4.4,4.4,77,0.00,,,0.06,VWS V14.01,2013-05-10 22:44:00,
2013-05-10 17:45:00,55.2,48.1,30.06,NNE,22,7.6,7.6,77,0.00,,,0.06,VWS V14.01,2013-05-10 22:45:00,
2013-05-10 17:46:00,55.2,48.1,30.06,NNE,22,7.6,7.6,77,0.00,,,0.06,VWS V14.01,2013-05-10 22:46:00,
2013-05-10 17:47:00,55.2,48.1,30.06,NNE,22,7.6,7.6,77,0.00,,,0.06,VWS V14.01,2013-05-10 22:47:00,
2013-05-10 17:48:00,55.2,48.1,30.06,NE,45,6.9,7.6,77,0.00,,,0.06,VWS V14.01,2013-05-10 22:48:00,
2013-05-10 17:49:00,55.2,48.1,30.06,NE,45,6.9,6.9,77,0.00,,,0.06,VWS V14.01,2013-05-10 22:49:00,
2013-05-10 17:50:00,55.2,48.1,30.06,NNE,22,5.8,6.9,77,0.00,,,0.06,VWS V14.01,2013-05-10 22:50:00,
2013-05-10 17:51:00,55.2,48.1,30.06,NNE,22,5.8,5.8,77,0.00,,,0.06,VWS V14.01,2013-05-10 22:51:00,
2013-05-10 17:52:00,55.4,48.7,30.06,North,0,7.1,7.1,78,0.00,,,0.06,VWS V14.01,2013-05-10 22:52:00,
2013-05-10 17:53:00,55.4,48.7,30.06,North,0,7.1,7.1,78,0.00,,,0.06,VWS V14.01,2013-05-10 22:53:00,
2013-05-10 17:54:00,55.5,48.4,30.06,NNE,22,8.0,8.0,77,0.00,,,0.06,VWS V14.01,2013-05-10 22:54:00,
2013-05-10 17:55:00,55.5,48.4,30.06,NNE,22,8.0,8.0,77,0.00,,,0.06,VWS V14.01,2013-05-10 22:55:00,
2013-05-10 17:56:00,55.5,48.4,30.06,NNE,22,6.0,8.0,77,0.00,,,0.06,VWS V14.01,2013-05-10 22:56:00,
2013-05-10 17:57:00,55.5,48.4,30.06,NNE,22,6.0,6.0,77,0.00,,,0.06,VWS V14.01,2013-05-10 22:57:00,
2013-05-10 17:58:00,55.5,48.4,30.06,NNE,22,7.6,7.6,77,0.00,,,0.06,VWS V14.01,2013-05-10 22:58:00,
2013-05-10 17:59:00,55.5,48.4,30.05,NNE,22,7.6,7.6,77,0.00,,,0.06,VWS V14.01,2013-05-10 22:59:00,
2013-05-10 18:00:00,55.5,48.4,30.05,North,0,9.6,9.6,77,0.00,,,0.06,VWS V14.01,2013-05-10 23:00:00,
2013-05-10 18:01:00,55.5,48.4,30.05,North,0,9.6,9.6,77,0.00,,,0.06,VWS V14.01,2013-05-10 23:01:00,
2013-05-10 18:02:00,55.5,48.4,30.06,NNE,22,8.5,9.6,77,0.00,,,0.06,VWS V14.01,2013-05-10 23:02:00,
2013-05-10 18:03:00,55.5,48.4,30.05,NNE,22,8.5,8.5,77,0.00,,,0.06,VWS V14.01,2013-05-10 23:03:00,
2013-05-10 18:04:00,55.5,48.4,30.06,NNE,22,8.5,8.5,77,0.00,,,0.06,VWS V14.01,2013-05-10 23:04:00,
2013-05-10 18:05:00,55.2,48.1,30.06,East,90,6.7,8.5,77,0.00,,,0.06,VWS V14.01,2013-05-10 23:05:00,
2013-05-10 18:06:00,55.2,48.1,30.05,East,90,6.7,6.7,77,0.00,,,0.06,VWS V14.01,2013-05-10 23:06:00,
2013-05-10 18:07:00,55.2,48.1,30.06,NE,45,6.7,6.7,77,0.00,,,0.06,VWS V14.01,2013-05-10 23:07:00,
2013-05-10 18:08:00,55.2,48.1,30.05,NE,45,6.7,6.7,77,0.00,,,0.06,VWS V14.01,2013-05-10 23:08:00,
2013-05-10 18:09:00,55.2,48.1,30.06,NNE,22,6.7,6.7,77,0.00,,,0.06,VWS V14.01,2013-05-10 23:09:00,
2013-05-10 18:10:00,55.2,48.1,30.05,NNE,22,6.7,6.7,77,0.00,,,0.06,VWS V14.01,2013-05-10 23:10:00,
2013-05-10 18:11:00,55.0,47.9,30.05,NE,45,4.9,6.7,77,0.00,,,0.06,VWS V14.01,2013-05-10 23:11:00,
2013-05-10 18:12:00,55.0,47.9,30.05,NE,45,4.9,4.9,77,0.00,,,0.06,VWS V14.01,2013-05-10 23:12:00,
2013-05-10 18:13:00,55.0,47.9,30.05,NE,45,4.9,4.9,77,0.00,,,0.06,VWS V14.01,2013-05-10 23:13:00,
2013-05-10 18:14:00,55.0,47.9,30.06,NE,45,6.2,6.2,77,0.00,,,0.06,VWS V14.01,2013-05-10 23:14:00,
2013-05-10 18:15:00,55.0,47.9,30.06,NNE,22,3.8,6.2,77,0.00,,,0.06,VWS V14.01,2013-05-10 23:15:00,
2013-05-10 18:16:00,55.0,47.9,30.05,NNE,22,3.8,3.8,77,0.00,,,0.06,VWS V14.01,2013-05-10 23:16:00,
2013-05-10 18:17:00,54.8,47.7,30.05,NE,45,8.0,8.0,77,0.00,,,0.06,VWS V14.01,2013-05-10 23:17:00,
2013-05-10 18:18:00,54.8,47.7,30.05,NE,45,8.0,8.0,77,0.00,,,0.06,VWS V14.01,2013-05-10 23:18:00,
2013-05-10 18:19:00,54.8,47.7,30.05,NE,45,8.0,8.0,77,0.00,,,0.06,VWS V14.01,2013-05-10 23:19:00,
2013-05-10 18:20:00,54.8,47.7,30.05,NNE,22,4.6,8.0,77,0.00,,,0.06,VWS V14.01,2013-05-10 23:20:00,
2013-05-10 18:21:00,54.8,47.7,30.05,NNE,22,4.6,4.6,77,0.00,,,0.06,VWS V14.01,2013-05-10 23:21:00,
2013-05-10 18:22:00,55.0,47.9,30.05,NNE,22,2.6,4.6,77,0.00,,,0.06,VWS V14.01,2013-05-10 23:22:00,
2013-05-10 18:23:00,55.0,47.9,30.05,NNE,22,2.6,2.6,77,0.00,,,0.06,VWS V14.01,2013-05-10 23:23:00,
2013-05-10 18:24:00,55.0,47.9,30.05,NNE,22,6.7,6.7,77,0.00,,,0.06,VWS V14.01,2013-05-10 23:24:00,
2013-05-10 18:25:00,55.0,47.9,30.05,NNE,22,6.7,6.7,77,0.00,,,0.06,VWS V14.01,2013-05-10 23:25:00,
2013-05-10 18:26:00,54.8,47.7,30.05,NNE,22,2.9,6.7,77,0.00,,,0.06,VWS V14.01,2013-05-10 23:26:00,
2013-05-10 18:27:00,54.8,47.7,30.05,NNE,22,2.9,2.9,77,0.00,,,0.06,VWS V14.01,2013-05-10 23:27:00,
2013-05-10 18:28:00,54.8,47.7,30.05,NNE,22,2.9,2.9,77,0.00,,,0.06,VWS V14.01,2013-05-10 23:28:00,
2013-05-10 18:29:00,54.8,48.1,30.05,NNE,22,7.3,7.3,78,0.00,,,0.06,VWS V14.01,2013-05-10 23:29:00,
2013-05-10 18:30:00,54.6,47.5,30.05,NE,45,6.7,7.3,77,0.00,,,0.06,VWS V14.01,2013-05-10 23:30:00,
2013-05-10 18:31:00,54.6,47.5,30.06,NE,45,6.7,6.7,77,0.00,,,0.06,VWS V14.01,2013-05-10 23:31:00,
2013-05-10 18:32:00,54.6,47.5,30.06,NE,45,4.6,6.7,77,0.00,,,0.06,VWS V14.01,2013-05-10 23:32:00,
2013-05-10 18:33:00,54.6,47.5,30.06,NE,45,4.6,4.6,77,0.00,,,0.06,VWS V14.01,2013-05-10 23:33:00,
2013-05-10 18:34:00,54.5,47.8,30.05,NE,45,4.6,4.6,78,0.00,,,0.06,VWS V14.01,2013-05-10 23:34:00,
2013-05-10 18:35:00,54.5,47.8,30.05,ENE,68,4.4,4.6,78,0.00,,,0.06,VWS V14.01,2013-05-10 23:35:00,
2013-05-10 18:36:00,54.5,47.8,30.05,ENE,68,4.4,4.4,78,0.00,,,0.06,VWS V14.01,2013-05-10 23:36:00,
2013-05-10 18:37:00,54.5,47.8,30.05,NE,45,4.4,4.4,78,0.00,,,0.06,VWS V14.01,2013-05-10 23:37:00,
2013-05-10 18:38:00,54.5,47.8,30.05,NE,45,4.4,4.4,78,0.00,,,0.06,VWS V14.01,2013-05-10 23:38:00,
2013-05-10 18:39:00,54.5,47.8,30.05,NE,45,4.6,4.6,78,0.00,,,0.06,VWS V14.01,2013-05-10 23:39:00,
2013-05-10 18:40:00,54.5,47.8,30.05,NE,45,4.6,4.6,78,0.00,,,0.06,VWS V14.01,2013-05-10 23:40:00,
2013-05-10 18:41:00,54.3,47.6,30.05,ENE,68,6.7,6.7,78,0.00,,,0.06,VWS V14.01,2013-05-10 23:41:00,
2013-05-10 18:42:00,54.3,47.6,30.05,ENE,68,6.7,6.7,78,0.00,,,0.06,VWS V14.01,2013-05-10 23:42:00,
2013-05-10 18:43:00,54.3,47.6,30.05,ENE,68,6.7,6.7,78,0.00,,,0.06,VWS V14.01,2013-05-10 23:43:00,
2013-05-10 18:44:00,54.3,47.6,30.05,ENE,68,6.7,6.7,78,0.00,,,0.06,VWS V14.01,2013-05-10 23:44:00,
2013-05-10 18:45:00,54.3,47.6,30.05,East,90,5.1,6.7,78,0.00,,,0.06,VWS V14.01,2013-05-10 23:45:00,
2013-05-10 18:46:00,54.3,47.6,30.05,East,90,5.1,5.1,78,0.00,,,0.06,VWS V14.01,2013-05-10 23:46:00,
2013-05-10 18:47:00,54.3,47.6,30.05,ENE,68,6.4,6.4,78,0.00,,,0.06,VWS V14.01,2013-05-10 23:47:00,
2013-05-10 18:48:00,54.3,47.6,30.05,ENE,68,6.4,6.4,78,0.00,,,0.06,VWS V14.01,2013-05-10 23:48:00,
2013-05-10 18:49:00,54.3,47.6,30.05,ENE,68,6.4,6.4,78,0.00,,,0.06,VWS V14.01,2013-05-10 23:49:00,
2013-05-10 18:50:00,54.3,47.6,30.05,ENE,68,4.2,6.4,78,0.00,,,0.06,VWS V14.01,2013-05-10 23:50:00,
2013-05-10 18:51:00,54.3,47.6,30.05,ENE,68,4.2,4.2,78,0.00,,,0.06,VWS V14.01,2013-05-10 23:51:00,
2013-05-10 18:52:00,54.1,47.4,30.05,NE,45,2.6,4.2,78,0.00,,,0.06,VWS V14.01,2013-05-10 23:52:00,
2013-05-10 18:53:00,54.1,47.4,30.05,NE,45,2.6,2.6,78,0.00,,,0.06,VWS V14.01,2013-05-10 23:53:00,
2013-05-10 18:54:00,54.3,47.9,30.05,NE,45,0.8,2.6,79,0.00,,,0.06,VWS V14.01,2013-05-10 23:54:00,
2013-05-10 18:55:00,54.3,47.9,30.05,NE,45,0.8,0.8,79,0.00,,,0.06,VWS V14.01,2013-05-10 23:55:00,
2013-05-10 18:56:00,54.3,47.9,30.05,ENE,68,6.0,6.0,79,0.00,,,0.06,VWS V14.01,2013-05-10 23:56:00,
2013-05-10 18:57:00,54.3,47.9,30.05,ENE,68,6.0,6.0,79,0.00,,,0.06,VWS V14.01,2013-05-10 23:57:00,
2013-05-10 18:58:00,54.1,47.7,30.05,NE,45,5.3,6.0,79,0.00,,,0.06,VWS V14.01,2013-05-10 23:58:00,
2013-05-10 18:59:00,54.1,47.7,30.05,NE,45,5.3,5.3,79,0.00,,,0.06,VWS V14.01,2013-05-10 23:59:00,
2013-05-10 19:58:00,54.3,48.0,30.06,ENE,68,6.0,6.0,79,99.99,,,99.99,VWS V14.01,2013-05-11 00:58:00,
2013-05-10 20:59:00,50.7,45.8,12.78,ESE,112,0.0,0.0,83,0.00,,,0.06,VWS V14.01,2013-05-11 01:59:00,
2013-05-10 21:04:00,50.5,45.5,30.07,ESE,112,0.0,0.0,83,0.00,,,0.06,VWS V14.01,2013-05-11 02:04:00,
2013-05-10 21:09:00,50.0,45.4,30.07,ESE,112,0.4,0.4,84,0.00,,,0.06,VWS V14.01,2013-05-11 02:09:00,
2013-05-10 21:14:00,49.8,45.2,30.07,ESE,112,0.0,0.4,84,0.00,,,0.06,VWS V14.01,2013-05-11 02:14:00,
2013-05-10 21:19:00,50.1,45.8,30.07,ESE,112,0.0,2.4,85,0.00,,,0.06,VWS V14.01,2013-05-11 02:19:00,
2013-05-10 21:24:00,50.1,45.8,30.08,ESE,112,2.0,2.4,85,0.00,,,0.06,VWS V14.01,2013-05-11 02:24:00,
2013-05-10 21:29:00,50.3,46.0,30.07,SE,135,0.8,3.1,85,0.00,,,0.06,VWS V14.01,2013-05-11 02:29:00,
2013-05-10 21:34:00,50.3,46.0,30.07,SE,135,1.1,3.1,85,0.00,,,0.06,VWS V14.01,2013-05-11 02:34:00,
2013-05-10 21:39:00,50.0,45.7,30.07,SE,135,2.0,3.1,85,0.00,,,0.06,VWS V14.01,2013-05-11 02:39:00,
2013-05-10 21:44:00,49.8,45.5,30.08,SE,135,0.4,3.1,85,0.00,,,0.06,VWS V14.01,2013-05-11 02:44:00,
2013-05-10 21:49:00,49.6,45.3,30.08,SE,135,0.0,3.1,85,0.00,,,0.06,VWS V14.01,2013-05-11 02:49:00,
2013-05-10 21:54:00,49.6,45.3,30.08,SE,135,0.0,3.1,85,0.00,,,0.06,VWS V14.01,2013-05-11 02:54:00,
2013-05-10 21:59:00,49.2,44.9,30.08,SE,135,0.0,0.0,85,0.00,,,0.06,VWS V14.01,2013-05-11 02:59:00,
2013-05-10 22:04:00,49.1,44.8,30.08,SE,135,0.0,0.0,85,0.00,,,0.06,VWS V14.01,2013-05-11 03:04:00,
2013-05-10 22:09:00,48.7,44.4,30.07,SE,135,0.8,0.8,85,0.00,,,0.06,VWS V14.01,2013-05-11 03:09:00,
2013-05-10 22:14:00,48.3,44.3,30.07,SE,135,2.0,2.0,86,0.00,,,0.06,VWS V14.01,2013-05-11 03:14:00,
2013-05-10 22:19:00,48.0,44.0,30.07,SE,135,2.0,2.0,86,0.00,,,0.06,VWS V14.01,2013-05-11 03:19:00,
2013-05-10 22:24:00,48.0,44.0,30.07,SE,135,0.2,0.2,86,0.00,,,0.06,VWS V14.01,2013-05-11 03:24:00,
2013-05-10 22:29:00,48.0,44.0,30.07,SE,135,0.0,0.0,86,0.00,,,0.06,VWS V14.01,2013-05-11 03:29:00,
2013-05-10 22:34:00,47.8,43.8,30.06,SE,135,1.3,1.3,86,0.00,,,0.06,VWS V14.01,2013-05-11 03:34:00,
2013-05-10 22:39:00,47.4,43.4,30.06,SE,135,1.5,1.5,86,0.00,,,0.06,VWS V14.01,2013-05-11 03:39:00,
2013-05-10 22:44:00,47.4,43.4,30.06,SE,135,0.6,0.6,86,0.00,,,0.06,VWS V14.01,2013-05-11 03:44:00,
2013-05-10 22:49:00,47.3,43.3,30.06,SE,135,0.0,0.0,86,0.00,,,0.06,VWS V14.01,2013-05-11 03:49:00,
2013-05-10 22:54:00,47.6,43.6,30.06,SE,135,0.0,0.0,86,0.00,,,0.06,VWS V14.01,2013-05-11 03:54:00,
2013-05-10 22:59:00,47.4,43.4,30.06,SE,135,0.0,0.0,86,0.00,,,0.06,VWS V14.01,2013-05-11 03:59:00,
2013-05-10 23:01:00,47.4,43.4,30.06,SE,135,0.0,0.0,86,0.00,,,0.06,VWS V14.01,2013-05-11 04:01:00,
2013-05-10 23:06:00,47.4,43.4,30.06,SE,135,0.0,0.0,86,0.00,,,0.06,VWS V14.01,2013-05-11 04:06:00,
2013-05-10 23:11:00,47.3,43.3,30.06,SE,135,0.0,0.0,86,0.00,,,0.06,VWS V14.01,2013-05-11 04:11:00,
2013-05-10 23:16:00,46.2,42.5,30.06,SSW,202,0.0,0.0,87,0.00,,,0.06,VWS V14.01,2013-05-11 04:16:00,
2013-05-10 23:21:00,45.6,42.0,30.07,SSW,202,0.0,0.0,87,0.00,,,0.06,VWS V14.01,2013-05-11 04:21:00,
2013-05-10 23:26:00,45.5,41.9,30.07,SSW,202,0.0,0.0,87,0.00,,,0.06,VWS V14.01,2013-05-11 04:26:00,
2013-05-10 23:31:00,45.3,41.7,30.07,SSW,202,0.0,0.0,87,0.00,,,0.06,VWS V14.01,2013-05-11 04:31:00,
2013-05-10 23:36:00,45.1,41.5,30.07,SSW,202,0.0,0.0,87,0.00,,,0.06,VWS V14.01,2013-05-11 04:36:00,
2013-05-10 23:41:00,45.1,41.8,30.07,SSW,202,0.0,0.0,88,0.00,,,0.06,VWS V14.01,2013-05-11 04:41:00,
2013-05-10 23:46:00,45.1,41.8,30.07,West,270,0.0,0.0,88,0.00,,,0.06,VWS V14.01,2013-05-11 04:46:00,
2013-05-10 23:51:00,45.1,41.8,30.07,West,270,0.0,0.0,88,0.00,,,0.06,VWS V14.01,2013-05-11 04:51:00,
2013-05-10 23:56:00,45.1,41.8,30.07,West,270,0.0,0.0,88,0.00,,,0.06,VWS V14.01,2013-05-11 04:56:00,